[[{"header":{"parameterUnit":"m.s-1","parameterCategory":1,"la1":30.6,"la2":29.2853,"lo1":-89.7004,"lo2":-87.6739,"dy":0.0162,"dx":0.0183,"nx":112,"ny":82,"refTime":"2024-06-15T00:00:00:Z","depth":0,"parameterNumber":2,"parameterNumberName":"U-component_of_WINDS"},"data":[0.0,0.0,0.0,0.0,0.0,0.0,0.0,0.0,0.0,0.0,0.0,0.0,0.0,0.0,0.0,0.0,0.0,0.0,0.0,0.0,0.0,0.0,0.0,0.0,0.0,0.0,0.0,0.0,0.0,0.0,0.0,0.0,0.0,0.0,0.0,0.0,0.0,0.0,0.0,0.0,0.0,0.0,0.0,0.0,0.0,0.0,0.0,0.0,0.0,0.0,0.0,0.0,0.0,0.0,0.0,0.0,0.0,0.0,0.0,0.0,0.0,0.0,0.0,0.0,0.0,0.0,0.0,0.0,0.0,0.0,0.0,0.0,0.0,0.0,0.0,0.0,0.0,0.0,0.0,0.0,0.0,0.0,0.0,0.0,0.0,0.0,0.0,0.0,0.0,0.0,-2.9677,-3.1763,-3.2672,-3.28,-3.1918,-3.0634,-2.8604,-2.5543,0.0,0.0,0.0,0.0,0.0,0.0,0.0,0.0,0.0,0.0,0.0,0.0,0.0,0.0,0.0,0.0,0.0,0.0,0.0,0.0,0.0,0.0,0.0,0.0,0.0,0.0,0.0,0.0,0.0,0.0,0.0,0.0,0.0,0.0,0.0,0.0,0.0,0.0,0.0,0.0,0.0,0.0,0.0,0.0,0.0,0.0,0.0,0.0,0.0,0.0,0.0,0.0,0.0,0.0,0.0,0.0,0.0,0.0,0.0,0.0,0.0,0.0,0.0,0.0,0.0,0.0,0.0,0.0,0.0,0.0,0.0,0.0,0.0,0.0,0.0,0.0,0.0,0.0,0.0,0.0,0.0,0.0,0.0,0.0,0.0,0.0,0.0,0.0,0.0,0.0,0.0,0.0,0.0,0.0,0.0,0.0,0.0,0.0,0.0,0.0,0.0,0.0,0.0,0.0,-3.0178,-3.2726,-3.3697,-3.3808,-3.2943,-3.1343,-2.9433,-2.7163,0.0,0.0,0.0,0.0,0.0,0.0,0.0,0.0,0.0,0.0,0.0,0.0,0.0,0.0,0.0,0.0,0.0,0.0,0.0,0.0,0.0,0.0,0.0,0.0,0.0,0.0,0.0,0.0,0.0,0.0,0.0,0.0,0.0,0.0,0.0,0.0,0.0,0.0,0.0,0.0,0.0,0.0,0.0,0.0,0.0,0.0,0.0,0.0,0.0,0.0,0.0,0.0,0.0,0.0,0.0,0.0,0.0,0.0,0.0,0.0,0.0,0.0,0.0,0.0,0.0,0.0,0.0,0.0,0.0,0.0,0.0,0.0,0.0,0.0,0.0,0.0,0.0,0.0,0.0,0.0,0.0,0.0,0.0,0.0,0.0,0.0,0.0,0.0,0.0,0.0,0.0,0.0,0.0,0.0,0.0,0.0,0.0,0.0,0.0,0.0,0.0,0.0,0.0,-3.0387,-3.2105,-3.3461,-3.4084,-3.3975,-3.2938,-3.1116,-2.9116,-2.6823,-2.3958,0.0,0.0,0.0,0.0,0.0,0.0,0.0,0.0,0.0,0.0,0.0,0.0,0.0,0.0,0.0,0.0,0.0,0.0,0.0,0.0,0.0,0.0,0.0,0.0,0.0,0.0,0.0,0.0,0.0,0.0,0.0,0.0,0.0,0.0,0.0,0.0,0.0,0.0,0.0,0.0,0.0,0.0,0.0,0.0,0.0,0.0,0.0,0.0,0.0,0.0,0.0,0.0,0.0,0.0,0.0,0.0,0.0,0.0,0.0,0.0,0.0,0.0,0.0,0.0,0.0,0.0,0.0,0.0,0.0,0.0,0.0,0.0,0.0,0.0,0.0,0.0,0.0,0.0,0.0,0.0,0.0,0.0,0.0,0.0,0.0,0.0,0.0,0.0,0.0,0.0,0.0,0.0,0.0,0.0,0.0,0.0,0.0,0.0,0.0,0.0,0.0,0.0,-3.1661,-3.343,-3.3634,-3.4124,-3.3871,-3.2666,-3.0762,-2.8674,-2.6262,-2.3844,0.0,0.0,0.0,0.0,0.0,0.0,0.0,0.0,0.0,0.0,0.0,0.0,0.0,0.0,0.0,0.0,0.0,0.0,0.0,0.0,0.0,0.0,0.0,0.0,0.0,0.0,0.0,0.0,0.0,0.0,0.0,0.0,0.0,0.0,0.0,0.0,0.0,0.0,0.0,0.0,0.0,0.0,0.0,0.0,0.0,0.0,0.0,0.0,0.0,0.0,0.0,0.0,0.0,0.0,0.0,0.0,0.0,0.0,0.0,0.0,0.0,0.0,0.0,0.0,0.0,0.0,0.0,0.0,0.0,0.0,0.0,0.0,0.0,0.0,0.0,0.0,0.0,0.0,0.0,0.0,0.0,0.0,0.0,0.0,0.0,0.0,0.0,0.0,0.0,0.0,0.0,0.0,0.0,0.0,0.0,0.0,0.0,0.0,0.0,0.0,0.0,0.0,-3.0897,-3.2607,-3.296,-3.384,-3.383,-3.2416,-3.0721,-2.8714,-2.6323,-2.3991,0.0,0.0,0.0,0.0,0.0,0.0,0.0,0.0,0.0,0.0,0.0,0.0,0.0,0.0,0.0,0.0,0.0,0.0,0.0,0.0,0.0,0.0,0.0,0.0,0.0,0.0,0.0,0.0,0.0,0.0,0.0,0.0,0.0,0.0,0.0,0.0,0.0,0.0,0.0,0.0,0.0,0.0,0.0,0.0,0.0,0.0,0.0,0.0,0.0,0.0,0.0,0.0,0.0,0.0,0.0,0.0,0.0,0.0,0.0,0.0,0.0,0.0,0.0,0.0,0.0,0.0,0.0,0.0,0.0,0.0,0.0,0.0,0.0,0.0,0.0,0.0,0.0,0.0,0.0,0.0,0.0,0.0,0.0,0.0,0.0,0.0,0.0,0.0,0.0,0.0,0.0,0.0,0.0,0.0,0.0,0.0,0.0,0.0,0.0,0.0,0.0,0.0,-3.0646,-3.2376,0.0,-3.3472,-3.3199,-3.1705,-2.9878,-2.7671,-2.4992,0.0,0.0,0.0,0.0,0.0,0.0,0.0,0.0,0.0,0.0,0.0,0.0,0.0,0.0,0.0,0.0,0.0,0.0,0.0,0.0,0.0,0.0,0.0,0.0,0.0,0.0,0.0,0.0,0.0,0.0,0.0,0.0,0.0,0.0,0.0,0.0,0.0,0.0,0.0,0.0,0.0,0.0,0.0,0.0,0.0,0.0,0.0,0.0,0.0,0.0,0.0,0.0,0.0,0.0,0.0,0.0,0.0,0.0,0.0,0.0,0.0,0.0,0.0,0.0,0.0,0.0,0.0,0.0,0.0,0.0,0.0,0.0,0.0,0.0,0.0,0.0,0.0,0.0,0.0,0.0,0.0,0.0,0.0,0.0,0.0,0.0,0.0,0.0,0.0,0.0,0.0,0.0,0.0,0.0,0.0,0.0,0.0,0.0,0.0,0.0,0.0,0.0,-2.7971,-3.0162,-3.1875,0.0,-3.2904,-3.2421,-3.0802,-2.9035,-2.6745,-2.3903,0.0,0.0,0.0,0.0,0.0,0.0,0.0,0.0,0.0,0.0,0.0,0.0,0.0,0.0,0.0,0.0,0.0,0.0,0.0,0.0,0.0,0.0,0.0,0.0,0.0,0.0,0.0,0.0,0.0,0.0,0.0,0.0,0.0,0.0,0.0,0.0,0.0,0.0,0.0,0.0,0.0,0.0,0.0,0.0,0.0,0.0,0.0,0.0,0.0,0.0,0.0,0.0,0.0,0.0,0.0,0.0,0.0,0.0,0.0,0.0,0.0,0.0,0.0,0.0,0.0,0.0,0.0,0.0,0.0,0.0,0.0,0.0,0.0,0.0,0.0,0.0,0.0,0.0,0.0,0.0,0.0,0.0,0.0,0.0,0.0,0.0,0.0,0.0,0.0,0.0,0.0,0.0,0.0,0.0,0.0,0.0,0.0,0.0,0.0,0.0,0.0,0.0,-2.7082,-2.9315,-3.1065,-3.1712,-3.2136,-3.1693,-2.9947,-2.8257,-2.6075,0.0,0.0,0.0,0.0,0.0,0.0,0.0,0.0,0.0,0.0,0.0,0.0,0.0,0.0,0.0,0.0,0.0,0.0,0.0,0.0,0.0,0.0,0.0,0.0,0.0,0.0,0.0,0.0,0.0,0.0,0.0,0.0,0.0,0.0,0.0,0.0,0.0,0.0,0.0,0.0,0.0,0.0,0.0,0.0,0.0,0.0,0.0,0.0,0.0,0.0,0.0,0.0,0.0,0.0,0.0,0.0,0.0,0.0,0.0,0.0,0.0,0.0,0.0,0.0,0.0,0.0,0.0,0.0,0.0,0.0,0.0,0.0,0.0,0.0,0.0,0.0,0.0,0.0,0.0,0.0,0.0,0.0,0.0,0.0,0.0,0.0,0.0,0.0,0.0,0.0,0.0,0.0,0.0,0.0,0.0,0.0,0.0,0.0,0.0,0.0,0.0,0.0,0.0,-2.7581,-2.9544,-3.105,-3.1661,-3.1641,-3.0954,-2.9242,-2.7402,-2.5253,-2.2622,0.0,0.0,0.0,0.0,0.0,0.0,0.0,0.0,0.0,0.0,0.0,0.0,0.0,0.0,0.0,0.0,0.0,0.0,0.0,0.0,0.0,0.0,0.0,0.0,0.0,0.0,0.0,0.0,0.0,0.0,0.0,0.0,0.0,0.0,0.0,0.0,0.0,0.0,0.0,0.0,0.0,0.0,0.0,0.0,0.0,0.0,0.0,0.0,0.0,0.0,0.0,0.0,0.0,0.0,0.0,0.0,0.0,0.0,0.0,0.0,0.0,0.0,0.0,0.0,0.0,0.0,0.0,0.0,0.0,0.0,0.0,0.0,0.0,0.0,0.0,0.0,0.0,0.0,0.0,0.0,0.0,0.0,0.0,0.0,0.0,0.0,0.0,0.0,0.0,0.0,0.0,0.0,0.0,0.0,0.0,0.0,0.0,0.0,0.0,0.0,0.0,0.0,-2.769,-2.9326,-3.0664,-3.1464,-3.105,-3.0163,-2.8761,-2.6908,-2.4826,-2.2457,0.0,0.0,0.0,0.0,0.0,0.0,0.0,0.0,0.0,0.0,0.0,0.0,0.0,0.0,0.0,0.0,0.0,0.0,0.0,0.0,0.0,0.0,0.0,0.0,0.0,0.0,0.0,0.0,0.0,0.0,0.0,0.0,0.0,0.0,0.0,0.0,0.0,0.0,0.0,0.0,0.0,0.0,0.0,0.0,0.0,0.0,0.0,0.0,0.0,0.0,0.0,0.0,0.0,0.0,0.0,0.0,0.0,0.0,0.0,0.0,0.0,0.0,0.0,0.0,0.0,0.0,0.0,0.0,0.0,0.0,0.0,0.0,0.0,0.0,0.0,0.0,0.0,0.0,0.0,0.0,0.0,0.0,0.0,0.0,0.0,0.0,0.0,0.0,0.0,0.0,0.0,0.0,0.0,0.0,0.0,0.0,0.0,0.0,0.0,0.0,0.0,0.0,-2.7507,-2.8838,-3.0024,-3.1066,-3.0329,-2.9352,-2.8341,-2.6578,-2.4676,-2.2675,0.0,0.0,0.0,0.0,0.0,0.0,0.0,0.0,0.0,0.0,0.0,0.0,0.0,0.0,0.0,0.0,0.0,0.0,0.0,0.0,0.0,0.0,0.0,0.0,0.0,0.0,0.0,0.0,0.0,0.0,0.0,0.0,0.0,0.0,0.0,0.0,0.0,0.0,0.0,0.0,0.0,0.0,0.0,0.0,0.0,0.0,0.0,0.0,0.0,0.0,0.0,0.0,0.0,0.0,0.0,0.0,0.0,0.0,0.0,0.0,-1.902,0.0,0.0,0.0,0.0,0.0,0.0,0.0,0.0,0.0,0.0,0.0,0.0,0.0,0.0,0.0,0.0,0.0,0.0,0.0,0.0,0.0,0.0,0.0,0.0,0.0,0.0,0.0,0.0,0.0,0.0,0.0,0.0,0.0,0.0,0.0,0.0,0.0,0.0,0.0,0.0,0.0,-2.7775,-2.8704,-2.9419,-3.0147,-2.9439,-2.8503,-2.7338,-2.573,-2.4257,-2.2906,-2.0938,0.0,0.0,0.0,0.0,0.0,0.0,0.0,0.0,0.0,0.0,0.0,0.0,0.0,0.0,0.0,0.0,0.0,0.0,0.0,0.0,0.0,0.0,0.0,0.0,0.0,0.0,0.0,0.0,0.0,0.0,0.0,0.0,0.0,0.0,0.0,0.0,0.0,0.0,0.0,0.0,0.0,0.0,0.0,0.0,0.0,0.0,0.0,0.0,0.0,0.0,0.0,0.0,0.0,0.0,0.0,0.0,0.0,0.0,0.0,0.0,-1.9124,0.0,0.0,0.0,0.0,0.0,0.0,0.0,0.0,0.0,0.0,0.0,0.0,0.0,0.0,0.0,0.0,0.0,0.0,0.0,0.0,0.0,0.0,0.0,0.0,0.0,0.0,0.0,0.0,0.0,0.0,0.0,0.0,0.0,0.0,0.0,0.0,0.0,0.0,0.0,0.0,-2.7535,-2.8249,-2.8784,-2.9419,-2.8699,-2.7845,-2.6957,-2.5742,-2.4541,-2.3402,-2.1977,0.0,0.0,0.0,0.0,0.0,0.0,0.0,0.0,0.0,0.0,0.0,0.0,0.0,0.0,0.0,0.0,0.0,0.0,0.0,0.0,0.0,0.0,0.0,0.0,0.0,0.0,0.0,0.0,0.0,0.0,0.0,0.0,0.0,0.0,0.0,0.0,0.0,0.0,0.0,0.0,0.0,0.0,0.0,0.0,0.0,0.0,0.0,0.0,0.0,0.0,0.0,0.0,0.0,-2.1441,-2.1286,-2.1257,-2.0958,-2.0713,-2.0455,-1.971,-1.9621,-1.9945,0.0,0.0,0.0,0.0,0.0,0.0,0.0,0.0,0.0,0.0,0.0,0.0,0.0,0.0,0.0,0.0,0.0,0.0,0.0,0.0,0.0,0.0,0.0,0.0,0.0,-2.3017,-2.2999,0.0,0.0,0.0,0.0,0.0,0.0,0.0,0.0,0.0,0.0,0.0,0.0,-2.7128,-2.7617,-2.8033,-2.8707,-2.793,-2.7241,-2.6812,-2.5932,-2.4999,-2.4108,-2.3144,-2.1953,0.0,0.0,0.0,0.0,0.0,0.0,0.0,0.0,0.0,0.0,0.0,0.0,0.0,0.0,0.0,0.0,0.0,0.0,0.0,0.0,0.0,0.0,0.0,0.0,0.0,0.0,0.0,0.0,0.0,0.0,0.0,0.0,-2.2135,-2.1994,0.0,0.0,0.0,0.0,0.0,0.0,0.0,0.0,0.0,0.0,0.0,0.0,0.0,-2.1784,-2.1942,-2.2237,-2.2215,-2.1938,-2.2212,-2.2168,-2.1869,-2.1574,-2.1561,-2.1722,-2.0823,0.0,-2.0444,-1.9802,0.0,0.0,0.0,0.0,0.0,0.0,0.0,0.0,0.0,0.0,0.0,0.0,0.0,0.0,0.0,0.0,0.0,0.0,0.0,0.0,0.0,0.0,-2.3717,-2.4013,-2.4322,-2.4585,0.0,-2.3557,-2.2509,-2.2673,0.0,0.0,0.0,0.0,0.0,0.0,0.0,0.0,-2.6677,-2.6846,-2.6977,-2.7421,-2.6955,-2.6544,-2.6235,-2.5551,-2.5067,-2.4949,-2.3795,-2.2812,-2.2187,-2.0605,0.0,0.0,0.0,0.0,0.0,0.0,0.0,0.0,0.0,0.0,0.0,0.0,0.0,0.0,0.0,0.0,0.0,0.0,0.0,0.0,0.0,0.0,0.0,0.0,0.0,0.0,0.0,0.0,0.0,-2.1588,-2.1632,-2.1726,-2.1743,-2.1611,0.0,0.0,0.0,0.0,0.0,0.0,0.0,0.0,0.0,-2.1902,-2.2195,-2.2432,-2.2572,-2.2669,-2.2624,-2.2492,-2.2579,-2.2534,-2.2398,-2.2232,-2.206,-2.1784,-2.1404,-2.1033,-2.0699,-1.978,-1.9569,-1.9764,0.0,0.0,0.0,0.0,-1.9473,-1.9949,-1.9803,-1.9857,0.0,0.0,0.0,0.0,0.0,0.0,0.0,0.0,0.0,0.0,0.0,0.0,0.0,-2.4535,-2.4726,-2.4951,-2.5209,-2.4709,-2.4079,0.0,-2.2888,-2.2331,-2.2625,0.0,0.0,0.0,0.0,-2.4543,-2.5916,-2.6217,-2.6424,-2.6751,-2.6496,-2.6159,-2.5917,-2.5595,-2.5332,-2.5125,-2.4316,-2.3574,-2.291,-2.168,-2.0566,0.0,0.0,0.0,0.0,0.0,0.0,0.0,0.0,0.0,0.0,0.0,0.0,0.0,0.0,0.0,0.0,0.0,0.0,0.0,0.0,0.0,0.0,0.0,0.0,0.0,0.0,0.0,0.0,-2.1177,-2.1319,-2.1491,-2.1534,-2.1449,0.0,0.0,0.0,0.0,0.0,0.0,-2.1742,-2.2207,-2.2461,-2.2466,-2.2769,-2.3043,-2.3059,-2.3025,-2.297,-2.297,-2.2802,-2.2659,-2.2672,-2.2594,-2.2383,-2.1906,-2.1837,-2.154,-2.1074,-2.0017,-1.9647,-1.9756,-1.9285,-1.9367,-1.9737,-1.9733,-2.0032,-2.0387,-2.0215,-2.0273,-2.033,-1.9907,0.0,-1.9526,-1.971,0.0,0.0,0.0,0.0,-2.1813,-2.2557,-2.3227,-2.389,-2.4562,-2.4845,-2.5075,-2.5516,-2.5496,-2.526,0.0,-2.3647,-2.3051,-2.3215,0.0,0.0,0.0,0.0,-2.4466,-2.5464,-2.5778,-2.604,-2.6264,-2.611,-2.5917,-2.5742,-2.5693,-2.5586,-2.5254,-2.468,-2.4049,-2.3471,-2.2431,-2.1395,-2.0408,0.0,0.0,0.0,0.0,0.0,0.0,0.0,0.0,0.0,0.0,0.0,0.0,0.0,0.0,0.0,0.0,0.0,0.0,0.0,0.0,0.0,0.0,0.0,0.0,0.0,0.0,0.0,0.0,0.0,-2.1259,-2.1444,0.0,0.0,0.0,0.0,-2.1511,-2.1894,-2.2076,-2.2062,-2.2377,-2.2481,-2.2432,-2.2727,-2.3035,-2.326,-2.3201,-2.3203,-2.3203,-2.2801,-2.2599,-2.2599,-2.2612,-2.2599,-2.2502,-2.2144,-2.1988,-2.1852,-2.0835,-2.045,-2.0424,-2.0055,-2.0015,-2.0081,-2.0067,-2.0143,-2.0221,-2.0221,-2.0221,-2.0241,-2.0169,-2.0127,-2.0186,-2.0674,-2.0659,0.0,0.0,-2.0909,-2.1217,-2.19,-2.2489,-2.319,-2.4127,-2.4765,-2.5333,-2.5954,-2.5775,-2.5429,0.0,-2.4527,-2.4146,-2.4125,0.0,-2.3577,-2.4459,-2.4472,-2.4746,-2.5631,-2.5605,-2.552,-2.5732,-2.5742,-2.5693,-2.5693,-2.5693,-2.5674,-2.5654,-2.4714,-2.409,-2.4052,-2.2618,-2.14,-2.0588,-1.9733,0.0,0.0,0.0,0.0,0.0,0.0,0.0,0.0,0.0,0.0,0.0,0.0,0.0,0.0,0.0,0.0,0.0,0.0,0.0,0.0,0.0,0.0,0.0,0.0,0.0,0.0,0.0,0.0,-2.1123,-2.12,0.0,-2.1262,-2.1407,-2.1502,-2.1611,-2.2008,-2.2254,-2.2296,-2.2593,-2.2821,-2.2993,-2.2823,-2.2951,-2.3253,-2.2931,-2.2839,-2.2839,-2.2586,-2.2443,-2.2456,-2.2411,-2.2325,-2.2165,-2.2019,-2.1849,-2.1654,-2.1307,-2.097,-2.0626,-2.0543,-2.0401,-2.0358,-2.0812,-2.0928,-2.1042,-2.1299,-2.1363,-2.1283,-2.0913,-2.0665,-2.0527,-2.0704,-2.0854,-2.1002,-2.1046,-2.122,-2.1481,-2.1948,-2.2501,-2.3168,-2.4145,-2.4696,-2.5161,-2.5786,-2.5778,-2.5641,-2.5487,-2.5219,-2.4945,-2.4813,-2.4363,-2.4136,-2.4396,-2.4376,-2.4446,-2.4802,-2.4977,-2.5111,-2.5167,-2.5186,-2.5186,-2.5186,-2.5186,-2.5071,-2.4804,-2.4183,-2.3744,-2.3477,-2.2637,-2.1749,-2.0818,-2.0214,-1.9178,0.0,0.0,0.0,0.0,0.0,0.0,0.0,0.0,0.0,0.0,0.0,0.0,0.0,0.0,0.0,0.0,0.0,0.0,0.0,0.0,0.0,0.0,0.0,0.0,0.0,-2.0918,-2.1042,-2.1229,-2.1349,-2.1403,-2.1403,-2.1577,-2.1762,-2.1762,-2.2151,-2.2391,-2.2362,-2.2654,-2.2875,-2.3038,-2.286,-2.2931,-2.3125,-2.2853,-2.2686,-2.2686,-2.2496,-2.2362,-2.2374,-2.2335,-2.2162,-2.2005,-2.2005,-2.1897,-2.174,-2.174,-2.1486,-2.111,-2.0955,-2.0786,-2.0742,-2.1044,-2.1275,-2.145,-2.1859,-2.1991,-2.1924,-2.1537,-2.1262,-2.1113,-2.1018,-2.1094,-2.1182,-2.1072,-2.1083,-2.118,-2.1541,-2.196,-2.2558,-2.3433,-2.398,-2.4444,-2.5009,-2.5275,-2.5331,-2.537,-2.5415,-2.5386,-2.5267,-2.4983,-2.4814,-2.4801,-2.4681,-2.4587,-2.4684,-2.4798,-2.4892,-2.4892,-2.4892,-2.4892,-2.4892,-2.476,-2.4571,-2.4335,-2.3692,-2.3258,-2.2994,-2.24,-2.1683,-2.0869,-2.0149,-1.9105,-1.7736,0.0,0.0,0.0,0.0,0.0,0.0,0.0,0.0,0.0,0.0,0.0,0.0,0.0,0.0,0.0,0.0,0.0,0.0,0.0,0.0,0.0,0.0,0.0,-2.0708,-2.1253,-2.1614,-2.1628,-2.1817,-2.1991,-2.1991,-2.1991,-2.2004,-2.2017,-2.2285,-2.2375,-2.2323,-2.254,-2.2698,-2.2624,-2.2819,-2.2958,-2.2971,-2.2942,-2.2856,-2.2856,-2.2483,-2.2334,-2.2334,-2.2334,-2.2334,-2.2334,-2.2334,-2.2334,-2.2334,-2.2334,-2.2188,-2.1824,-2.1365,-2.113,-2.1195,-2.0935,-2.1066,-2.1476,-2.1885,-2.2004,-2.2004,-2.2004,-2.1991,-2.1937,-2.1722,-2.1363,-2.1069,-2.0775,-2.0494,-2.0315,-2.0618,-2.0906,-2.1268,-2.1929,-2.2543,-2.3139,-2.3744,-2.4118,-2.4449,-2.4718,-2.5093,-2.5469,-2.5451,-2.5445,-2.5485,-2.5763,-2.5391,0.0,-2.5465,-2.5157,-2.4911,-2.4911,-2.4892,-2.4892,-2.4892,-2.4533,-2.4287,-2.4268,-2.3261,-2.2702,-2.2684,-2.1816,-2.1193,-2.0735,-1.9456,-1.84,-1.7579,0.0,0.0,0.0,0.0,0.0,0.0,0.0,0.0,0.0,0.0,0.0,0.0,0.0,0.0,0.0,0.0,0.0,0.0,0.0,0.0,0.0,-2.1096,-2.1227,-2.1336,-2.1521,-2.1695,-2.1844,-2.1937,-2.1991,-2.1991,-2.2178,-2.2392,-2.2605,-2.2625,-2.2719,-2.2936,-2.2743,-2.2709,-2.2904,-2.2702,-2.2693,-2.2967,-2.2595,-2.2483,-2.2483,-2.2334,-2.2334,-2.2334,-2.2334,-2.2334,-2.2334,-2.2334,-2.2334,-2.2334,-2.2334,-2.2297,-2.22,-2.1776,-2.1437,-2.1154,-2.1348,-2.1496,-2.1735,-2.2076,-2.208,-2.1964,-2.2231,-2.2164,-2.1977,-2.1897,-2.1657,-2.148,-2.14,-2.1096,-2.0869,-2.0994,-2.1243,-2.1541,-2.1976,-2.241,-2.2845,-2.3187,-2.3307,-2.3407,-2.351,-2.3755,-2.4261,-2.5116,-2.52,-2.5272,-2.5537,-2.5245,0.0,-2.5404,-2.5053,-2.4812,-2.4812,-2.4585,-2.4399,-2.4399,-2.4288,-2.3992,-2.3304,-2.284,-2.2363,-2.1798,-2.1221,-2.0507,-1.971,-1.8928,-1.8209,0.0,0.0,0.0,0.0,0.0,0.0,0.0,0.0,0.0,0.0,0.0,0.0,0.0,0.0,0.0,0.0,0.0,0.0,0.0,0.0,0.0,0.0,-2.128,-2.1476,-2.162,-2.1661,-2.178,-2.1952,-2.2324,-2.2552,-2.2552,-2.2669,-2.2852,-2.3024,-2.2774,-2.2711,-2.2849,-2.2645,-2.2554,-2.2682,-2.2473,-2.2473,-2.2632,-2.2408,-2.2334,-2.2334,-2.2334,-2.2334,-2.2334,-2.2334,-2.2334,0.0,-2.2334,-2.2334,-2.2334,-2.2334,-2.2334,0.0,0.0,0.0,0.0,0.0,-2.1583,-2.1622,-2.1966,-2.2069,-2.213,-2.2266,-2.235,-2.2325,-2.2205,-2.2044,-2.1897,-2.1764,-2.1617,-2.1443,-2.1323,-2.1424,-2.1638,-2.1642,-2.1929,-2.225,-2.2362,-2.2526,-2.2627,-2.2617,0.0,0.0,-2.3942,-2.4544,-2.507,-2.5342,-2.5165,-2.5039,-2.525,-2.4907,-2.4654,-2.4654,-2.4293,-2.4058,-2.4058,-2.375,0.0,0.0,0.0,-2.1878,-2.1113,-2.0661,0.0,0.0,0.0,0.0,0.0,0.0,0.0,0.0,-1.6783,-1.658,0.0,0.0,0.0,0.0,0.0,0.0,0.0,0.0,0.0,0.0,0.0,0.0,0.0,0.0,0.0,0.0,-2.1512,-2.1491,-2.1647,-2.1782,-2.1901,-2.1969,-2.2701,-2.324,-2.324,-2.3182,-2.3138,-2.3164,-2.2806,-2.2573,-2.2484,0.0,0.0,0.0,0.0,-2.2334,-2.2334,-2.2334,-2.2334,-2.2334,-2.2334,-2.2334,-2.2334,-2.2334,-2.2334,-2.2334,-2.2334,-2.2334,-2.2334,-2.2334,-2.2334,-2.2235,-2.1969,-2.1873,-2.1873,-2.165,-2.1422,0.0,0.0,0.0,0.0,-2.2242,-2.2516,-2.2819,-2.2484,-2.2378,-2.2365,-2.2111,-2.2004,-2.1924,-2.1735,-2.1641,-2.1547,-2.1229,-2.1326,-2.1551,-2.1551,-2.177,-2.1992,-2.2025,-2.2207,-2.2379,-2.2361,-2.3618,-2.4718,-2.5,-2.4996,-2.502,-2.5074,-2.4721,-2.4474,-2.4474,0.0,0.0,-2.3787,-2.3085,-2.2663,-2.2526,-2.1834,-2.1148,-2.0442,-2.0103,-1.9714,-1.9226,-1.8769,-1.8489,-1.8484,-1.8002,-1.7782,-1.7746,-1.7366,-1.7094,0.0,0.0,0.0,0.0,0.0,0.0,0.0,0.0,0.0,0.0,0.0,0.0,0.0,0.0,0.0,-2.2384,-2.2082,-2.1836,-2.1591,-2.1768,-2.2086,-2.2441,-2.2614,-2.2749,-2.2749,-2.2729,-2.2785,-2.3002,-2.2664,-2.2557,-2.2757,-2.2484,-2.2285,-2.2334,-2.2334,-2.2334,-2.2334,-2.2334,-2.2334,-2.2334,0.0,0.0,-2.2334,-2.2334,-2.2334,-2.2334,-2.2334,-2.2334,-2.2334,-2.2334,-2.2334,-2.2235,-2.1969,-2.1873,-2.191,-2.1583,-2.1363,-2.119,-2.1542,-2.1533,-2.1484,-2.176,-2.2104,-2.2366,-2.2314,-2.2334,0.0,-2.2352,-2.2164,-2.1977,-2.1924,-2.1724,-2.1601,-2.1547,-2.1346,-2.1172,-2.1172,-2.1258,-2.1262,-2.1266,-2.1354,-2.1446,-2.1737,-2.2653,-2.3552,-2.4089,-2.4156,-2.4344,-2.4786,-2.4513,-2.4289,-2.4289,-2.3891,-2.3443,-2.2927,-2.2706,-2.2266,-2.1445,-2.0573,-1.9844,-1.9323,-1.9014,-1.8622,-1.8094,-1.7995,-1.7875,-1.7724,-1.7622,-1.7592,-1.7603,-1.7273,-1.72,0.0,0.0,0.0,0.0,0.0,0.0,0.0,0.0,0.0,0.0,0.0,-2.2334,-2.2928,0.0,-2.2601,-2.2312,-2.2122,-2.1956,-2.1728,-2.1813,-2.2054,-2.2278,-2.2595,-2.2828,-2.2828,-2.2737,-2.2802,-2.294,-2.2571,-2.2411,-2.2632,-2.2408,-2.2334,-2.2334,-2.2334,-2.2334,-2.2334,-2.2334,-2.2334,-2.2334,-2.2334,-2.2334,-2.2334,-2.2334,-2.2334,-2.2334,-2.2334,-2.2334,-2.2334,-2.2334,-2.2334,-2.2321,-2.2114,-2.1981,-2.1848,-2.1728,-2.1486,-2.1135,-2.1264,-2.1303,-2.1207,-2.1415,-2.176,-2.2035,-2.2035,-2.2069,-2.2102,-2.2293,-2.2268,-2.219,-2.2178,-2.2098,-2.1951,-2.1804,-2.155,-2.1336,-2.1336,-2.1216,-2.1132,-2.1096,-2.107,-2.1162,-2.1338,-2.1761,-2.2334,-2.3095,-2.3101,-2.3215,-2.3832,-2.3556,-2.3402,-2.3568,-2.3146,-2.2635,-2.2349,-2.1835,-2.1247,-2.0468,-1.9961,-1.9466,-1.8926,-1.8658,-1.8317,-1.7923,-1.7756,-1.7633,-1.7576,-1.7576,-1.7539,-1.7582,-1.7443,-1.7441,0.0,0.0,0.0,0.0,0.0,0.0,0.0,-2.091,-2.1445,-2.2199,-2.238,-2.2562,-2.3041,-2.2896,-2.256,-2.2199,-2.2126,-2.2068,-2.1994,-2.1945,-2.2007,-2.2091,-2.2543,-2.2888,-2.2888,-2.2806,-2.2781,-2.2781,-2.2483,-2.2334,-2.2334,-2.2334,-2.2334,-2.2334,-2.2334,-2.2334,-2.2334,-2.2334,-2.2334,-2.2334,-2.2334,-2.2334,-2.2334,-2.2334,-2.2334,-2.2334,-2.2334,-2.2334,-2.2334,-2.2334,-2.2334,-2.2334,-2.2334,-2.22,-2.1945,-2.1945,-2.1631,-2.128,-2.1219,-2.1166,-2.1143,-2.1094,-2.1358,-2.1691,-2.1691,-2.176,-2.1829,-2.2104,-2.2173,-2.219,-2.2295,-2.2256,-2.215,-2.1925,-2.1647,-2.1422,-2.1369,-2.1171,-2.0985,-2.0932,-2.0982,-2.0966,-2.0975,-2.1005,-2.131,-2.2111,-2.2073,-2.2105,-2.257,-2.2425,-2.2369,-2.2611,-2.2193,-2.1769,-2.1652,-2.0816,-2.0083,-1.9672,-1.9493,-1.9255,-1.8769,-1.8398,-1.816,-1.7911,-1.7687,-1.7582,-1.7582,-1.7649,-1.7675,-1.7622,-1.7676,-1.7676,-1.9467,-1.948,-1.9577,-1.9856,-2.0282,-2.0703,0.0,-2.1525,-2.1982,-2.251,-2.2798,-2.2904,-2.298,-2.2976,-2.2843,-2.2843,-2.2472,-2.2261,-2.2285,-2.2297,-2.2285,-2.2249,-2.2347,-2.236,-2.236,-2.2396,-2.2334,-2.2334,-2.2334,-2.2334,-2.2334,-2.2334,-2.2334,-2.2334,-2.2334,-2.2334,-2.2334,-2.2334,-2.2334,-2.2334,-2.2334,-2.2334,-2.2334,-2.2334,-2.2334,-2.2334,-2.2334,-2.2334,-2.2334,-2.2334,-2.2334,-2.2334,-2.2334,-2.2321,-2.2297,-2.2297,-2.2103,-2.174,-2.1558,-2.1304,-2.105,-2.0807,-2.1012,-2.1276,-2.1276,-2.1484,-2.1841,-2.1829,-2.1829,-2.1897,-2.1859,-2.1667,-2.1408,-2.1369,-2.1152,-2.0884,-2.0707,-2.0618,-2.0528,-2.0285,-2.0425,-2.0666,-2.069,-2.0717,-2.0897,-2.1289,-2.1335,-2.1322,-2.139,-2.1345,-2.1345,-2.1402,-2.1316,-2.1055,-2.0426,-1.9818,-1.9386,-1.9344,-1.8888,-1.8588,-1.8521,-1.7994,-1.7687,-1.7635,-1.7635,-1.7582,-1.7582,-1.7862,-1.7834,-1.7605,-1.7867,-1.7963,-2.0384,-2.0347,-2.0267,-2.0702,-2.0859,-2.1013,-2.1312,-2.1663,-2.2087,-2.2466,-2.2591,-2.2716,-2.2879,-2.2707,-2.2558,-2.2558,-2.2408,-2.2334,-2.2334,-2.2334,-2.2334,-2.2334,-2.2334,-2.2334,-2.2334,-2.2334,-2.2334,-2.2334,-2.2334,-2.2334,-2.2334,-2.2334,-2.2334,-2.2334,-2.2334,-2.2334,-2.2334,-2.2334,-2.2334,-2.2334,-2.2334,-2.2334,-2.2334,-2.2334,-2.2334,-2.2334,-2.2334,-2.2334,-2.2334,-2.2334,-2.2334,-2.2334,-2.2334,-2.2334,-2.2334,-2.2334,-2.209,-2.1848,-2.174,-2.1486,-2.111,-2.1001,-2.0926,-2.0943,-2.0943,-2.1012,-2.122,-2.1427,-2.1415,-2.1484,-2.176,-2.1683,-2.1594,-2.1594,-2.1378,-2.1069,-2.0955,-2.0742,-2.0488,-2.0373,-2.0349,-2.0297,-2.0297,-2.0321,-2.0352,-2.0313,-2.0523,-2.0708,-2.0856,-2.0769,-2.0582,-2.0399,-2.0385,-2.0144,-1.9498,-1.9192,-1.8986,-1.8823,-1.8645,-1.8523,-1.8523,-1.8061,-1.7818,-1.7818,-1.7668,-1.7559,-1.7559,-1.7634,-1.7631,-1.752,-1.7636,-1.7837,-2.1076,-2.104,-2.0991,-2.1378,-2.1378,-2.1329,-2.1547,-2.1861,-2.2177,-2.2374,-2.2473,-2.2584,-2.2781,-2.2593,-2.2443,-2.2443,-2.2382,-2.2334,-2.2334,-2.2334,-2.2334,-2.2334,-2.2334,-2.2334,-2.2334,-2.2334,-2.2334,-2.2334,-2.2334,-2.2334,-2.2334,-2.2334,-2.2334,-2.2334,-2.2334,-2.2334,-2.2334,-2.2334,-2.2334,-2.2334,-2.2334,-2.2334,-2.2334,-2.2184,-2.2035,-2.196,-2.196,-2.196,-2.196,-2.2109,-2.2109,-2.2184,-2.2259,-2.2334,-2.2334,-2.2334,-2.2212,-2.1969,-2.1897,-2.1619,-2.1328,-2.1183,-2.1001,-2.0832,-2.069,-2.0665,-2.0735,-2.1012,-2.1081,-2.1151,-2.1427,-2.1496,-2.1496,-2.1496,-2.1333,-2.1102,-2.1027,-2.0701,-2.0401,-2.0326,-2.0217,-2.0093,-2.0093,-2.0093,-2.0043,-1.9839,-1.9996,-2.0212,-2.0305,-2.0077,-1.9738,-1.9444,-1.9403,-1.9265,-1.8823,-1.8753,-1.8674,-1.8463,-1.8371,-1.8387,-1.8387,-1.8017,-1.7854,-1.7854,-1.7644,-1.7477,-1.7477,-1.7609,-1.7591,-1.7522,-1.761,-1.7704,-2.139,-2.1462,-2.1462,-2.1474,-2.1667,-2.1848,-2.186,-2.2128,-2.2309,-2.2321,-2.2527,-2.2709,-2.2709,-2.2721,-2.2721,-2.2721,-2.2503,-2.2334,-2.2334,-2.2334,-2.2334,-2.2334,-2.2334,-2.2334,-2.2334,-2.2334,-2.2334,-2.2334,-2.2334,-2.2334,-2.2334,-2.2334,-2.2334,-2.2334,-2.2334,-2.2334,-2.2334,-2.2334,-2.2334,-2.2334,-2.2334,-2.2334,-2.2259,-2.1885,-2.151,-2.1146,-2.1146,-2.1146,-2.1146,-2.1597,-2.1735,-2.1735,-2.2184,-2.2334,-2.2334,-2.2334,-2.2259,-2.2285,-2.1957,-2.186,-2.1764,-2.1304,-2.1122,-2.1074,-2.075,-2.0665,-2.0665,-2.0735,-2.0735,-2.0735,-2.0735,-2.0735,-2.0735,-2.0735,-2.0735,-2.0662,-2.0396,-2.0335,-2.025,-1.9984,-1.9981,-1.9993,-1.9993,-2.0027,-2.0106,-2.0094,-2.0094,-1.9877,-1.9305,-1.9,-1.872,-1.8453,-1.8415,-1.8415,-1.8415,-1.8402,-1.8402,-1.8389,-1.8148,-1.7995,-1.7995,-1.7672,-1.7533,-1.7533,-1.7533,-1.7477,-1.7477,-1.7799,-1.7812,-1.7526,-1.7811,-1.783,-2.1871,-2.1873,-2.1776,-2.1957,-2.1933,-2.1921,-2.209,-2.2273,-2.2382,-2.2564,-2.2661,-2.2782,-2.2951,-2.2988,-2.2988,-2.2988,-2.2915,-2.2854,-2.2854,-2.2709,-2.26,-2.26,-2.2443,-2.2334,-2.2334,-2.2334,-2.2334,-2.2334,-2.2334,-2.2334,-2.2334,-2.2334,-2.2334,-2.2334,-2.2334,-2.2334,-2.2334,-2.2334,-2.2184,-2.1885,-2.166,-2.1522,-2.1522,-2.136,-2.1222,-2.1071,-2.1071,-2.1071,-2.1146,-2.1222,-2.1285,-2.1372,-2.1735,-2.1885,-2.1984,-2.2377,-2.2491,-2.2321,-2.2237,-2.2017,-2.1836,-2.1655,-2.1354,-2.111,-2.1026,-2.088,-2.0665,-2.0665,-2.0665,-2.0665,-2.0665,-2.0665,-2.0665,-2.0665,-2.0665,-2.0641,-2.0557,-2.04,-2.0255,-2.0158,-2.0063,-1.9886,-1.9703,-1.9723,-1.9665,-1.9493,-1.9637,-1.9763,-1.9572,-1.9127,-1.8796,-1.8707,-1.8529,-1.8415,-1.8415,-1.8415,-1.8415,-1.8415,-1.8339,-1.8288,-1.8288,-1.7968,-1.7802,-1.7802,-1.763,-1.7502,-1.7502,-1.76,-1.7579,-1.7521,-1.7618,-1.7608,-2.2061,-2.2138,-2.2054,-2.2297,-2.2138,-2.2128,-2.2297,-2.2334,-2.2406,-2.2673,-2.2653,-2.2644,-2.2907,-2.2877,-2.2799,-2.2955,-2.2871,-2.2889,-2.3043,-2.2891,-2.2733,-2.2733,-2.2491,-2.2334,-2.2334,-2.2334,-2.2334,-2.2334,-2.2334,-2.2334,-2.2334,-2.2334,-2.2334,-2.2334,-2.2334,-2.2259,-2.2109,-2.2109,-2.1885,-2.151,-2.1222,-2.0985,-2.091,-2.091,-2.0834,-2.0684,-2.0684,-2.0684,-2.0684,-2.0834,-2.091,-2.091,-2.136,-2.1644,-2.19,-2.2357,-2.2473,-2.2479,-2.2479,-2.2309,-2.1993,-2.1897,-2.1631,-2.1389,-2.1183,-2.1013,-2.0786,-2.0759,-2.0665,-2.0665,-2.0665,-2.0665,-2.0665,-2.0665,-2.0665,-2.0665,-2.0665,-2.0533,-2.0412,-2.0412,-2.0207,-1.9965,-1.9784,-1.9657,-1.9374,-1.912,-1.932,-1.9424,-1.9325,-1.9,-1.8738,-1.8638,-1.8376,-1.8214,-1.8214,-1.8127,-1.8064,-1.8064,-1.8064,-1.8064,-1.8064,-1.7901,-1.7843,-1.7843,-1.7608,-1.7479,-1.7479,-1.7479,-1.7479,-1.7479,-1.7479,-1.748,-2.2109,-2.2334,-2.2334,-2.2334,-2.2334,-2.2259,-2.2259,-2.2259,-2.2331,-2.2597,-2.2466,-2.2405,-2.2674,-2.2416,-2.2258,-2.2665,-2.2612,-2.2602,-2.308,-2.2927,-2.2745,-2.2745,-2.2503,-2.2334,-2.2334,-2.2334,-2.2334,-2.2334,0.0,-2.2334,-2.2334,-2.2334,-2.2259,-2.2259,-2.2259,-2.2109,-2.166,-2.166,-2.1435,-2.1071,-2.1071,-2.0834,-2.0447,-2.0447,-2.0296,-1.9919,-1.9941,-1.9941,-1.9941,-2.0329,-2.048,-2.0556,-2.0944,-2.147,-2.2071,-2.2159,-2.2377,-2.2669,-2.2745,-2.2564,-2.2297,-2.1969,-2.1885,-2.1776,-2.1328,-2.1147,-2.1074,-2.0762,-2.0678,-2.0665,-2.0665,-2.0665,-2.0665,-2.0665,-2.0665,-2.0665,-2.0665,-2.0665,-2.0665,-2.0665,-2.046,-2.0279,-2.0279,-1.9845,-1.9398,-1.9132,-1.9096,-1.9,-1.8734,-1.8698,-1.8589,-1.8336,-1.8058,-1.7901,-1.7901,-1.7672,-1.7527,-1.7527,-1.7527,-1.7515,-1.7503,-1.7503,-1.7503,-1.7479,-1.7479,-1.7491,-1.7444,-1.7444,-1.7456,-1.7468,-1.7468,-1.7422,-2.2184,-2.2334,-2.2334,-2.2334,-2.2334,-2.2184,-2.1885,-2.181,-2.1731,-2.138,-2.1252,-2.1211,-2.1134,-2.1346,-2.1648,-2.2224,-2.2528,-2.2945,-2.3531,-2.3237,-2.3024,-2.3024,-2.2612,-2.2334,-2.2334,-2.2334,-2.2334,-2.2334,-2.2334,-2.2334,-2.2334,-2.2334,-2.2184,-2.1885,-2.181,-2.166,-2.1297,-2.0985,-2.0748,-2.0673,-2.0383,-2.0145,-2.007,-2.007,-1.9995,-1.993,-2.0037,-2.0124,-2.0134,-2.0461,-2.0537,-2.0615,-2.1002,-2.1267,-2.1501,-2.2319,-2.2572,-2.2549,-2.287,-2.2721,-2.2321,-2.2186,-2.2029,-2.1848,-2.1704,-2.1449,-2.1122,-2.105,-2.0822,-2.0665,-2.0665,-2.0665,-2.0665,-2.0665,-2.0665,-2.0665,-2.0665,-2.0665,-2.0665,-2.0665,-2.046,-2.0279,-2.0279,-2.0002,-1.9688,-1.941,-1.9427,-1.9265,-1.9012,-1.8807,-1.8662,-1.8589,-1.8348,-1.8191,-1.8191,-1.8131,-1.8082,-1.8082,-1.8082,-1.7998,-1.7781,-1.7768,-1.7565,-1.7138,-1.7138,-1.7114,-1.7051,-1.7051,-1.7155,-1.7352,-1.7352,-1.7204,-2.2184,-2.2334,-2.2334,-2.2334,-2.2184,-2.1885,-2.1499,-2.1124,-2.0751,-2.0386,-1.9968,-1.9723,-1.9787,-1.9996,-2.0362,-2.111,-2.1693,-2.238,-2.3072,-2.305,-2.2951,-2.2951,-2.2588,-2.2259,-2.2035,-2.2035,-2.196,-2.181,-2.2109,-2.2334,-2.2334,-2.2109,-2.196,-2.1735,-2.1522,-2.121,-2.0834,-2.0447,-2.0221,-2.0221,-1.9995,-1.9919,-1.993,-1.9962,-2.0005,-2.0027,0.0,-2.0371,-2.0382,-2.0511,-2.0565,-2.0643,-2.0878,-2.1089,-2.1435,-2.2291,-2.256,-2.2678,-2.3069,-2.2874,-2.2491,-2.237,-2.2237,-2.2017,-2.1909,-2.1655,-2.1437,-2.1195,-2.1026,-2.088,-2.0702,-2.0665,-2.0665,-2.0665,-2.0665,-2.0665,-2.0665,-2.0665,-2.0665,-2.0457,-2.02,-1.9932,-1.9814,-1.9672,-1.9484,-1.9224,-1.9177,-1.9095,-1.8836,-1.8832,-1.8855,-1.8855,-1.8625,-1.8469,-1.8469,-1.836,-1.8226,-1.8103,-1.8103,-1.797,-1.7633,-1.7633,-1.7381,-1.6868,-1.6868,-1.6756,-1.6586,-1.6586,-1.6664,-1.6808,-1.6673,-1.648,-2.2184,-2.2334,-2.2334,-2.2334,-2.196,-2.1585,-2.0962,-2.0188,-1.9552,-1.9218,-1.8461,-1.8039,-1.8329,-1.8299,-1.8642,-1.9631,-2.0422,-2.1301,-2.2102,-2.2431,-2.2581,-2.2581,-2.2265,-2.196,-2.166,-2.1585,-2.151,-2.1146,-2.1735,-2.2109,-2.2109,-2.181,-2.1585,-2.151,-2.1135,-2.0759,-2.0447,-2.007,-1.9919,-1.9919,-1.9952,-1.9973,-1.9908,-2.0069,-2.0187,-2.0197,0.0,0.0,-2.0451,-2.0483,-2.0494,-2.0494,-2.0494,-2.0859,-2.143,-2.1907,-2.2225,-2.2553,-2.2993,-2.2829,-2.2477,-2.2416,-2.237,-2.2297,-2.1993,-2.1897,-2.1703,-2.1234,-2.0994,-2.084,-2.0577,-2.0435,-2.0423,-2.04,-2.0457,-2.0457,-2.0457,-2.0457,-2.0388,-2.004,-1.9622,-1.9333,-1.9049,-1.9015,-1.8857,-1.862,-1.8575,-1.8418,-1.8182,-1.8641,-1.8992,-1.8944,-1.874,-1.8608,-1.8608,-1.8404,-1.8149,-1.7766,-1.7766,-1.7568,-1.7162,-1.7162,-1.6892,-1.6414,-1.6414,-1.625,-1.5909,-1.5846,-1.5867,-1.5899,-1.5575,-1.5436,-2.2259,-2.2334,-2.2334,-2.2334,-2.196,-2.1435,-2.0296,-1.9308,-1.8285,-1.6907,-1.6094,-1.5742,-1.5934,-1.6282,-1.6922,-1.8416,-1.9327,-2.0251,-2.1224,-2.1585,-2.1742,-2.1742,-2.1447,-2.1297,-2.1222,-2.1222,-2.1222,-2.1146,-2.1222,-2.1297,-2.1297,-2.1222,-2.106,-2.0748,-2.0296,-2.007,-1.9995,-1.9919,-1.9919,-1.993,-2.0048,-2.0145,-2.0156,-2.0005,-1.9954,-1.9964,-1.9799,0.0,-1.9753,-2.0017,-2.0088,-2.0088,-2.0088,-2.02,-2.0393,-2.113,-2.1281,-2.1087,-2.1601,-2.1558,-2.1334,-2.236,-2.2515,-2.2321,-2.2211,-2.1819,-2.1408,-2.1313,-2.0627,-1.9892,-1.9633,-1.9282,-1.9014,-1.8816,-1.9052,-1.9262,-1.9262,-1.9262,-1.9273,-1.9203,-1.8633,-1.8201,-1.8159,-1.7868,-1.7576,-1.7279,-1.7248,-1.7097,-1.6871,-1.7851,-1.8415,-1.8185,-1.8127,-1.8104,-1.8104,-1.8058,-1.7908,-1.7599,-1.7535,-1.718,-1.6339,-1.6329,-1.593,-1.5037,-1.4788,-1.4562,-1.4353,-1.4098,-1.4061,-1.4298,-1.4234,-1.4047,-2.2162,-2.2217,-2.2334,-2.2334,-2.181,-2.106,-1.9757,-1.8441,-1.7095,-1.5604,-1.4711,-1.4167,-1.433,-1.4718,-1.5438,-1.6599,-1.7712,-1.8825,-2.0013,-2.0626,-2.1004,-2.1243,-2.1215,-2.0985,-2.0834,-2.0759,-2.0684,-2.0458,-2.0458,-2.0684,-2.1071,-2.091,-2.0597,-2.0221,-1.9995,-1.9919,-1.9919,-1.9919,-1.9984,-2.0037,-1.9926,-1.9966,-2.0015,-1.9854,-1.972,-1.973,-1.9795,0.0,-1.9816,-1.9917,-1.9967,-1.9967,-1.9967,-1.9967,-2.0049,-2.0455,-2.0455,-2.0353,-2.0551,-2.0426,-2.03,-2.0854,-2.1078,-2.122,-2.1007,-2.0744,-2.0471,-2.0347,-1.9782,-1.9189,-1.887,-1.8505,-1.8103,-1.7988,-1.8086,-1.8131,-1.8131,-1.7921,-1.7721,-1.757,-1.7087,-1.6664,-1.6442,-1.623,-1.6051,-1.5957,-1.5938,-1.5863,-1.5587,-1.6089,-1.6711,-1.7282,-1.7315,-1.7391,-1.7464,-1.7324,-1.7066,-1.6753,-1.6353,-1.5848,-1.5232,-1.5029,-1.4649,-1.397,-1.3842,-1.3629,-1.3401,-1.3206,-1.3192,-1.335,-1.3153,-1.2964,-2.196,-2.215,-2.2259,-2.2184,-2.1585,-2.0597,-1.9218,-1.7585,-1.5909,-1.4651,-1.3588,-1.3015,-1.3126,-1.3484,-1.4057,-1.4993,-1.6241,-1.7454,-1.8567,-1.9432,-2.0124,-2.0544,-2.0609,-2.0533,-2.0221,-2.0296,-2.0221,-1.9919,-1.9919,-2.0156,-2.0834,-2.0522,-2.0221,-1.9919,-1.9919,-1.9844,-1.9768,-1.9822,-1.9864,-1.9902,-1.9688,-1.9668,-1.9864,-1.9603,-1.9474,-1.9403,-1.9481,0.0,0.0,-1.9479,-1.9479,-1.9479,-1.9479,-1.9479,-1.9479,-1.9388,-1.9388,-1.9307,-1.9206,-1.9018,-1.8702,-1.8663,-1.9232,-1.9838,-1.9658,-1.9498,-1.9348,-1.9095,-1.8584,-1.815,-1.7792,-1.7384,-1.6947,-1.7005,-1.6849,-1.6773,-1.6805,-1.6513,-1.616,-1.5877,-1.5461,-1.5035,-1.4671,-1.46,-1.4529,-1.4529,-1.4529,-1.4478,-1.4325,-1.4299,-1.4726,-1.5808,-1.6055,-1.6221,-1.6378,-1.6161,-1.5899,-1.558,-1.4979,-1.4451,-1.4073,-1.3799,-1.3468,-1.307,-1.3004,-1.2805,-1.2531,-1.2465,-1.2465,-1.2472,-1.2214,-1.2066,-2.1884,-2.215,-2.2184,-2.181,-2.1124,-2.0059,-1.8471,-1.6646,-1.4893,-1.3647,-1.2516,-1.1918,-1.2488,-1.2719,-1.3102,-1.4073,-1.5215,-1.6233,-1.691,-1.7894,-1.8558,-1.8825,-1.9174,-1.939,-1.9315,-1.9693,-1.9919,-1.9919,-1.9919,-1.9919,-1.9995,-1.9995,-1.9919,-1.9919,-1.9919,-1.9693,-1.9239,-1.9524,-1.9409,-1.9044,-1.9381,-1.9583,-1.9614,-1.9432,-1.9134,-1.8727,-1.8328,0.0,0.0,-1.7609,-1.7609,-1.7609,-1.7609,-1.7609,-1.7609,-1.7592,-1.7346,-1.7018,-1.7018,-1.6673,-1.6303,-1.6145,-1.7417,-1.9013,-1.8993,-1.8632,-1.8092,-1.7683,-1.6998,-1.6344,-1.5697,-1.5261,-1.4944,-1.4967,-1.4945,-1.4957,-1.5132,-1.4955,-1.4671,-1.4671,-1.403,-1.3468,-1.3468,-1.3182,-1.2968,-1.2968,-1.2968,-1.3031,-1.3016,-1.2945,-1.309,-1.3324,-1.4044,-1.4547,-1.4529,-1.4529,-1.4393,-1.4053,-1.3917,-1.3576,-1.2901,-1.2833,-1.2627,-1.2285,-1.201,-1.1805,-1.1805,-1.153,-1.1324,-1.1324,-1.1331,-1.1186,-2.1222,-2.1661,-2.192,-2.1924,-2.1163,-1.9941,-1.8249,-1.6419,-1.472,-1.3252,-1.2189,-1.164,-1.1911,-1.2199,-1.2529,-1.3192,-1.4084,-1.5047,-1.6061,-1.6841,-1.7645,-1.8504,-1.8727,-1.8899,-1.8999,-1.9218,-1.9243,-1.9108,-1.9098,-1.9098,-1.9098,-1.9315,-1.9401,-1.9098,-1.9098,-1.9084,-1.8988,-1.9157,-1.9253,-1.9292,-1.9234,-1.9152,-1.9037,-1.8708,-1.8337,-1.7937,-1.7691,0.0,0.0,-1.7108,-1.6944,-1.6944,-1.6689,-1.6525,-1.6525,-1.6279,-1.6032,-1.5875,-1.562,-1.5373,-1.5193,-1.5131,-1.5594,-1.6299,-1.6624,-1.6501,-1.6267,-1.5991,-1.5573,-1.5097,-1.4794,-1.4402,-1.3966,-1.38,-1.3733,-1.3712,-1.3786,-1.361,-1.3396,-1.319,-1.2832,-1.2545,-1.233,-1.2187,-1.2043,-1.2043,-1.2043,-1.2043,-1.2043,-1.2043,-1.2094,-1.2173,-1.3006,-1.3551,-1.3711,-1.3497,-1.3283,-1.3154,-1.2742,-1.2399,-1.2123,-1.1917,-1.171,-1.1572,-1.1441,-1.1372,-1.1372,-1.1303,-1.1234,-1.1234,-1.1234,-1.1131,-1.9927,-2.0605,-2.0944,-2.0962,-2.0342,-1.927,-1.751,-1.59,-1.435,-1.2955,-1.2115,-1.1619,-1.1619,-1.1864,-1.221,-1.2508,-1.3315,-1.4192,-1.515,-1.5897,-1.6748,-1.7724,-1.8198,-1.8455,-1.8611,-1.8775,-1.8799,-1.8587,-1.8567,-1.8597,-1.8515,-1.881,-1.8886,-1.8668,-1.8668,-1.8768,-1.8835,-1.8905,-1.8937,-1.9074,-1.8821,-1.8532,-1.8265,-1.7928,-1.76,-1.7199,0.0,0.0,0.0,-1.6287,-1.6114,-1.6114,-1.5703,-1.5612,-1.553,-1.5133,-1.5051,-1.4968,-1.4473,-1.4307,-1.4307,-1.4307,-1.4235,-1.4253,-1.4533,-1.4696,-1.4821,-1.4539,-1.416,-1.3806,-1.3806,-1.3494,-1.3141,-1.2989,-1.2866,-1.2772,-1.2721,-1.2583,-1.2395,-1.2114,-1.2079,-1.1907,-1.1619,-1.1619,-1.1619,-1.1619,-1.1619,-1.1619,-1.1619,-1.1619,-1.1619,-1.1619,-1.2166,-1.2615,-1.2773,-1.2549,-1.234,-1.234,-1.1922,-1.1643,-1.1643,-1.1434,-1.1301,-1.1301,-1.1301,-1.1301,-1.1301,-1.1301,-1.1301,-1.1301,-1.1301,-1.1274,-1.8106,-1.8795,-1.9143,-1.8699,-1.8329,-1.7569,-1.5965,-1.4767,-1.369,-1.288,-1.2115,-1.1619,-1.1619,-1.1864,-1.2135,-1.2135,-1.2944,-1.3684,-1.3998,-1.4978,-1.5779,-1.6077,-1.725,-1.805,-1.804,-1.8553,-1.8799,-1.8587,-1.8567,0.0,-1.8348,-1.828,-1.8503,-1.8889,-1.8889,-1.8835,-1.8671,-1.8886,-1.8602,-1.7718,-1.791,-1.7764,-1.7445,-1.7445,-1.7108,0.0,0.0,0.0,0.0,-1.4878,-1.4713,-1.4713,-1.4713,-1.4713,-1.4631,-1.4232,-1.4066,-1.4066,-1.3569,-1.3403,-1.3403,-1.3403,-1.3397,-1.337,-1.3295,-1.3604,-1.3919,-1.344,-1.2929,-1.2501,-1.2501,-1.2501,-1.2461,-1.2325,-1.2284,-1.2244,-1.2169,-1.1938,-1.183,-1.183,-1.1714,-1.1619,-1.1619,-1.1619,-1.1619,-1.1619,-1.1619,-1.1619,-1.1619,-1.1619,-1.1619,-1.1619,-1.1619,-1.1619,-1.1613,-1.1613,-1.1613,-1.1613,-1.1613,-1.1613,-1.1613,-1.1613,-1.1613,-1.1613,-1.1613,-1.1613,-1.1613,-1.1613,-1.1613,-1.1613,-1.1613,-1.1531,-1.6346,-1.7088,-1.7578,-1.7568,-1.7195,-1.6451,-1.5269,-1.4242,-1.3245,-1.2433,-1.1896,-1.1647,-1.1748,-1.1925,-1.2128,-1.2332,-1.2855,-1.3377,-1.3828,-1.4504,-1.5272,-1.5959,-1.7056,-1.7723,-1.7585,-1.7983,-1.8173,-1.8029,-1.8077,-1.8192,-1.8103,-1.8103,-1.8181,-1.826,-1.826,-1.8207,-1.8018,-1.8083,-1.7872,-1.752,-1.7574,-1.7355,-1.6944,-1.6944,0.0,0.0,0.0,0.0,0.0,-1.4473,-1.4315,-1.4232,-1.3976,-1.3811,-1.3811,-1.3652,-1.3652,-1.3569,-1.3486,-1.3403,-1.3403,-1.3403,-1.3403,-1.339,-1.3342,-1.3356,-1.3391,-1.3023,-1.2701,-1.2501,-1.2501,-1.2501,-1.2488,-1.2447,-1.2359,-1.2277,-1.223,-1.2094,-1.1986,-1.1986,-1.1952,-1.1925,-1.1925,-1.1925,-1.1925,-1.1925,-1.183,-1.1762,-1.1762,-1.1681,-1.1619,-1.1619,-1.1332,-1.1332,-1.1548,-1.1619,-1.1619,-1.1619,-1.1619,-1.1619,-1.1619,-1.1619,-1.1619,-1.1619,-1.1619,-1.1619,-1.1619,-1.1619,-1.1476,-1.1188,-1.1188,-1.1018,-1.4229,-1.5033,-1.5429,-1.5537,-1.5333,-1.483,-1.3856,-1.3094,-1.2501,-1.1911,-1.165,-1.1583,-1.1743,-1.2006,-1.2223,-1.2461,-1.2759,-1.3171,-1.3722,-1.4319,-1.5034,-1.627,-1.7124,-1.7665,-1.7784,-1.8004,-1.8078,-1.7861,-1.7895,-1.7999,-1.7925,-1.7925,-1.7882,-1.7805,-1.7891,-1.7787,-1.7584,-1.7584,-1.7403,-1.7108,-1.7108,-1.678,-1.6205,-1.6205,0.0,0.0,0.0,0.0,0.0,-1.3983,-1.3818,-1.3818,-1.3486,-1.3403,-1.3403,-1.3403,-1.3403,-1.3403,-1.3403,-1.3403,-1.3403,-1.3403,-1.3403,-1.3403,-1.3403,-1.3295,-1.3125,-1.2881,-1.2745,-1.2678,-1.2436,-1.2436,-1.2357,-1.22,-1.2135,-1.1979,-1.2004,-1.1874,-1.1756,-1.1704,-1.1652,-1.1612,-1.1612,-1.1612,-1.1612,-1.1612,-1.1534,-1.1401,-1.1401,-1.1278,-1.1194,-1.1194,-1.0998,-1.0894,-1.1181,-1.1181,-1.1181,-1.1181,-1.1181,-1.1181,-1.1181,-1.1181,-1.1181,-1.1181,-1.1181,-1.1181,-1.1181,-1.1181,-1.1038,-1.0822,-1.0822,-1.0678,0.0,-1.2656,-1.2965,-1.2965,-1.2965,-1.2817,-1.205,-1.1682,0.0,-1.1401,-1.1286,-1.1337,-1.1717,-1.2033,-1.2359,-1.2508,-1.2779,-1.3185,-1.3743,-1.4253,-1.5147,-1.684,-1.7249,-1.7611,-1.821,-1.8371,-1.8286,-1.8087,-1.8008,-1.7943,-1.7727,-1.7656,-1.7584,-1.7355,-1.7512,-1.7503,-1.7363,-1.7363,-1.7108,-1.6607,-1.6616,-1.6205,-1.5381,-1.5381,0.0,0.0,0.0,0.0,0.0,-1.3569,-1.3403,-1.3403,-1.3403,-1.3403,-1.3403,-1.3403,-1.3403,-1.3403,-1.3403,-1.3403,-1.3403,-1.3403,-1.3403,-1.3403,-1.3403,-1.3295,-1.3146,-1.301,-1.2969,-1.2882,-1.2394,-1.2234,-1.2154,-1.1671,-1.1591,-1.1555,-1.1427,-1.13,-1.1172,-1.1045,-1.0917,-1.0826,-1.082,-1.082,-1.082,-1.082,-1.0808,-1.0802,-1.0802,-1.0681,-1.0596,-1.0596,-1.0559,-1.0486,-1.0486,-1.0468,-1.0527,-1.0527,-1.0527,-1.0527,-1.0527,-1.0527,-1.0527,-1.0527,-1.0527,-1.0527,-1.0527,-1.0527,-1.0455,-1.0455,-1.0455,-1.0455,-1.0486,0.0,-1.1808,-1.1808,-1.1808,-1.1729,0.0,-1.129,-1.11,-1.11,-1.0989,-1.1071,-1.1635,-1.1874,-1.2154,-1.2807,-1.3003,-1.3336,-1.3988,-1.4668,-1.5491,-1.6147,-1.6591,-1.6949,-1.7315,-1.7765,-1.8179,-1.8295,-1.8105,-1.7973,-1.7937,-1.762,-1.7311,-1.6862,-1.6901,-1.6893,-1.6862,-1.6862,-1.6616,-1.6122,-1.5875,-1.5628,-1.5381,-1.5043,0.0,0.0,0.0,0.0,-1.3569,-1.3486,-1.3403,-1.3403,-1.3403,-1.3403,-1.3403,-1.3403,-1.3403,-1.3403,-1.3403,-1.3403,-1.3403,-1.3403,-1.3403,-1.3403,-1.3403,-1.3295,-1.3085,-1.2726,-1.2559,-1.2394,-1.1913,-1.1752,-1.1752,-1.1591,-1.1591,-1.1579,-1.1549,-1.1518,-1.1458,-1.1318,-1.1269,-1.1215,-1.1189,-1.117,-1.117,-1.117,-1.1085,-1.0942,-1.0942,-1.0826,-1.0741,-1.0741,-1.0488,-1.0248,-1.0248,-1.0432,-1.0527,-1.0527,-1.0527,-1.0527,-1.0527,-1.0527,-1.0527,-1.0527,-1.0527,-1.0527,-1.0527,-1.0527,-1.0311,-1.0023,-1.0023,-0.9879,-1.009,-1.0465,-1.0832,-1.0832,-1.0832,-1.0832,-1.0832,-1.0635,-1.0533,-1.0691,-1.0702,-1.0917,-1.167,-1.1889,-1.2233,-1.301,-1.3288,-1.369,-1.4437,-1.517,-1.5769,-1.618,-1.6483,-1.682,-1.7124,-1.7538,-1.7801,-1.7936,-1.7783,-1.76,-1.7437,-1.7191,-1.6862,-1.6369,-1.6369,-1.6369,-1.6369,-1.6205,-1.5958,-1.5719,-1.5298,-1.4968,-1.4811,-1.4555,-1.4225,0.0,0.0,0.0,-1.3403,-1.3403,-1.3403,-1.3403,-1.3403,-1.3403,-1.3403,-1.3403,-1.3444,-1.3498,-1.3424,-1.3403,-1.3403,-1.3403,-1.3403,-1.3403,-1.3148,-1.3012,-1.2946,-1.2699,-1.2402,-1.21,-1.161,-1.1528,-1.1446,-1.1201,-1.1201,-1.1184,-1.1126,-1.1109,-1.1074,-1.0947,-1.0924,-1.0901,-1.0911,-1.0899,-1.0876,-1.0818,-1.0676,-1.0612,-1.0549,-1.0427,-1.0347,-1.0347,-1.015,-0.9966,-0.9966,-1.0065,-1.0102,-1.0044,-0.9986,-0.9951,-0.9951,-0.9951,-0.9951,-0.9951,-0.9951,-0.9951,-0.9951,-0.9951,-0.9807,-0.959,-0.959,-0.9518,-1.0172,-1.0294,-1.0316,-1.0333,-1.0418,-1.0412,-1.0396,-1.0225,-1.0147,-1.0443,-1.0526,-1.088,-1.1694,-1.2069,-1.2403,-1.3132,-1.3683,-1.4267,-1.5008,-1.5623,-1.6073,-1.6324,-1.6523,-1.678,-1.7281,-1.7281,-1.7281,-1.7363,-1.7363,-1.7108,-1.6698,-1.6616,-1.6369,-1.5883,-1.5883,-1.5883,-1.5793,-1.5546,-1.5381,-1.5298,-1.4803,-1.439,-1.4066,-1.4066,-1.3818,0.0,0.0,0.0,-1.3403,-1.3403,-1.3403,-1.3403,-1.3403,-1.3417,-1.3437,-1.3437,-1.3532,-1.3641,-1.3512,-1.3464,-1.3464,-1.3444,-1.3354,-1.3271,-1.2849,-1.2586,-1.249,-1.2509,-1.2253,-1.1902,-1.1403,-1.132,-1.1153,-1.082,-1.0737,-1.071,-1.0606,-1.0585,-1.0552,-1.0433,-1.0411,-1.0405,-1.0389,-1.0384,-1.0351,-1.0248,-1.0231,-1.0188,-1.0063,-0.9954,-0.9889,-0.9867,-0.978,-0.972,-0.972,-0.9704,-0.965,-0.9546,-0.9427,-0.9362,-0.9362,-0.9362,-0.9362,-0.9362,-0.9362,-0.9362,-0.9362,-0.9362,-0.9351,-0.9334,-0.9334,-0.9323,-1.0172,-1.052,-1.0861,-1.1045,-1.1312,-1.1613,-1.1505,-1.145,-1.1305,-1.0803,-1.0861,-1.1107,-1.1604,-1.2124,-1.2794,-1.3573,-1.4512,-1.5177,-1.5342,-1.5695,-1.604,-1.609,-1.6106,-1.6287,-1.678,-1.678,-1.6944,-1.7363,-1.7026,-1.678,-1.6698,-1.6287,-1.5958,-1.5546,-1.5463,-1.5298,-1.4878,-1.5216,-1.5216,-1.4796,-1.439,-1.4149,-1.4066,-1.3652,-1.3486,0.0,0.0,-1.3403,-1.3403,-1.3403,-1.3403,-1.3403,-1.3403,-1.3478,-1.3593,-1.3593,-1.3688,-1.3804,-1.3783,-1.3777,-1.3749,-1.3634,-1.3341,-1.3004,-1.292,-1.2244,-1.1593,-1.1704,-1.1658,-1.1403,-1.0904,-1.082,-1.082,-1.0737,-1.0737,-1.0732,-1.0715,-1.071,-1.0672,-1.0552,-1.053,-1.0498,-1.0405,-1.0384,-1.0378,-1.0362,-1.0356,-1.0313,-1.0188,-1.0161,-1.0106,-1.0003,-0.9976,-0.9965,-0.9965,-0.9873,-0.9802,-0.9786,-0.9677,-0.9612,-0.9612,-0.9612,-0.9612,-0.9612,-0.9612,-0.9612,-0.9612,-0.9612,-0.9557,-0.9459,-0.9459,-0.9405,-1.0172,-1.077,-1.146,-1.183,-1.2112,-1.2338,-1.2437,-1.2446,-1.2288,-1.2064,-1.1863,-1.1931,-1.2411,-1.2557,-1.2955,-1.4095,-1.4915,-1.5463,-1.5711,-1.5883,-1.5966,-1.5966,-1.5966,-1.6048,-1.6287,-1.6287,-1.6369,-1.6624,-1.6451,-1.6287,-1.6287,-1.5875,-1.5628,-1.5381,-1.5133,-1.4803,-1.439,-1.4563,-1.4563,-1.439,-1.3901,-1.3735,-1.3735,-1.3486,-1.3403,-1.3403,0.0,-1.3451,-1.3526,-1.3526,-1.3566,-1.3641,-1.3641,-1.3682,-1.3756,-1.3838,-1.3858,-1.3851,-1.3939,-1.374,-1.3396,-1.3337,-1.301,-1.2542,-1.2362,-1.195,-1.1452,-1.1322,-1.1222,-1.0987,-1.0737,-1.0737,-1.0737,-1.0737,-1.0737,-1.0737,-1.0737,-1.0737,-1.0721,-1.0666,-1.0655,-1.0639,-1.0585,-1.0574,-1.0552,-1.0487,-1.0476,-1.0438,-1.0318,-1.0302,-1.0253,-1.0134,-1.0117,-1.009,-1.0025,-0.997,-0.9883,-0.9753,-0.9699,-0.9671,-0.9671,-0.9671,-0.9671,-0.9671,-0.9671,-0.9671,-0.9671,-0.9671,-0.9639,-0.9584,-0.9584,-0.9557,-1.0172,-1.0907,-1.1826,-1.2475,-1.2873,-1.3214,-1.3587,-1.3672,-1.3682,-1.3486,-1.3212,-1.3125,-1.3452,-1.3384,-1.3671,-1.4938,-1.5456,-1.5793,-1.6122,-1.6122,-1.6122,-1.6048,-1.5966,-1.5966,-1.5966,-1.5966,-1.5966,-1.5966,-1.5875,-1.5875,-1.5875,-1.5463,-1.5216,-1.5133,-1.4721,-1.439,-1.3901,-1.3901,-1.3901,-1.3901,-1.3569,-1.3321,-1.3238,-1.3271,-1.3201,-1.3118,-1.3158,-1.3237,-1.3343,-1.3343,-1.3402,-1.3666,-1.3666,-1.3693,-1.3912,-1.4068,-1.4048,-1.388,-1.3995,-1.3613,-1.3163,-1.3044,-1.2619,-1.213,-1.1888,-1.1658,-1.1413,-1.1193,-1.0987,-1.0824,-1.0824,-1.0824,-1.0813,-1.0786,-1.078,-1.077,-1.0742,-1.0737,-1.0737,-1.0737,-1.0737,-1.0737,-1.0737,-1.0737,-1.0704,-1.0612,-1.0596,-1.0558,-1.0443,-1.0427,-1.0378,-1.0259,-1.0248,-1.0199,-1.0074,-1.0063,-0.9976,-0.9764,-0.9753,-0.9753,-0.9753,-0.9753,-0.9753,-0.9753,-0.9753,-0.9753,-0.9753,-0.9753,-0.9737,-0.9709,-0.9709,-0.9693,-1.0172,-1.0843,-1.1702,-1.2449,-1.3603,-1.4661,-1.4992,-1.5388,-1.5615,-1.5051,-1.4856,-1.4771,-1.4638,-1.4946,-1.553,-1.6443,-1.6607,-1.6616,-1.6616,-1.6607,-1.6451,-1.6048,-1.5966,-1.5966,-1.5966,-1.5966,-1.5966,-1.5966,-1.5628,-1.5463,-1.5463,-1.4968,-1.4555,-1.4232,-1.4149,-1.3901,-1.3486,-1.3486,-1.3486,-1.3486,-1.3403,-1.3148,-1.274,-1.2875,-1.268,-1.2264,-1.2393,-1.2454,-1.2466,-1.2466,-1.2723,-1.3152,-1.3152,-1.3495,-1.4075,-1.4231,-1.4278,-1.4177,-1.3748,-1.3565,-1.3444,-1.2873,-1.2388,-1.2033,-1.1952,-1.1524,-1.1198,-1.1226,-1.1172,-1.1074,-1.1074,-1.1074,-1.1047,-1.0933,-1.0905,-1.0873,-1.0759,-1.0737,-1.0737,-1.0737,-1.0737,-1.0737,-1.0737,-1.0737,-1.0732,-1.0726,-1.0726,-1.0677,-1.0558,-1.0623,-1.0498,-1.0384,-1.0373,-1.0324,-1.0199,-1.0188,-1.0134,-1.0003,-0.9998,-0.9998,-0.9998,-0.9998,-0.9998,-0.9998,-0.9998,-0.9998,-0.9998,-0.9998,-0.9938,-0.9824,-0.9824,-0.9769,-1.0308,-1.0931,-1.175,-1.2655,-1.3951,-1.5143,-1.5599,-1.6319,-1.6919,-1.6923,-1.6689,-1.6188,-1.5306,-1.5463,-1.5875,-1.6205,-1.6534,-1.678,-1.7108,-1.6862,-1.6616,-1.6451,-1.6205,-1.5966,-1.5966,-1.5801,-1.5628,-1.5628,-1.5216,-1.4961,-1.4961,-1.4555,-1.4232,-1.4066,-1.3818,-1.3444,-1.312,-1.312,-1.2998,-1.275,-1.2998,-1.2914,-1.2495,-1.2551,-1.2484,-1.2319,-1.2368,-1.2435,-1.26,-1.26,-1.2736,-1.2985,-1.3335,-1.3725,-1.4224,-1.4278,-1.4122,-1.3856,-1.3679,-1.323,-1.2692,-1.2461,-1.2038,-1.1549,-1.1627,-1.1478,-1.1232,-1.1351,-1.1357,-1.1286,-1.1139,-1.1101,-1.109,-1.1047,-1.1036,-1.102,-1.0976,-1.0965,-1.0965,-1.0965,-1.0965,-1.0938,-1.0862,-1.0851,-1.0824,-1.0748,-1.0737,-1.0721,-1.0672,-1.0666,-1.0623,-1.0503,-1.0427,-1.0367,-1.0324,-1.0318,-1.0297,-1.0253,-1.0106,-1.0019,-1.0019,-1.0019,-1.0019,-1.0019,-1.0019,-1.0019,-1.0019,-1.0019,-0.9842,-0.9568,-0.9568,-0.9392,-1.0175,-1.0968,-1.1732,-1.2908,-1.4267,-1.5577,-1.641,-1.7281,-1.7937,-1.8337,-1.8164,-1.7609,-1.6526,-1.6493,-1.6616,-1.6616,-1.6862,-1.7191,-1.7363,-1.7108,-1.678,-1.6534,-1.6205,-1.5966,-1.5801,-1.5546,-1.5298,-1.5216,-1.4803,-1.4473,-1.4473,-1.4149,-1.3839,-1.3721,-1.3388,-1.3043,-1.2762,-1.2762,-1.2576,-1.228,-1.2441,-1.2429,-1.222,-1.2262,-1.2194,-1.2021,-1.2062,-1.2219,-1.2296,-1.2296,-1.2437,-1.2698,-1.3236,-1.3591,-1.3856,-1.3856,-1.3679,-1.3318,-1.3236,-1.2698,-1.2165,-1.1988,-1.1666,-1.1346,-1.1427,-1.1395,-1.1346,-1.1433,-1.1543,-1.1417,-1.1259,-1.1215,-1.1204,-1.1166,-1.1156,-1.1145,-1.1112,-1.1101,-1.1101,-1.1101,-1.1101,-1.1074,-1.0992,-1.0976,-1.0933,-1.0813,-1.0797,-1.078,-1.0742,-1.0737,-1.0704,-1.0623,-1.0541,-1.0481,-1.0443,-1.0438,-1.0346,-1.0228,-0.9988,-0.996,-1.0079,-1.0079,-1.0057,-1.0019,-0.9864,-0.9786,-0.9786,-0.9708,-0.9397,-0.9007,-0.9007,-0.8774,-0.963,-1.0728,-1.1884,-1.3228,-1.475,-1.6226,-1.771,-1.8337,-1.8837,-1.9235,-1.9316,-1.9139,-1.844,-1.8147,-1.801,-1.801,-1.801,-1.7846,-1.7445,-1.7363,-1.7035,-1.613,-1.5966,-1.5883,-1.5463,-1.5381,-1.5216,-1.4713,-1.4315,-1.4066,-1.4066,-1.3652,-1.3221,-1.2946,-1.2868,-1.2769,-1.2392,-1.2392,-1.22,-1.1882,-1.1882,-1.1824,-1.1802,-1.183,-1.1713,-1.1281,-1.14,-1.1543,-1.1543,-1.1543,-1.181,-1.2254,-1.2698,-1.2875,-1.2875,-1.2875,-1.2875,-1.2787,-1.2343,-1.2165,-1.2077,-1.1632,-1.1543,-1.1543,-1.1543,-1.1543,-1.1543,-1.1543,-1.1543,-1.1543,-1.1543,-1.1543,-1.1511,-1.1302,-1.1275,-1.1243,-1.1128,-1.1107,-1.1107,-1.1107,-1.1107,-1.1107,-1.1107,-1.1107,-1.1063,-1.0938,-1.0922,-1.0878,-1.0753,-1.0737,-1.0654,-1.0654,-1.0654,-1.0688,-1.0568,-1.0558,-1.0345,-0.9749,-0.9663,-0.9853,-1.021,-1.0204,-1.015,-1.0025,-0.9558,-0.9402,-0.9402,-0.9012,-0.8544,-0.8067,-0.8145,-0.7916,-0.9646,-1.1033,-1.2384,-1.4245,-1.5731,-1.7109,-1.8598,-1.9307,-1.9805,-2.0546,-2.0709,-2.0323,-1.9241,-1.8711,-1.851,-1.851,-1.8255,-1.7928,-1.7846,-1.7609,-1.7199,-1.6534,-1.5958,-1.5546,-1.5381,-1.4893,-1.4397,-1.4315,-1.3901,-1.3534,-1.3301,-1.314,-1.2868,-1.2588,-1.2588,-1.2392,-1.2091,-1.2091,-1.1893,-1.1577,-1.1577,-1.1649,-1.1616,-1.1649,-1.1577,-1.14,-1.1438,-1.1543,-1.1543,-1.1543,-1.181,-1.2165,-1.2343,-1.2609,-1.2875,-1.2875,-1.2698,-1.2432,-1.2254,-1.1988,-1.1721,-1.1543,-1.1543,-1.1543,-1.1543,-1.1543,-1.1543,-1.1543,-1.1543,-1.1543,-1.1543,-1.1543,-1.1533,-1.1411,-1.14,-1.1389,-1.1357,-1.1351,-1.1351,-1.1351,-1.1351,-1.1324,-1.1237,-1.1221,-1.1183,-1.1069,-1.1047,-1.1003,-1.0884,-1.054,-1.032,-1.032,-0.9986,-0.981,-0.9775,-0.9775,-0.9506,-0.9059,-0.8976,-0.9144,-0.9371,-0.9361,-0.9347,-0.9312,-0.8917,-0.8678,-0.8678,-0.7886,-0.7303,-0.6903,-0.653,-0.6115,-0.913,-1.0934,-1.2854,-1.5127,-1.6713,-1.8188,-1.9765,-2.0444,-2.086,-2.1438,-2.1518,-2.1195,-2.0049,-1.9489,-1.9163,-1.9,-1.8419,-1.7928,-1.7764,-1.7355,-1.6862,-1.6287,-1.5711,-1.5298,-1.4886,-1.4397,-1.3929,-1.3659,-1.3325,-1.3056,-1.269,-1.2696,-1.2588,-1.2205,-1.2205,-1.201,-1.178,-1.1698,-1.1555,-1.1188,-1.1188,-1.1099,-1.0921,-1.1099,-1.1099,-1.0921,-1.0921,-1.0921,-1.0921,-1.0921,-1.1099,-1.1366,-1.1366,-1.1543,-1.1721,-1.1721,-1.1543,-1.1366,-1.1543,-1.1455,-1.1188,-1.1455,-1.1543,-1.1543,-1.1543,-1.1543,-1.1543,-1.1543,-1.1543,-1.1543,-1.1543,-1.1543,-1.1543,-1.1543,-1.1543,-1.1543,-1.1543,-1.1543,-1.1543,-1.1543,-1.1543,-1.1433,-1.1357,-1.1346,-1.1302,-1.1188,-1.0961,-1.073,-1.0486,-0.9954,-0.9632,-0.9632,-0.9007,-0.8562,-0.8562,-0.8395,-0.8144,-0.7638,-0.7471,-0.7342,-0.7323,-0.7942,-0.8152,-0.7952,-0.7548,-0.7224,-0.7063,-0.6368,-0.5626,-0.5064,-0.4788,-0.4375,-0.8344,-1.0673,-1.321,-1.5893,-1.7792,-1.9408,-2.0952,-2.168,-2.1922,-2.1922,-2.1922,-2.1599,-2.079,-2.0292,-1.9886,-1.9398,-1.8582,-1.7846,-1.7445,-1.6944,-1.6369,-1.5463,-1.5298,-1.4976,-1.4171,-1.4005,-1.3652,-1.2874,-1.2887,-1.269,-1.2404,-1.2324,-1.2205,-1.1893,-1.1899,-1.1692,-1.1455,-1.1455,-1.1188,-1.0654,-1.0654,-1.0387,-0.9941,-1.0387,-1.0387,-1.003,-1.003,-1.003,-1.003,-0.9941,-0.9941,-0.9941,-0.9852,-0.9852,-0.9763,-0.9763,-0.9763,-0.9852,-1.0298,-1.0471,-1.0654,-1.1099,-1.1366,-1.1366,-1.1366,-1.1366,-1.1366,-1.1366,-1.1366,-1.1366,-1.1366,-1.1366,-1.1366,-1.1366,-1.1455,-1.1543,-1.1543,-1.1455,-1.1455,-1.1455,-1.1366,-1.1366,-1.1366,-1.1366,-1.1328,-1.1127,-1.0667,-1.0081,-0.9553,-0.9036,-0.8718,-0.8633,-0.7708,-0.7157,-0.7073,-0.6731,-0.6224,-0.5801,-0.5379,-0.4957,-0.4451,-0.6072,-0.6666,-0.6188,-0.57,-0.5294,-0.4969,-0.4395,-0.3744,-0.3014,-0.2929,-0.2765,-0.8092,-1.0982,-1.404,-1.6537,-1.9186,-2.1276,-2.168,-2.2084,-2.2326,-2.2003,-2.1922,-2.1599,-2.079,-2.0292,-1.9886,-1.9398,-1.8582,-1.7846,-1.7445,-1.6706,-1.5958,-1.5463,-1.4811,-1.4192,-1.3727,-1.3405,-1.2965,-1.2509,-1.2521,-1.2318,-1.201,-1.2016,-1.1905,-1.1588,-1.1594,-1.1339,-1.0921,-1.0832,-1.0654,0.0,-1.0119,-0.9941,-0.95,-0.9941,-1.0119,-1.003,-1.003,-1.003,-0.9941,-0.958,-0.9487,-0.9402,-0.8684,-0.8323,-0.8323,-0.797,-0.806,-0.8323,-0.8502,-0.8952,-0.9576,-0.9754,-1.0026,-1.0298,-1.0298,-1.0298,-1.0298,-1.0298,-1.0298,-1.0298,-1.0298,-1.0298,-1.0298,-1.0298,-1.0921,-1.1543,-1.1543,-1.1188,-1.0832,-1.0832,-1.0565,-1.0298,-1.0298,-1.0298,-1.0199,-0.9815,-0.955,-0.9053,-0.8261,-0.7664,-0.7004,-0.6225,-0.5696,-0.5171,-0.4741,-0.4615,-0.4425,-0.4002,-0.3885,-0.3446,-0.2607,-0.3942,-0.46,-0.4505,-0.4088,-0.3838,-0.3755,-0.2896,-0.2389,-0.2225,-0.1879,-0.1628,-0.7287,-1.0226,-1.3446,-1.6938,-1.9321,-2.0894,-2.1243,-2.1438,-2.168,-2.1599,-2.1761,-2.1599,-2.079,-2.0292,-1.9805,-1.9153,-1.8255,-1.7519,-1.6789,-1.6122,-1.5495,-1.4908,-1.4256,-1.3727,-1.3363,-1.2964,-1.2515,-1.2211,-1.2137,-1.2016,-1.1704,-1.1445,-1.1301,-1.1094,-1.0921,-1.0654,-1.0387,-1.0387,-1.0119,-0.9674,-0.9674,-0.9406,-0.8964,-0.9232,-0.9322,-0.9322,-0.9049,-0.896,-0.896,-0.851,-0.8149,-0.7881,-0.7163,-0.6716,-0.6448,-0.6001,-0.6001,-0.627,-0.6716,-0.7163,-0.7699,-0.8149,-0.8417,-0.8688,-0.8688,-0.8688,-0.8688,-0.8688,-0.8688,-0.8688,-0.8688,-0.8688,-0.8688,-0.8688,-0.9758,-1.0743,-1.0743,-1.0382,-1.0026,-1.0026,-0.9491,-0.8952,-0.8952,-0.8773,-0.851,-0.806,-0.7666,-0.7197,-0.6488,-0.5726,-0.5075,-0.4549,-0.3833,-0.3389,-0.304,-0.2851,-0.2584,-0.2413,-0.2228,-0.1879,-0.1368,-0.1871,-0.2283,-0.2691,-0.2523,-0.2271,-0.2103,-0.1589,-0.1251,-0.1001,-0.083,-0.0662,-0.6237,-0.9326,-1.2913,-1.7128,-1.8943,-1.9745,-2.0262,-2.0465,-2.0627,-2.1033,-2.1438,-2.1438,-2.0627,-2.013,-1.9479,-1.8673,-1.7773,-1.6871,-1.613,-1.5487,-1.4893,-1.4273,-1.3725,-1.3284,-1.2914,-1.2509,-1.2217,-1.1817,-1.1741,-1.161,-1.136,-1.0832,-1.0565,-1.0565,-1.0209,-0.9941,-0.9852,-0.9852,-0.9674,-0.9143,-0.9143,-0.8964,-0.8518,-0.8518,-0.8518,-0.8429,-0.7978,-0.7799,-0.7706,-0.7173,-0.6637,-0.6186,-0.5467,-0.493,-0.4483,-0.3945,-0.3855,-0.4035,-0.4838,-0.5196,-0.5465,-0.627,-0.6627,-0.6716,-0.6716,-0.6716,-0.6716,-0.6716,-0.6716,-0.6716,-0.6716,-0.6716,-0.6716,-0.6716,-0.7881,-0.9134,-0.9402,-0.9134,-0.8773,-0.8684,-0.7877,-0.7252,-0.7252,-0.6984,-0.6541,-0.6094,-0.5646,-0.5107,-0.4572,-0.3828,-0.3188,-0.3011,-0.2285,-0.1749,-0.1661,-0.131,-0.1046,-0.1046,-0.0783,-0.0608,-0.0608,-0.0172,-0.0342,-0.11,-0.1096,-0.0926,-0.0589,-0.0589,-0.0421,0.0,0.0,0.0,-0.5125,-0.9432,-1.415,-1.6635,-1.8323,-1.9368,-1.9479,-1.9805,-2.013,-2.013,-2.0465,-2.0627,-2.013,-1.9398,-1.8673,-1.8174,-1.7026,-1.613,-1.6048,-1.4757,-1.3762,-1.3691,-1.3055,-1.2416,-1.2103,-1.2033,-1.1823,-1.1599,-1.1161,-1.0816,-1.0832,-1.0387,-1.0119,-1.0119,-1.003,-0.9763,-0.9411,-0.9411,-0.9143,-0.8697,-0.8697,-0.8429,-0.7978,-0.7978,-0.7978,-0.7978,-0.7531,-0.7263,-0.7263,-0.6279,-0.5649,-0.5112,-0.3766,-0.2959,-0.2511,-0.1974,-0.2064,-0.2511,-0.2601,-0.3227,-0.3943,-0.4033,-0.4391,-0.4659,-0.4659,-0.4659,-0.4659,-0.4659,-0.4659,-0.4659,-0.4659,-0.4659,-0.4659,-0.4659,-0.4838,-0.5554,-0.7167,-0.7167,-0.672,-0.627,-0.5465,-0.4749,-0.4749,-0.4749,-0.457,-0.4033,-0.3943,-0.3585,-0.269,-0.2418,-0.2059,-0.1164,-0.0984,-0.0715,-0.0268,-0.0177,-0.0176,-0.0176,-0.0087,-0.0087,-0.0087,0.0,-0.0087,-0.0173,-0.017,-0.0168,-0.0084,-0.0084,-0.0084,0.0,0.0,0.0,-0.5222,-0.8682,-1.2148,-1.4244,-1.5988,-1.7324,-1.8028,-1.8573,-1.8981,-1.9225,-1.9225,-1.9153,-1.9245,-1.9,-1.8265,-1.7108,-1.6369,-1.5668,-1.4757,-1.4077,-1.3506,-1.3159,-1.2545,-1.2114,-1.2067,-1.155,-1.1218,-1.1094,-1.0565,-1.0298,-1.0298,-0.9852,-0.9585,-0.9585,-0.9317,-0.9143,-0.8875,-0.8875,-0.8786,-0.8607,-0.8335,-0.8067,-0.7885,-0.7349,-0.7259,-0.7442,-0.6994,-0.6637,-0.6279,-0.5559,-0.4753,-0.3769,-0.2889,-0.2081,-0.1268,-0.0815,-0.0724,-0.0995,-0.1259,-0.1615,-0.1973,-0.2242,-0.2512,-0.2694,-0.2711,-0.2715,-0.2718,-0.2643,-0.2648,-0.2644,-0.272,-0.2715,-0.2711,-0.2695,-0.2703,-0.2896,-0.38,-0.441,-0.4659,-0.3854,-0.3407,-0.3049,-0.2692,-0.2692,-0.2602,-0.2421,-0.2152,-0.1794,-0.1436,-0.1167,-0.0808,-0.0359,-0.0269,-0.018,0.0,0.0,0.0,0.0,0.0,0.0,0.0,0.0,0.0,0.0,0.0,0.0,0.0,0.0,0.0,0.0,0.0,0.0,-0.4702,-0.7217,-0.9542,-1.15,-1.3481,-1.5225,-1.622,-1.6975,-1.7592,-1.791,-1.7755,-1.7592,-1.7846,-1.7937,-1.7527,-1.604,-1.5546,-1.4946,-1.3762,-1.331,-1.3002,-1.2556,-1.1998,-1.1616,-1.1799,-1.101,-1.0476,-1.0476,-1.0119,-0.9852,-0.9852,-0.9411,-0.9143,-0.9143,-0.8786,-0.8607,-0.8607,-0.8518,-0.8429,-0.8429,-0.7978,-0.7628,-0.756,-0.6838,-0.6671,-0.6867,-0.638,-0.5918,-0.5473,-0.4857,-0.3872,-0.2704,-0.2187,-0.1373,-0.0458,-0.0092,0.0,-0.0091,-0.0363,-0.0543,-0.0543,-0.0905,-0.1086,-0.1088,-0.1005,-0.1007,-0.1009,-0.1017,-0.1019,-0.1017,-0.1009,-0.1007,-0.1005,-0.1088,-0.1002,-0.1099,-0.1373,-0.2178,-0.2701,-0.1982,-0.1707,-0.1525,-0.1077,-0.1077,-0.1077,-0.1077,-0.0718,-0.0539,-0.0539,-0.018,0.0,0.0,0.0,0.0,0.0,0.0,0.0,0.0,0.0,0.0,0.0,0.0,0.0,0.0,0.0,0.0,0.0,0.0,0.0,0.0,0.0,0.0,-0.2779,-0.4916,-0.7053,-0.8804,-1.1314,-1.3545,-1.398,-1.5167,-1.6106,-1.6106,-1.6106,-1.6032,-1.5628,-1.5875,-1.5966,-1.5546,-1.439,-1.3534,-1.3593,-1.2636,-1.1917,-1.1952,-1.1196,-1.0738,-1.0743,-1.0298,-1.003,-1.003,-0.9585,-0.9317,-0.9317,-0.8875,-0.8607,-0.8607,-0.8607,-0.8607,-0.8607,-0.8157,-0.7974,-0.7885,-0.7442,-0.7031,-0.6549,-0.6549,-0.6312,-0.5907,-0.5336,-0.5022,-0.4935,-0.4081,-0.3095,-0.2187,-0.1751,-0.0925,0.0,0.0,0.0,0.0,0.0,0.0,0.0,-0.0092,-0.0092,-0.0092,-0.0093,-0.0093,-0.0093,-0.0093,-0.0093,-0.0093,-0.0093,-0.0093,-0.0093,-0.0092,-0.0093,-0.0278,-0.1203,-0.1101,-0.082,-0.082,-0.0452,-0.009,-0.009,-0.009,-0.009,-0.009,-0.009,0.0,0.0,0.0,0.0,0.0,0.0,0.0,0.0,0.0,0.0,0.0,0.0,0.0,0.0,0.0,0.0,0.0,0.0,0.0,0.0,0.0,0.0,0.0,0.0,0.0,-0.0965,-0.2343,-0.3995,-0.5796,-0.8083,-1.0184,-1.1498,-1.2857,-1.3955,-1.4293,-1.4293,-1.421,-1.3728,-1.4473,-1.4968,-1.4225,-1.3561,-1.2914,-1.2466,-1.2084,-1.169,-1.1196,-1.0895,-1.0565,-1.0298,-0.9852,-0.9406,-0.9134,-0.8692,-0.8246,-0.7978,-0.7799,-0.771,-0.771,-0.771,-0.7735,-0.779,-0.766,-0.7593,-0.7593,-0.7043,-0.669,-0.6531,-0.6256,-0.5899,-0.5457,-0.4866,-0.4576,-0.4578,-0.3953,-0.2946,-0.1751,-0.1583,-0.0841,0.0,0.0,0.0,0.0,0.0,0.0,0.0,0.0,0.0,0.0,0.0,0.0,0.0,0.0,0.0,0.0,0.0,0.0,0.0,0.0,0.0,-0.0094,-0.0471,-0.0373,-0.0276,-0.0274,-0.0091,0.0,0.0,0.0,0.0,0.0,0.0,0.0,0.0,0.0,0.0,0.0,0.0,0.0,0.0,0.0,0.0,0.0,0.0,0.0,0.0,0.0,0.0,0.0,0.0,0.0,0.0,0.0,0.0,0.0,0.0,0.0,0.059,-0.0375,-0.1594,-0.3022,-0.5068,-0.7183,-0.8739,-1.0404,-1.1665,-1.221,-1.2388,-1.2395,-1.2069,-1.2644,-1.3161,-1.3048,-1.2713,-1.2246,-1.1652,-1.1488,-1.1225,-1.055,-1.0298,-1.003,-0.9585,-0.9139,-0.8603,-0.8153,-0.7795,0.0,-0.7173,-0.7197,-0.7224,-0.7248,-0.7252,-0.7275,-0.7327,-0.719,-0.7121,-0.7121,-0.6568,-0.6395,-0.6415,-0.5858,-0.5497,-0.5234,-0.4487,-0.4192,-0.4074,-0.3438,-0.2512,-0.149,-0.1317,-0.0756,0.0,0.0,0.0,0.0,0.0,0.0,0.0,0.0,0.0,0.0,0.0,0.0,0.0,0.0,0.0,0.0,0.0,0.0,0.0,0.0,0.0,0.0095,0.0191,0.0094,0.0,0.0,0.0,0.0,0.0,0.0,0.0,0.0,0.0,0.0,0.0,0.0,0.0,0.0,0.0,0.0,0.0,0.0,0.0,0.0,0.0,0.0,0.0,0.0,0.0,0.0,0.0,0.0,0.0,0.0,0.0,0.0,0.0,0.0,0.0,0.0,0.0,-0.0537,-0.2584,-0.4711,-0.5653,-0.7599,-0.9346,-0.9863,-1.031,-1.0654,-1.0654,-1.032,-1.0529,-1.192,-1.1769,-1.143,-1.1237,-1.0837,-1.0445,-1.0016,-0.9585,-0.9049,-0.8599,-0.8153,-0.771,-0.7173,-0.7177,-0.7177,-0.7177,-0.7248,-0.7327,-0.7398,-0.7405,-0.7405,-0.7405,-0.6848,-0.6571,-0.6571,-0.6111,-0.5866,-0.5923,-0.5451,-0.5195,-0.5244,-0.4196,-0.3774,-0.3615,-0.2621,-0.188,-0.1411,-0.095,-0.0477,0.0,0.0,0.0,0.0,0.0,0.0,0.0,0.0,0.0,0.0,0.0,0.0,0.0,0.0,0.0,0.0,0.0,0.0,0.0,0.0,0.0,0.0191,0.0668,0.0379,0.0,0.0,0.0,0.0,0.0,0.0,0.0,0.0,0.0,0.0,0.0,0.0,0.0,0.0,0.0,0.0,0.0,0.0,0.0,0.0,0.0,0.0,0.0,0.0,0.0,0.0,0.0,0.0,0.0,0.0,0.0,0.0,0.0,0.0,0.2189,0.0,0.0,0.0,0.0,0.0,-0.3603,-0.5286,-0.6769,-0.7867,-0.851,-0.8813,-0.8813,-0.898,-0.9291,-0.9811,-1.0098,-1.0234,-1.0292,-1.02,-0.9908,-0.9041,-0.8867,-0.851,-0.771,-0.7442,-0.6994,0.0,-0.6143,-0.6078,-0.5713,-0.6047,-0.6273,-0.6291,-0.6337,-0.6363,-0.6363,-0.6309,-0.6049,-0.5672,-0.5485,-0.5304,-0.4936,-0.4841,-0.4565,-0.4196,-0.3529,-0.3043,-0.2649,-0.2372,-0.1804,-0.095,-0.0857,-0.0191,0.0572,0.0572,0.0763,0.1049,0.1049,0.0858,0.0572,0.0572,0.0286,0.0,0.0,0.0,0.0,0.0,0.0,0.0,0.0,0.0,0.0095,0.0477,0.0572,0.0668,0.124,0.1237,0.1042,0.1125,0.112,0.1115,0.1104,0.1104,0.1014,0.0645,0.0555,0.0463,0.0093,0.0,0.0,0.0,0.0,0.0,0.0,0.0,0.0,0.0,0.0,0.0,0.0,0.0,0.0,0.0,0.0,0.0,0.0,0.0,0.0,0.0,0.0,0.0,0.2367,0.2406,0.2365,0.1831,0.0,0.0,-0.1605,-0.3004,-0.4356,-0.5642,-0.6353,-0.6717,-0.6972,-0.7136,-0.7443,-0.7784,-0.807,-0.8548,-0.9299,-0.9366,-0.9045,-0.8153,-0.7885,-0.7438,-0.6637,-0.6368,-0.5929,-0.5236,-0.5177,-0.5122,-0.4889,-0.5104,-0.5318,-0.534,-0.5371,-0.5388,-0.5388,-0.5418,-0.5337,-0.5054,-0.5054,-0.4766,-0.429,-0.4099,-0.3718,-0.3148,-0.267,-0.2098,-0.1716,-0.1716,-0.1335,-0.0763,-0.0286,0.0286,0.0858,0.1049,0.124,0.1526,0.1526,0.1335,0.1049,0.1049,0.0858,0.0668,0.0668,0.0668,0.0668,0.0668,0.0668,0.0668,0.0668,0.0668,0.0668,0.1049,0.1049,0.124,0.1716,0.1812,0.1806,0.1506,0.1503,0.1498,0.1484,0.1487,0.1398,0.1118,0.1122,0.0937,0.0656,0.0656,0.0562,0.0375,0.0375,0.0281,0.0,0.0,0.0,0.0,0.0,0.0,0.0,0.0,0.0,0.0,0.0,0.0,0.0,0.0,0.0,0.0,0.0,0.0,0.2428,0.2448,0.247,0.2473,0.195,0.0,0.0243,-0.0895,-0.2048,-0.3343,-0.4029,-0.4537,-0.4957,-0.5125,-0.5333,-0.5975,-0.6082,-0.6651,-0.8219,-0.8421,-0.8063,-0.7173,-0.6633,-0.6186,-0.5562,-0.5117,-0.469,-0.4282,-0.4203,-0.415,-0.4228,-0.4326,-0.4346,-0.4391,-0.4391,-0.4395,-0.4399,-0.4399,-0.4399,-0.4303,-0.4303,-0.4016,-0.3537,-0.3158,-0.2679,-0.22,-0.1625,-0.1146,-0.0668,-0.0668,-0.0667,-0.0572,0.0381,0.0858,0.1049,0.143,0.1621,0.1716,0.1716,0.1621,0.1621,0.1621,0.1526,0.1526,0.1526,0.1526,0.1526,0.1526,0.1526,0.1526,0.1526,0.1526,0.1526,0.1621,0.1621,0.1716,0.2288,0.2384,0.2282,0.1791,0.1693,0.169,0.1675,0.1684,0.1693,0.1599,0.1612,0.1526,0.1526,0.1526,0.1335,0.0954,0.0858,0.0668,0.0191,0.0191,0.0191,0.0191,0.0189,0.0188,0.0188,0.0093,0.0093,0.0093,0.0,0.0,0.0,0.0,0.0,0.0,0.0,0.0,0.2461,0.2465,0.0,0.0,0.0,0.0,0.1216,0.0573,-0.0165,-0.1077,-0.1922,-0.2523,-0.2607,-0.3279,-0.398,-0.4502,-0.4952,-0.5687,-0.7242,-0.7442,-0.7084,-0.6099,-0.592,-0.5562,-0.4666,-0.416,-0.3729,-0.3189,-0.2869,-0.2629,-0.2755,-0.3136,-0.334,-0.3374,-0.3374,-0.3291,-0.3414,-0.3414,-0.3221,-0.2734,-0.2734,-0.244,-0.1952,-0.1855,-0.1757,-0.1659,-0.1162,-0.0675,-0.0096,0.0287,0.0477,0.0477,0.0763,0.1335,0.2002,0.2098,0.2384,0.2766,0.2766,0.2479,0.2098,0.2098,0.1812,0.1526,0.1526,0.1526,0.1526,0.1526,0.1526,0.1526,0.1526,0.1526,0.1621,0.2002,0.2098,0.2288,0.2862,0.2957,0.2954,0.2854,0.2758,0.2756,0.2751,0.2754,0.2663,0.2187,0.219,0.2002,0.1526,0.1526,0.143,0.1335,0.1335,0.1335,0.124,0.124,0.124,0.124,0.1237,0.1236,0.1236,0.0854,0.0661,0.0656,0.0184,0.0,0.0,0.0,0.0,0.0,0.0,0.0,0.2557,0.0,0.0,0.2555,0.0,0.0,0.0,0.1482,0.1077,0.025,-0.0335,-0.0757,-0.0925,-0.1345,-0.186,-0.2407,-0.2844,-0.3552,-0.4577,-0.5523,-0.5739,-0.4753,-0.4485,-0.4044,-0.3343,-0.2817,-0.238,-0.2219,-0.198,-0.1911,-0.1921,-0.2122,-0.2326,-0.2338,-0.2046,-0.1855,-0.1864,-0.1668,-0.1374,-0.108,-0.108,-0.0785,-0.0295,-0.0295,-0.0196,0.0098,0.0293,0.0585,0.0779,0.1066,0.1355,0.1547,0.1531,0.1812,0.2288,0.2574,0.2862,0.3148,0.3148,0.2957,0.2671,0.2671,0.2479,0.2288,0.2288,0.2288,0.2288,0.2288,0.2288,0.2288,0.2288,0.2288,0.2384,0.267,0.2671,0.2766,0.3052,0.3148,0.3148,0.3148,0.3148,0.3148,0.3148,0.3148,0.3052,0.2766,0.2671,0.2574,0.2288,0.2288,0.2193,0.1907,0.1907,0.1812,0.1526,0.1526,0.1526,0.1526,0.1526,0.1526,0.1526,0.124,0.1139,0.1128,0.0931,0.0739,0.0735,0.0732,0.0454,0.0,0.0,0.0,0.0,0.0,0.0,0.0,0.0,0.2544,0.0,0.0,0.0,0.1259,0.1009,0.0841,0.0421,0.0336,0.0084,-0.0427,-0.077,-0.1202,-0.1735,-0.3085,-0.3835,-0.3398,-0.2861,-0.2426,-0.2002,-0.1372,-0.0924,-0.0941,-0.0958,-0.0871,-0.0871,-0.0879,-0.0884,-0.0886,-0.0492,-0.0296,-0.0296,0.0197,0.0395,0.0395,0.0395,0.0592,0.0987,0.0987,0.1283,0.158,0.1577,0.1674,0.1772,0.1769,0.2062,0.2549,0.2413,0.2398,0.2493,0.2973,0.307,0.307,0.307,0.3066,0.3061,0.3061,0.3056,0.3148,0.3148,0.3148,0.3148,0.3148,0.3148,0.3148,0.3148,0.3148,0.3148,0.3148,0.3148,0.3148,0.3148,0.3148,0.3148,0.3148,0.3148,0.3148,0.3148,0.3148,0.3148,0.3148,0.3148,0.3148,0.3148,0.3148,0.2957,0.2479,0.2479,0.2288,0.1812,0.1812,0.1812,0.1812,0.1812,0.1812,0.1812,0.1716,0.1615,0.1507,0.1505,0.1497,0.1486,0.1483,0.1101,0.027,0.027,0.027,0.0,0.0,0.0,0.0,0.2682,0.0,0.0,0.0,0.2604,0.2523,0.0,0.185,0.1766,0.0,0.0,0.0512,0.0428,0.0172,-0.026,-0.0523,-0.1051,-0.221,-0.1857,-0.1426,-0.091,0.0,0.0752,0.1141,0.125,0.1258,0.1258,0.127,0.1281,0.1292,0.1293,0.1298,0.1309,0.141,0.141,0.141,0.141,0.151,0.151,0.151,0.151,0.161,0.1597,0.1889,0.2286,0.2267,0.2553,0.2946,0.2547,0.2642,0.3035,0.3035,0.3133,0.3133,0.3133,0.3115,0.3092,0.3092,0.3074,0.3148,0.3148,0.3148,0.3148,0.3148,0.3148,0.3148,0.3148,0.3148,0.3148,0.3148,0.3148,0.3148,0.3148,0.3148,0.3148,0.3148,0.3148,0.3148,0.3148,0.3148,0.3148,0.3148,0.3148,0.3148,0.3148,0.3148,0.3052,0.3052,0.3052,0.2957,0.2957,0.2957,0.2957,0.2957,0.2957,0.2957,0.2957,0.2479,0.2002,0.1523,0.1509,0.1502,0.15,0.1488,0.1473,0.1366,0.1366,0.1087,0.0,0.0,0.0,0.0,0.0,0.0,0.2697,0.0,0.2692,0.0,0.0,0.0,0.0,0.0,0.0,0.0,0.1609,0.1357,0.1108,0.0853,0.0429,-0.0437,-0.0352,0.0,0.0455,0.0928,0.1317,0.1512,0.1543,0.1561,0.1561,0.1584,0.16,0.1607,0.1908,0.2113,0.202,0.2322,0.2524,0.2524,0.2524,0.2524,0.2524,0.2524,0.2524,0.2523,0.2514,0.261,0.2911,0.2898,0.2993,0.3093,0.2894,0.2974,0.3142,0.3142,0.3142,0.3142,0.3142,0.3134,0.312,0.3103,0.3077,0.3148,0.3148,0.3148,0.3148,0.3148,0.3148,0.3148,0.3148,0.3148,0.3148,0.3148,0.3148,0.3148,0.3148,0.3148,0.3148,0.3148,0.3148,0.3148,0.3148,0.3148,0.3148,0.3148,0.3148,0.3148,0.3148,0.3148,0.3148,0.3148,0.3148,0.3148,0.3148,0.3148,0.3148,0.3148,0.3148,0.3148,0.3148,0.2862,0.267,0.2479,0.2469,0.2464,0.2464,0.2455,0.2437,0.232,0.1753,0.1377,0.2931,0.0,0.0,0.0,0.0,0.0,0.0,0.0,0.0,0.0,0.0,0.0,0.0,0.0,0.2705,0.2705,0.0,0.2188,0.2188,0.1934,0.144,0.0864,0.0964,0.0,0.0,0.1845,0.1868,0.1878,0.0,0.2051,0.1963,0.1995,0.2014,0.202,0.2424,0.2626,0.2626,0.3029,0.323,0.323,0.323,0.3235,0.3243,0.3243,0.3247,0.3254,0.3246,0.3243,0.3242,0.3234,0.323,0.323,0.323,0.3204,0.3167,0.3167,0.3167,0.3167,0.3167,0.3161,0.315,0.3119,0.3089,0.3065,0.3065,0.3059,0.3148,0.3148,0.3148,0.3148,0.3148,0.3148,0.3148,0.3148,0.3148,0.3148,0.3148,0.3148,0.3148,0.3148,0.3148,0.3148,0.3148,0.3148,0.3148,0.3148,0.3148,0.3148,0.3148,0.3148,0.3148,0.3148,0.3148,0.3148,0.3148,0.3148,0.3148,0.3148,0.3148,0.3148,0.3148,0.3148,0.3148,0.3148,0.3148,0.3148,0.3148,0.3148,0.304,0.3018,0.2241,0.1857,0.0,0.0,0.0,0.2878,0.0,0.0,0.0,0.0,0.2736,0.0,0.0,0.0,0.0,0.0,0.2736,0.2736,0.2712,0.0,0.0,0.2692,0.2281,0.1368,0.1744,0.2307,0.0,0.281,0.2851,0.0,0.3037,0.0,0.3042,0.3073,0.3102,0.3129,0.3129,0.3129,0.3129,0.323,0.323,0.323,0.323,0.3246,0.3275,0.3275,0.3291,0.3317,0.3287,0.3275,0.3272,0.3242,0.323,0.323,0.323,0.323,0.3227,0.3227,0.3227,0.3227,0.3227,0.3209,0.3182,0.3152,0.312,0.3096,0.3096,0.3076,0.3148,0.3148,0.3148,0.3148,0.3148,0.3148,0.3148,0.3148,0.3148,0.3148,0.3148,0.3148,0.3148,0.3148,0.3148,0.3148,0.3148,0.3148,0.3148,0.3148,0.3148,0.3148,0.3148,0.3148,0.3148,0.3148,0.3148,0.3148,0.3148,0.3148,0.3148,0.3148,0.3148,0.3148,0.3148,0.3148,0.3148,0.3148,0.3148,0.3148,0.3148,0.3148,0.3052,0.305,0.302,0.2709,0.0,0.0,0.2999,0.2969,0.0,0.0,0.0,0.0,0.0,0.0,0.0,0.0,0.0,0.0,0.2737,0.2737,0.2713,0.2692,0.0,0.2675,0.25,0.2174,0.2389,0.2606,0.2811,0.0,0.0,0.2917,0.3002,0.0,0.3082,0.315,0.3193,0.3202,0.322,0.323,0.323,0.323,0.323,0.323,0.323,0.3246,0.3276,0.3276,0.3292,0.3321,0.331,0.3294,0.3275,0.3265,0.3249,0.323,0.323,0.323,0.323,0.323,0.323,0.323,0.323,0.3212,0.3186,0.3176,0.3152,0.3127,0.3127,0.312,0.3112,0.3112,0.3112,0.3112,0.3112,0.3112,0.3112,0.3112,0.3097,0.3082,0.3082,0.3066,0.3148,0.3148,0.3148,0.3148,0.3148,0.3148,0.3148,0.3148,0.3148,0.3148,0.3148,0.3148,0.3148,0.3148,0.3148,0.3148,0.3148,0.3148,0.3148,0.3148,0.3148,0.3148,0.3148,0.3148,0.3148,0.3148,0.3148,0.3148,0.3148,0.3148,0.3148,0.3052,0.3041,0.2936,0.3142,0.3107,0.0,0.3044,0.2972,0.0,0.2881,0.0,0.0,0.0,0.0,0.0,0.0,0.0,0.2766,0.2755,0.2728,0.2705,0.0,0.2676,0.2662,0.2662,0.2688,0.2721,0.2763,0.2803,0.284,0.2871,0.2954,0.3018,0.0,0.0,0.3165,0.3187,0.3206,0.322,0.323,0.323,0.323,0.323,0.323,0.3251,0.3292,0.3292,0.3314,0.3352,0.3341,0.3326,0.3306,0.3284,0.3264,0.3245,0.3234,0.323,0.323,0.323,0.323,0.323,0.323,0.3219,0.3204,0.3204,0.3183,0.3159,0.3159,0.3152,0.3142,0.3142,0.3142,0.3142,0.3142,0.3142,0.3142,0.3142,0.3127,0.3111,0.31,0.3082,0.3065,0.3054,0.3148,0.3055,0.3066,0.3069,0.3065,0.3054,0.3148,0.3148,0.3148,0.3148,0.3148,0.3148,0.3148,0.3148,0.3148,0.3148,0.3148,0.3148,0.3148,0.3148,0.3148,0.3148,0.3148,0.3148,0.3148,0.3148,0.3148,0.3148,0.3148,0.3148,0.3148,0.3148]},{"header":{"parameterUnit":"m.s-1","parameterCategory":1,"la1":30.6,"la2":29.2853,"lo1":-89.7004,"lo2":-87.6739,"dy":0.0162,"dx":0.0183,"nx":112,"ny":82,"refTime":"2024-06-15T00:00:00:Z","depth":0,"parameterNumber":3,"parameterNumberName":"V-component_of_WINDS"},"data":[0.0,0.0,0.0,0.0,0.0,0.0,0.0,0.0,0.0,0.0,0.0,0.0,0.0,0.0,0.0,0.0,0.0,0.0,0.0,0.0,0.0,0.0,0.0,0.0,0.0,0.0,0.0,0.0,0.0,0.0,0.0,0.0,0.0,0.0,0.0,0.0,0.0,0.0,0.0,0.0,0.0,0.0,0.0,0.0,0.0,0.0,0.0,0.0,0.0,0.0,0.0,0.0,0.0,0.0,0.0,0.0,0.0,0.0,0.0,0.0,0.0,0.0,0.0,0.0,0.0,0.0,0.0,0.0,0.0,0.0,0.0,0.0,0.0,0.0,0.0,0.0,0.0,0.0,0.0,0.0,0.0,0.0,0.0,0.0,0.0,0.0,0.0,0.0,0.0,0.0,3.0531,3.3618,3.6286,3.8151,3.8892,3.8772,3.7873,3.6143,0.0,0.0,0.0,0.0,0.0,0.0,0.0,0.0,0.0,0.0,0.0,0.0,0.0,0.0,0.0,0.0,0.0,0.0,0.0,0.0,0.0,0.0,0.0,0.0,0.0,0.0,0.0,0.0,0.0,0.0,0.0,0.0,0.0,0.0,0.0,0.0,0.0,0.0,0.0,0.0,0.0,0.0,0.0,0.0,0.0,0.0,0.0,0.0,0.0,0.0,0.0,0.0,0.0,0.0,0.0,0.0,0.0,0.0,0.0,0.0,0.0,0.0,0.0,0.0,0.0,0.0,0.0,0.0,0.0,0.0,0.0,0.0,0.0,0.0,0.0,0.0,0.0,0.0,0.0,0.0,0.0,0.0,0.0,0.0,0.0,0.0,0.0,0.0,0.0,0.0,0.0,0.0,0.0,0.0,0.0,0.0,0.0,0.0,0.0,0.0,0.0,0.0,0.0,0.0,3.0642,3.5018,3.7098,3.8465,3.926,3.8705,3.7927,3.7046,0.0,0.0,0.0,0.0,0.0,0.0,0.0,0.0,0.0,0.0,0.0,0.0,0.0,0.0,0.0,0.0,0.0,0.0,0.0,0.0,0.0,0.0,0.0,0.0,0.0,0.0,0.0,0.0,0.0,0.0,0.0,0.0,0.0,0.0,0.0,0.0,0.0,0.0,0.0,0.0,0.0,0.0,0.0,0.0,0.0,0.0,0.0,0.0,0.0,0.0,0.0,0.0,0.0,0.0,0.0,0.0,0.0,0.0,0.0,0.0,0.0,0.0,0.0,0.0,0.0,0.0,0.0,0.0,0.0,0.0,0.0,0.0,0.0,0.0,0.0,0.0,0.0,0.0,0.0,0.0,0.0,0.0,0.0,0.0,0.0,0.0,0.0,0.0,0.0,0.0,0.0,0.0,0.0,0.0,0.0,0.0,0.0,0.0,0.0,0.0,0.0,0.0,0.0,2.9992,3.2528,3.5184,3.7115,3.8318,3.865,3.8084,3.7183,3.6084,3.4535,0.0,0.0,0.0,0.0,0.0,0.0,0.0,0.0,0.0,0.0,0.0,0.0,0.0,0.0,0.0,0.0,0.0,0.0,0.0,0.0,0.0,0.0,0.0,0.0,0.0,0.0,0.0,0.0,0.0,0.0,0.0,0.0,0.0,0.0,0.0,0.0,0.0,0.0,0.0,0.0,0.0,0.0,0.0,0.0,0.0,0.0,0.0,0.0,0.0,0.0,0.0,0.0,0.0,0.0,0.0,0.0,0.0,0.0,0.0,0.0,0.0,0.0,0.0,0.0,0.0,0.0,0.0,0.0,0.0,0.0,0.0,0.0,0.0,0.0,0.0,0.0,0.0,0.0,0.0,0.0,0.0,0.0,0.0,0.0,0.0,0.0,0.0,0.0,0.0,0.0,0.0,0.0,0.0,0.0,0.0,0.0,0.0,0.0,0.0,0.0,0.0,0.0,3.1592,3.4019,3.5289,3.7077,3.8201,3.8163,3.7567,3.6537,3.5089,3.366,0.0,0.0,0.0,0.0,0.0,0.0,0.0,0.0,0.0,0.0,0.0,0.0,0.0,0.0,0.0,0.0,0.0,0.0,0.0,0.0,0.0,0.0,0.0,0.0,0.0,0.0,0.0,0.0,0.0,0.0,0.0,0.0,0.0,0.0,0.0,0.0,0.0,0.0,0.0,0.0,0.0,0.0,0.0,0.0,0.0,0.0,0.0,0.0,0.0,0.0,0.0,0.0,0.0,0.0,0.0,0.0,0.0,0.0,0.0,0.0,0.0,0.0,0.0,0.0,0.0,0.0,0.0,0.0,0.0,0.0,0.0,0.0,0.0,0.0,0.0,0.0,0.0,0.0,0.0,0.0,0.0,0.0,0.0,0.0,0.0,0.0,0.0,0.0,0.0,0.0,0.0,0.0,0.0,0.0,0.0,0.0,0.0,0.0,0.0,0.0,0.0,0.0,3.1579,3.3839,3.5813,3.7337,3.8238,3.8376,3.76,3.6506,3.5091,3.3556,0.0,0.0,0.0,0.0,0.0,0.0,0.0,0.0,0.0,0.0,0.0,0.0,0.0,0.0,0.0,0.0,0.0,0.0,0.0,0.0,0.0,0.0,0.0,0.0,0.0,0.0,0.0,0.0,0.0,0.0,0.0,0.0,0.0,0.0,0.0,0.0,0.0,0.0,0.0,0.0,0.0,0.0,0.0,0.0,0.0,0.0,0.0,0.0,0.0,0.0,0.0,0.0,0.0,0.0,0.0,0.0,0.0,0.0,0.0,0.0,0.0,0.0,0.0,0.0,0.0,0.0,0.0,0.0,0.0,0.0,0.0,0.0,0.0,0.0,0.0,0.0,0.0,0.0,0.0,0.0,0.0,0.0,0.0,0.0,0.0,0.0,0.0,0.0,0.0,0.0,0.0,0.0,0.0,0.0,0.0,0.0,0.0,0.0,0.0,0.0,0.0,0.0,3.2792,3.5024,0.0,3.8084,3.8529,3.7952,3.7227,3.5981,3.4085,0.0,0.0,0.0,0.0,0.0,0.0,0.0,0.0,0.0,0.0,0.0,0.0,0.0,0.0,0.0,0.0,0.0,0.0,0.0,0.0,0.0,0.0,0.0,0.0,0.0,0.0,0.0,0.0,0.0,0.0,0.0,0.0,0.0,0.0,0.0,0.0,0.0,0.0,0.0,0.0,0.0,0.0,0.0,0.0,0.0,0.0,0.0,0.0,0.0,0.0,0.0,0.0,0.0,0.0,0.0,0.0,0.0,0.0,0.0,0.0,0.0,0.0,0.0,0.0,0.0,0.0,0.0,0.0,0.0,0.0,0.0,0.0,0.0,0.0,0.0,0.0,0.0,0.0,0.0,0.0,0.0,0.0,0.0,0.0,0.0,0.0,0.0,0.0,0.0,0.0,0.0,0.0,0.0,0.0,0.0,0.0,0.0,0.0,0.0,0.0,0.0,0.0,3.1477,3.3868,3.6107,0.0,3.8782,3.8983,3.8038,3.7247,3.5898,3.3666,0.0,0.0,0.0,0.0,0.0,0.0,0.0,0.0,0.0,0.0,0.0,0.0,0.0,0.0,0.0,0.0,0.0,0.0,0.0,0.0,0.0,0.0,0.0,0.0,0.0,0.0,0.0,0.0,0.0,0.0,0.0,0.0,0.0,0.0,0.0,0.0,0.0,0.0,0.0,0.0,0.0,0.0,0.0,0.0,0.0,0.0,0.0,0.0,0.0,0.0,0.0,0.0,0.0,0.0,0.0,0.0,0.0,0.0,0.0,0.0,0.0,0.0,0.0,0.0,0.0,0.0,0.0,0.0,0.0,0.0,0.0,0.0,0.0,0.0,0.0,0.0,0.0,0.0,0.0,0.0,0.0,0.0,0.0,0.0,0.0,0.0,0.0,0.0,0.0,0.0,0.0,0.0,0.0,0.0,0.0,0.0,0.0,0.0,0.0,0.0,0.0,0.0,3.2347,3.4705,3.6858,3.8555,3.942,3.9577,3.8764,3.784,3.6388,0.0,0.0,0.0,0.0,0.0,0.0,0.0,0.0,0.0,0.0,0.0,0.0,0.0,0.0,0.0,0.0,0.0,0.0,0.0,0.0,0.0,0.0,0.0,0.0,0.0,0.0,0.0,0.0,0.0,0.0,0.0,0.0,0.0,0.0,0.0,0.0,0.0,0.0,0.0,0.0,0.0,0.0,0.0,0.0,0.0,0.0,0.0,0.0,0.0,0.0,0.0,0.0,0.0,0.0,0.0,0.0,0.0,0.0,0.0,0.0,0.0,0.0,0.0,0.0,0.0,0.0,0.0,0.0,0.0,0.0,0.0,0.0,0.0,0.0,0.0,0.0,0.0,0.0,0.0,0.0,0.0,0.0,0.0,0.0,0.0,0.0,0.0,0.0,0.0,0.0,0.0,0.0,0.0,0.0,0.0,0.0,0.0,0.0,0.0,0.0,0.0,0.0,0.0,3.4212,3.6241,3.8088,3.9803,4.0317,4.0158,3.9249,3.8416,3.6915,3.4587,0.0,0.0,0.0,0.0,0.0,0.0,0.0,0.0,0.0,0.0,0.0,0.0,0.0,0.0,0.0,0.0,0.0,0.0,0.0,0.0,0.0,0.0,0.0,0.0,0.0,0.0,0.0,0.0,0.0,0.0,0.0,0.0,0.0,0.0,0.0,0.0,0.0,0.0,0.0,0.0,0.0,0.0,0.0,0.0,0.0,0.0,0.0,0.0,0.0,0.0,0.0,0.0,0.0,0.0,0.0,0.0,0.0,0.0,0.0,0.0,0.0,0.0,0.0,0.0,0.0,0.0,0.0,0.0,0.0,0.0,0.0,0.0,0.0,0.0,0.0,0.0,0.0,0.0,0.0,0.0,0.0,0.0,0.0,0.0,0.0,0.0,0.0,0.0,0.0,0.0,0.0,0.0,0.0,0.0,0.0,0.0,0.0,0.0,0.0,0.0,0.0,0.0,3.5124,3.7117,3.8898,4.0454,4.1018,4.0949,4.0229,3.9427,3.8046,3.5852,0.0,0.0,0.0,0.0,0.0,0.0,0.0,0.0,0.0,0.0,0.0,0.0,0.0,0.0,0.0,0.0,0.0,0.0,0.0,0.0,0.0,0.0,0.0,0.0,0.0,0.0,0.0,0.0,0.0,0.0,0.0,0.0,0.0,0.0,0.0,0.0,0.0,0.0,0.0,0.0,0.0,0.0,0.0,0.0,0.0,0.0,0.0,0.0,0.0,0.0,0.0,0.0,0.0,0.0,0.0,0.0,0.0,0.0,0.0,0.0,0.0,0.0,0.0,0.0,0.0,0.0,0.0,0.0,0.0,0.0,0.0,0.0,0.0,0.0,0.0,0.0,0.0,0.0,0.0,0.0,0.0,0.0,0.0,0.0,0.0,0.0,0.0,0.0,0.0,0.0,0.0,0.0,0.0,0.0,0.0,0.0,0.0,0.0,0.0,0.0,0.0,0.0,3.5367,3.7498,3.9394,4.0761,4.1554,4.1821,4.1429,4.0635,3.9394,3.7644,0.0,0.0,0.0,0.0,0.0,0.0,0.0,0.0,0.0,0.0,0.0,0.0,0.0,0.0,0.0,0.0,0.0,0.0,0.0,0.0,0.0,0.0,0.0,0.0,0.0,0.0,0.0,0.0,0.0,0.0,0.0,0.0,0.0,0.0,0.0,0.0,0.0,0.0,0.0,0.0,0.0,0.0,0.0,0.0,0.0,0.0,0.0,0.0,0.0,0.0,0.0,0.0,0.0,0.0,0.0,0.0,0.0,0.0,0.0,0.0,4.3355,0.0,0.0,0.0,0.0,0.0,0.0,0.0,0.0,0.0,0.0,0.0,0.0,0.0,0.0,0.0,0.0,0.0,0.0,0.0,0.0,0.0,0.0,0.0,0.0,0.0,0.0,0.0,0.0,0.0,0.0,0.0,0.0,0.0,0.0,0.0,0.0,0.0,0.0,0.0,0.0,0.0,3.6197,3.8091,3.9848,4.1494,4.2142,4.2357,4.2097,4.1177,3.9974,3.8597,3.5813,0.0,0.0,0.0,0.0,0.0,0.0,0.0,0.0,0.0,0.0,0.0,0.0,0.0,0.0,0.0,0.0,0.0,0.0,0.0,0.0,0.0,0.0,0.0,0.0,0.0,0.0,0.0,0.0,0.0,0.0,0.0,0.0,0.0,0.0,0.0,0.0,0.0,0.0,0.0,0.0,0.0,0.0,0.0,0.0,0.0,0.0,0.0,0.0,0.0,0.0,0.0,0.0,0.0,0.0,0.0,0.0,0.0,0.0,0.0,0.0,4.5054,0.0,0.0,0.0,0.0,0.0,0.0,0.0,0.0,0.0,0.0,0.0,0.0,0.0,0.0,0.0,0.0,0.0,0.0,0.0,0.0,0.0,0.0,0.0,0.0,0.0,0.0,0.0,0.0,0.0,0.0,0.0,0.0,0.0,0.0,0.0,0.0,0.0,0.0,0.0,0.0,3.6624,3.8527,4.0261,4.1917,4.2649,4.2979,4.3035,4.2317,4.1352,4.0028,3.7874,0.0,0.0,0.0,0.0,0.0,0.0,0.0,0.0,0.0,0.0,0.0,0.0,0.0,0.0,0.0,0.0,0.0,0.0,0.0,0.0,0.0,0.0,0.0,0.0,0.0,0.0,0.0,0.0,0.0,0.0,0.0,0.0,0.0,0.0,0.0,0.0,0.0,0.0,0.0,0.0,0.0,0.0,0.0,0.0,0.0,0.0,0.0,0.0,0.0,0.0,0.0,0.0,0.0,5.6038,5.6556,5.7235,5.6429,5.577,5.5074,5.1179,4.9495,4.9365,0.0,0.0,0.0,0.0,0.0,0.0,0.0,0.0,0.0,0.0,0.0,0.0,0.0,0.0,0.0,0.0,0.0,0.0,0.0,0.0,0.0,0.0,0.0,0.0,0.0,4.1417,4.0755,0.0,0.0,0.0,0.0,0.0,0.0,0.0,0.0,0.0,0.0,0.0,0.0,3.7168,3.9077,4.0788,4.2361,4.3111,4.3595,4.386,4.3479,4.276,4.1651,4.0087,3.8024,0.0,0.0,0.0,0.0,0.0,0.0,0.0,0.0,0.0,0.0,0.0,0.0,0.0,0.0,0.0,0.0,0.0,0.0,0.0,0.0,0.0,0.0,0.0,0.0,0.0,0.0,0.0,0.0,0.0,0.0,0.0,0.0,4.8852,4.9984,0.0,0.0,0.0,0.0,0.0,0.0,0.0,0.0,0.0,0.0,0.0,0.0,0.0,5.6199,5.6975,5.7741,5.8251,5.8481,5.9213,5.9688,5.9881,5.9074,5.9038,5.9478,5.7602,0.0,5.2067,5.0431,0.0,0.0,0.0,0.0,0.0,0.0,0.0,0.0,0.0,0.0,0.0,0.0,0.0,0.0,0.0,0.0,0.0,0.0,0.0,0.0,0.0,0.0,4.5079,4.5762,4.5864,4.5635,0.0,4.1426,3.7834,3.6729,0.0,0.0,0.0,0.0,0.0,0.0,0.0,0.0,3.8544,4.0083,4.154,4.3251,4.3772,4.4068,4.4207,4.3704,4.3308,4.3105,4.111,3.9512,3.843,3.569,0.0,0.0,0.0,0.0,0.0,0.0,0.0,0.0,0.0,0.0,0.0,0.0,0.0,0.0,0.0,0.0,0.0,0.0,0.0,0.0,0.0,0.0,0.0,0.0,0.0,0.0,0.0,0.0,0.0,5.0246,5.1585,5.2942,5.3146,5.2989,0.0,0.0,0.0,0.0,0.0,0.0,0.0,0.0,0.0,5.7242,5.8008,5.8628,5.8993,5.9834,6.031,6.0359,6.1826,6.2549,6.2598,6.2781,6.2511,6.1945,6.1292,5.9601,5.7065,5.4531,5.3402,5.3039,0.0,0.0,0.0,0.0,4.8502,4.9068,4.917,4.9148,0.0,0.0,0.0,0.0,0.0,0.0,0.0,0.0,0.0,0.0,0.0,0.0,0.0,4.7384,4.7373,4.7299,4.7162,4.539,4.3106,0.0,3.8472,3.671,3.5515,0.0,0.0,0.0,0.0,3.7345,3.9434,4.1054,4.2493,4.376,4.4097,4.4298,4.444,4.422,4.3876,4.3409,4.2117,4.0832,3.9681,3.755,3.5712,0.0,0.0,0.0,0.0,0.0,0.0,0.0,0.0,0.0,0.0,0.0,0.0,0.0,0.0,0.0,0.0,0.0,0.0,0.0,0.0,0.0,0.0,0.0,0.0,0.0,0.0,0.0,0.0,5.308,5.3948,5.5265,5.5374,5.5156,0.0,0.0,0.0,0.0,0.0,0.0,5.701,5.8422,5.9286,5.9493,6.0297,6.082,6.1065,6.1995,6.2473,6.2473,6.3947,6.466,6.4697,6.5386,6.5004,6.3846,6.387,6.3228,6.186,5.8341,5.6857,5.6571,5.446,5.3393,5.2965,5.2258,5.2186,5.2425,5.2492,5.247,5.228,5.1522,0.0,4.8481,4.7731,0.0,0.0,0.0,0.0,4.7453,4.8098,4.8559,4.8846,4.873,4.863,4.8556,4.837,4.8204,4.7134,0.0,4.169,3.9825,3.8732,0.0,0.0,0.0,0.0,3.9249,4.0652,4.2066,4.3232,4.4145,4.4327,4.444,4.4587,4.4615,4.4316,4.3741,4.2855,4.1865,4.0756,3.9146,3.7623,3.6162,0.0,0.0,0.0,0.0,0.0,0.0,0.0,0.0,0.0,0.0,0.0,0.0,0.0,0.0,0.0,0.0,0.0,0.0,0.0,0.0,0.0,0.0,0.0,0.0,0.0,0.0,0.0,0.0,0.0,5.6483,5.6413,0.0,0.0,0.0,0.0,5.6221,5.7036,5.7886,5.8811,5.9652,6.053,6.1423,6.223,6.3074,6.3906,6.4841,6.5297,6.5297,6.5521,6.5632,6.5632,6.5669,6.5632,6.5583,6.5705,6.5716,6.5308,6.1158,5.939,5.9316,5.8452,5.7515,5.6706,5.6669,5.6103,5.5368,5.5368,5.5368,5.5236,5.4305,5.2777,5.1246,5.1009,5.034,0.0,0.0,4.9559,4.9683,5.0367,5.0363,5.0303,5.0726,5.0635,5.0397,5.0124,4.9513,4.846,0.0,4.4822,4.3337,4.2317,0.0,3.9926,4.0308,4.0528,4.1184,4.2657,4.3037,4.3541,4.4457,4.4587,4.4615,4.4615,4.4615,4.4581,4.4547,4.324,4.2471,4.2404,4.0387,3.8606,3.7046,3.56,0.0,0.0,0.0,0.0,0.0,0.0,0.0,0.0,0.0,0.0,0.0,0.0,0.0,0.0,0.0,0.0,0.0,0.0,0.0,0.0,0.0,0.0,0.0,0.0,0.0,0.0,0.0,0.0,5.7451,5.7464,0.0,5.7441,5.7637,5.7894,5.8187,5.9456,6.0323,6.064,6.1447,6.2278,6.3172,6.3566,6.4143,6.4988,6.5434,6.5632,6.5632,6.6297,6.6593,6.663,6.7222,6.7209,6.6727,6.6776,6.6503,6.5909,6.4378,6.3132,6.2094,6.1174,6.0315,5.9546,5.9388,5.9099,5.881,5.8717,5.8694,5.8474,5.707,5.5454,5.4003,5.3936,5.3627,5.3317,5.3258,5.3189,5.3168,5.3315,5.3169,5.2967,5.283,5.2661,5.231,5.1437,5.1004,5.046,4.9222,4.7555,4.6062,4.5111,4.4065,4.3208,4.2792,4.2758,4.2988,4.3505,4.4034,4.4497,4.4824,4.4858,4.4858,4.4858,4.4858,4.4654,4.4177,4.3182,4.2398,4.1921,4.0734,3.944,3.7946,3.694,3.5414,0.0,0.0,0.0,0.0,0.0,0.0,0.0,0.0,0.0,0.0,0.0,0.0,0.0,0.0,0.0,0.0,0.0,0.0,0.0,0.0,0.0,0.0,0.0,0.0,0.0,5.7276,5.7813,5.8327,5.8657,5.8804,5.8804,5.9281,5.9588,5.9588,6.086,6.1728,6.2071,6.288,6.3713,6.4609,6.5004,6.5434,6.5987,6.6371,6.6593,6.6593,6.7235,6.7567,6.7604,6.8234,6.8208,6.7725,6.7725,6.7391,6.6908,6.6908,6.6128,6.473,6.3548,6.2575,6.1766,6.1334,6.0923,6.0572,6.0467,6.0419,6.0236,5.9171,5.8024,5.7038,5.6782,5.642,5.6095,5.5802,5.5464,5.5176,5.5036,5.487,5.4627,5.4215,5.4018,5.3638,5.2729,5.2255,5.1793,5.1164,4.9479,4.7997,4.7396,4.6618,4.5822,4.5206,4.4871,4.47,4.4646,4.4851,4.5022,4.5022,4.5022,4.5022,4.5022,4.4783,4.4441,4.3902,4.2963,4.2176,4.1697,4.1043,4.0143,3.894,3.7996,3.6603,3.4716,0.0,0.0,0.0,0.0,0.0,0.0,0.0,0.0,0.0,0.0,0.0,0.0,0.0,0.0,0.0,0.0,0.0,0.0,0.0,0.0,0.0,0.0,0.0,5.6895,5.8194,5.9184,5.9221,5.9942,6.0419,6.0419,6.0419,6.0456,6.0493,6.1227,6.2108,6.3039,6.3874,6.4771,6.5706,6.6507,6.6913,6.695,6.7827,6.8309,6.8309,6.8432,6.8481,6.8481,6.8481,6.8481,6.8481,6.8481,6.8481,6.8481,6.8481,6.8036,6.7168,6.551,6.4313,6.3345,6.2567,6.1615,6.0646,6.054,6.0456,6.0456,6.0456,6.0419,6.0272,5.9478,5.8694,5.7886,5.7079,5.6308,5.5625,5.5514,5.5364,5.5226,5.4967,5.476,5.4511,5.4122,5.3228,5.2431,5.2262,5.0605,4.9188,4.9153,4.8363,4.7679,4.7573,4.6886,0.0,4.6178,4.5501,4.5056,4.5056,4.5022,4.5022,4.5022,4.4373,4.3928,4.3894,4.262,4.1812,4.1778,4.1356,4.0712,3.9938,3.8705,3.7311,3.5843,0.0,0.0,0.0,0.0,0.0,0.0,0.0,0.0,0.0,0.0,0.0,0.0,0.0,0.0,0.0,0.0,0.0,0.0,0.0,0.0,0.0,5.9164,5.9324,5.8621,5.8927,5.9404,6.0015,6.0272,6.0419,6.0419,6.0933,6.152,6.2108,6.3015,6.3935,6.477,6.5127,6.5718,6.6519,6.6877,6.7333,6.7901,6.8272,6.8432,6.8432,6.8481,6.8481,6.8481,6.8481,6.8481,6.8481,6.8481,6.8481,6.8481,6.8481,6.837,6.8073,6.702,6.5733,6.4387,6.4035,6.3326,6.2459,6.2339,6.1923,6.1384,6.1288,6.0896,6.0382,6.0162,5.9501,5.8817,5.8597,5.796,5.7336,5.729,5.7198,5.7045,5.6879,5.6709,5.6367,5.5465,5.5076,5.4481,5.3115,5.2278,5.1441,5.0375,4.9458,4.8806,4.8668,4.7983,0.0,4.7279,4.6625,4.6178,4.6178,4.5635,4.5291,4.5291,4.5085,4.4534,4.3485,4.3069,4.2393,4.1322,4.1314,4.1019,4.0411,3.9573,3.9049,0.0,0.0,0.0,0.0,0.0,0.0,0.0,0.0,0.0,0.0,0.0,0.0,0.0,0.0,0.0,0.0,0.0,0.0,0.0,0.0,0.0,0.0,6.0301,6.0646,6.0843,6.0538,6.0454,6.0932,6.1545,6.1961,6.1961,6.2708,6.3431,6.3909,6.4537,6.5263,6.6124,6.6236,6.6679,6.7543,6.7654,6.7901,6.8383,6.8457,6.8481,6.8481,6.8481,6.8481,6.8481,6.8481,6.8481,0.0,6.8481,6.8481,6.8481,6.8481,6.8481,0.0,0.0,0.0,0.0,0.0,6.4039,6.3242,6.3123,6.2756,6.2278,6.223,6.1826,6.1337,6.1006,6.0566,6.0162,5.9795,5.9391,5.8914,5.8584,5.8464,5.826,5.7883,5.7691,5.7401,5.677,5.6284,5.5654,5.4603,0.0,0.0,5.1934,5.0743,4.9874,4.9736,4.8993,4.8487,4.8377,4.7719,4.7234,4.7234,4.6541,4.6091,4.6091,4.5503,0.0,0.0,0.0,4.3171,4.2462,4.2597,0.0,0.0,0.0,0.0,0.0,0.0,0.0,0.0,4.0022,4.0782,0.0,0.0,0.0,0.0,0.0,0.0,0.0,0.0,0.0,0.0,0.0,0.0,0.0,0.0,0.0,0.0,6.1171,6.1758,6.3316,6.2815,6.2277,6.2253,6.3444,6.4288,6.4288,6.5014,6.5568,6.5642,6.5767,6.626,6.7197,0.0,0.0,0.0,0.0,6.8481,6.8481,6.8481,6.8481,6.8481,6.8481,6.8481,6.8481,6.8481,6.8481,6.8481,6.8481,6.8481,6.8481,6.8481,6.8481,6.8431,6.7614,6.7317,6.707,6.5416,6.4257,0.0,0.0,0.0,0.0,6.3026,6.2929,6.2695,6.1985,6.1692,6.1447,6.075,6.0456,6.0236,5.9515,5.9258,5.9001,5.8327,5.8,5.7834,5.7834,5.7083,5.637,5.6273,5.5487,5.4532,5.3652,5.2125,5.0962,5.0694,4.9998,4.9505,4.9478,4.8781,4.8293,4.8293,0.0,0.0,4.7065,4.58,4.4963,4.4813,4.4154,4.3967,4.4343,4.4498,4.4671,4.4884,4.5034,4.5192,4.5321,4.5556,4.5727,4.5782,4.4086,4.3815,0.0,0.0,0.0,0.0,0.0,0.0,0.0,0.0,0.0,0.0,0.0,0.0,0.0,0.0,0.0,6.4549,6.4818,6.5025,6.5477,6.5295,6.5064,6.4943,6.5214,6.5373,6.5373,6.5546,6.594,6.6567,6.6766,6.7173,6.8012,6.8185,6.8333,6.8481,6.8481,6.8481,6.8481,6.8481,6.8481,6.8481,0.0,0.0,6.8481,6.8481,6.8481,6.8481,6.8481,6.8481,6.8481,6.8481,6.8481,6.8431,6.7614,6.7317,6.7182,6.6179,6.5264,6.4499,6.4382,6.3891,6.3289,6.3194,6.3075,6.2941,6.2794,6.2206,0.0,6.141,6.0896,6.0382,6.0236,5.9685,5.9148,5.9001,5.845,5.7973,5.7973,5.7817,5.7441,5.6689,5.6364,5.5869,5.4833,5.3529,5.2284,5.122,5.0929,5.0753,5.0538,4.9845,4.9389,4.9389,4.8714,4.8064,4.7533,4.7206,4.655,4.5341,4.4756,4.4571,4.4842,4.4931,4.5095,4.5352,4.5391,4.5816,4.6628,4.6666,4.7053,4.7716,4.6046,4.5698,0.0,0.0,0.0,0.0,0.0,0.0,0.0,0.0,0.0,0.0,0.0,6.2206,6.386,0.0,6.5177,6.573,6.5877,6.6097,6.6624,6.6638,6.6394,6.5865,6.6088,6.6297,6.6297,6.6741,6.7173,6.758,6.7704,6.7963,6.8383,6.8457,6.8481,6.8481,6.8481,6.8481,6.8481,6.8481,6.8481,6.8481,6.8481,6.8481,6.8481,6.8481,6.8481,6.8481,6.8481,6.8481,6.8481,6.8481,6.8481,6.8444,6.806,6.7651,6.7243,6.6871,6.5882,6.4805,6.4721,6.4132,6.3382,6.3312,6.3194,6.3099,6.3099,6.2756,6.2413,6.2304,6.2022,6.1593,6.1141,6.0713,6.0309,5.9905,5.9208,5.8621,5.8621,5.829,5.7863,5.7377,5.7304,5.6978,5.5952,5.5243,5.4254,5.2487,5.1886,5.1536,5.1254,5.0951,5.0764,5.0687,5.0064,4.9525,4.9184,4.8473,4.7581,4.6516,4.6183,4.614,4.6406,4.6472,4.665,4.6844,4.6866,4.7163,4.7642,4.7642,4.7864,4.8306,4.7442,4.7276,0.0,0.0,0.0,0.0,0.0,0.0,0.0,6.0512,6.1195,6.3124,6.364,6.4156,6.552,6.6026,6.6223,6.6345,6.637,6.6677,6.7441,6.754,6.7232,6.6505,6.6889,6.7185,6.7185,6.7913,6.8334,6.8334,6.8432,6.8481,6.8481,6.8481,6.8481,6.8481,6.8481,6.8481,6.8481,6.8481,6.8481,6.8481,6.8481,6.8481,6.8481,6.8481,6.8481,6.8481,6.8481,6.8481,6.8481,6.8481,6.8481,6.8481,6.8481,6.8073,6.754,6.754,6.6574,6.525,6.5065,6.4424,6.365,6.3502,6.3373,6.3218,6.3218,6.3194,6.3171,6.3075,6.3051,6.2879,6.2095,6.1777,6.1483,6.0858,6.0087,5.9462,5.9315,5.8764,5.8249,5.8102,5.8042,5.7799,5.7047,5.6745,5.5879,5.3713,5.2798,5.2234,5.1907,5.1884,5.1909,5.1846,5.1346,5.0976,5.0856,4.964,4.8634,4.8085,4.7946,4.7959,4.8109,4.8085,4.8092,4.8226,4.8267,4.8306,4.8306,4.8489,4.8563,4.8582,4.8729,4.8729,5.9473,5.951,5.9807,6.0661,6.196,6.3014,0.0,6.4099,6.5223,6.5374,6.5977,6.6519,6.674,6.7444,6.8025,6.8025,6.8148,6.8258,6.8333,6.837,6.8333,6.8221,6.8271,6.8308,6.8308,6.842,6.8481,6.8481,6.8481,6.8481,6.8481,6.8481,6.8481,6.8481,6.8481,6.8481,6.8481,6.8481,6.8481,6.8481,6.8481,6.8481,6.8481,6.8481,6.8481,6.8481,6.8481,6.8481,6.8481,6.8481,6.8481,6.8481,6.8481,6.8444,6.837,6.837,6.7776,6.6908,6.6105,6.5325,6.4545,6.3802,6.3488,6.3359,6.3359,6.3289,6.3208,6.3171,6.3171,6.3147,6.3036,6.2483,6.1952,6.1842,6.1214,6.0439,5.9715,5.9456,5.9198,5.8497,5.8282,5.8156,5.8023,5.7308,5.6077,5.4044,5.3647,5.3274,5.2446,5.2338,5.2338,5.2315,5.2266,5.195,5.1361,5.0635,5.0174,5.0065,4.9528,4.9224,4.9208,4.8612,4.8267,4.8287,4.8287,4.8306,4.8306,4.9077,4.9502,4.9543,5.0279,5.0203,6.2502,6.2391,6.2376,6.3713,6.4196,6.4433,6.487,6.5454,6.6012,6.642,6.6791,6.7161,6.7642,6.8111,6.8408,6.8408,6.8457,6.8481,6.8481,6.8481,6.8481,6.8481,6.8481,6.8481,6.8481,6.8481,6.8481,6.8481,6.8481,6.8481,6.8481,6.8481,6.8481,6.8481,6.8481,6.8481,6.8481,6.8481,6.8481,6.8481,6.8481,6.8481,6.8481,6.8481,6.8481,6.8481,6.8481,6.8481,6.8481,6.8481,6.8481,6.8481,6.8481,6.8481,6.8481,6.8481,6.7986,6.7243,6.6908,6.5882,6.473,6.4396,6.3928,6.3511,6.3511,6.3488,6.3419,6.3349,6.3312,6.3289,6.3194,6.2973,6.2714,6.2714,6.2086,6.1408,6.1075,6.024,5.9501,5.9169,5.8681,5.8327,5.8327,5.7988,5.7273,5.6,5.5257,5.4478,5.3458,5.3408,5.3271,5.2798,5.2761,5.2477,5.1804,5.1501,5.1119,5.068,5.0371,5.0208,5.0208,4.9961,4.9799,4.9799,4.9894,4.9932,4.9932,5.032,5.0487,5.0525,5.0857,5.1077,6.4865,6.4753,6.4605,6.5794,6.5794,6.5645,6.6314,6.654,6.6764,6.7358,6.7654,6.7988,6.8581,6.8766,6.8816,6.8816,6.863,6.8481,6.8481,6.8481,6.8481,6.8481,6.8481,6.8481,6.8481,6.8481,6.8481,6.8481,6.8481,6.8481,6.8481,6.8481,6.8481,6.8481,6.8481,6.8481,6.8481,6.8481,6.8481,6.8481,6.8481,6.8481,6.8481,6.853,6.8578,6.8602,6.8602,6.8602,6.8602,6.8554,6.8554,6.853,6.8506,6.8481,6.8481,6.8481,6.811,6.7614,6.7391,6.6537,6.5399,6.4953,6.4396,6.3876,6.3676,6.3602,6.3579,6.3488,6.3465,6.3442,6.3349,6.3326,6.3326,6.3326,6.2845,6.2387,6.2165,6.1203,6.0315,6.0093,5.9346,5.8769,5.8769,5.8563,5.8208,5.7617,5.686,5.5912,5.4671,5.4422,5.4047,5.324,5.313,5.2931,5.2426,5.241,5.2189,5.1601,5.1343,5.1213,5.1213,5.1055,5.0946,5.0946,5.1061,5.1118,5.1118,5.1321,5.1451,5.1433,5.1692,5.2155,6.6077,6.6054,6.6054,6.6091,6.6685,6.7243,6.728,6.785,6.8407,6.8444,6.9076,6.9633,6.9633,6.967,6.967,6.967,6.9001,6.8481,6.8481,6.8481,6.8481,6.8481,6.8481,6.8481,6.8481,6.8481,6.8481,6.8481,6.8481,6.8481,6.8481,6.8481,6.8481,6.8481,6.8481,6.8481,6.8481,6.8481,6.8481,6.8481,6.8481,6.8481,6.8506,6.8626,6.8744,6.8898,6.8898,6.8898,6.8898,6.8758,6.8674,6.8674,6.853,6.8481,6.8481,6.8481,6.8506,6.8333,6.7577,6.728,6.6982,6.5325,6.4768,6.4619,6.3862,6.3602,6.3602,6.3579,6.3579,6.3579,6.3579,6.3579,6.3579,6.3579,6.3579,6.3356,6.2539,6.2354,6.2094,6.1277,6.0373,5.9752,5.9752,5.8998,5.8393,5.8356,5.8356,5.7728,5.6066,5.518,5.4367,5.3592,5.3481,5.3481,5.3481,5.3444,5.3444,5.3407,5.2705,5.2262,5.2262,5.1506,5.1099,5.1099,5.1099,5.1118,5.1118,5.1875,5.2284,5.238,5.3232,5.3678,6.7564,6.7317,6.702,6.7577,6.7503,6.7465,6.7986,6.8296,6.863,6.9187,6.9484,6.9855,7.0375,7.0487,7.0487,7.0487,7.0264,7.0078,7.0078,6.9633,6.9298,6.9298,6.8816,6.8481,6.8481,6.8481,6.8481,6.8481,6.8481,6.8481,6.8481,6.8481,6.8481,6.8481,6.8481,6.8481,6.8481,6.8481,6.853,6.8626,6.8697,6.8782,6.8782,6.8791,6.8875,6.8921,6.8921,6.8921,6.8898,6.8875,6.8814,6.8828,6.8674,6.8626,6.8677,6.9124,6.8964,6.8444,6.8184,6.7763,6.7205,6.6648,6.5719,6.473,6.447,6.4025,6.3602,6.3602,6.3602,6.3602,6.3602,6.3602,6.3602,6.3602,6.3602,6.3527,6.3267,6.2784,6.2339,6.2041,6.1292,6.0528,5.9971,5.9594,5.9202,5.8683,5.8058,5.7396,5.6842,5.5549,5.4589,5.433,5.3813,5.3481,5.3481,5.3481,5.3481,5.3481,5.3259,5.3111,5.3111,5.2932,5.2823,5.2823,5.2881,5.2882,5.2882,5.3179,5.3309,5.3328,5.3625,5.3793,6.8405,6.8134,6.7874,6.837,6.8134,6.785,6.837,6.8481,6.8704,6.9521,6.9979,7.0475,7.1293,7.1467,7.1492,7.1442,7.1181,7.0971,7.092,7.019,6.9707,6.9707,6.8964,6.8481,6.8481,6.8481,6.8481,6.8481,6.8481,6.8481,6.8481,6.8481,6.8481,6.8481,6.8481,6.8506,6.8554,6.8554,6.8626,6.8744,6.8875,6.8907,6.8929,6.8929,6.8952,6.8998,6.8998,6.8998,6.8998,6.8952,6.8929,6.8929,6.8791,6.8907,6.9195,6.9582,6.9422,6.8927,6.8927,6.8407,6.7688,6.7391,6.6574,6.5585,6.4953,6.4433,6.3973,6.3653,6.3602,6.3602,6.3602,6.3602,6.3602,6.3602,6.3602,6.3602,6.3602,6.3193,6.2822,6.2822,6.219,6.1447,6.089,6.0274,5.9627,5.8846,5.8164,5.7635,5.7339,5.6376,5.5599,5.5303,5.4526,5.4044,5.4044,5.3785,5.36,5.36,5.36,5.36,5.36,5.3696,5.3716,5.3716,5.3793,5.3794,5.3794,5.3794,5.3794,5.3794,5.3794,5.3999,6.8554,6.8481,6.8481,6.8481,6.8481,6.8506,6.8506,6.8506,6.8729,6.9546,7.045,7.133,7.2187,7.2472,7.252,7.2435,7.1715,7.1144,7.1032,7.0301,6.9744,6.9744,6.9001,6.8481,6.8481,6.8481,6.8481,6.8481,0.0,6.8481,6.8481,6.8481,6.8506,6.8506,6.8506,6.8554,6.8697,6.8697,6.8768,6.8921,6.8921,6.8952,6.9027,6.9027,6.9072,6.9181,6.9257,6.9257,6.9257,6.9184,6.914,6.9117,6.9042,6.9411,7.0001,7.0014,6.9904,6.9769,6.9744,6.9187,6.837,6.7614,6.7354,6.702,6.5399,6.4842,6.4619,6.3899,6.3639,6.3602,6.3602,6.3602,6.3602,6.3602,6.3602,6.3602,6.3602,6.3602,6.3602,6.3602,6.297,6.2413,6.2413,6.1076,5.9701,5.8884,5.8772,5.8475,5.7658,5.7546,5.7212,5.6432,5.5577,5.5094,5.5094,5.4388,5.3943,5.3943,5.3943,5.3905,5.3868,5.3868,5.3868,5.3794,5.3794,5.3831,5.3887,5.3887,5.3925,5.3962,5.3962,5.4428,6.853,6.8481,6.8481,6.8481,6.8481,6.853,6.8626,6.865,6.8921,6.993,7.0336,7.0756,7.1635,7.1776,7.193,7.2408,7.2273,7.2224,7.2692,7.1515,7.0598,7.0598,6.9335,6.8481,6.8481,6.8481,6.8481,6.8481,6.8481,6.8481,6.8481,6.8481,6.853,6.8626,6.865,6.8697,6.8852,6.8907,6.8937,6.896,6.9087,6.9116,6.9138,6.9138,6.916,6.9219,6.9879,7.0179,7.0217,7.0773,7.1036,7.1014,7.09,7.0943,7.1158,7.1602,7.1318,7.071,7.0648,6.967,6.8444,6.8283,6.78,6.7243,6.6797,6.577,6.4768,6.4545,6.4085,6.3602,6.3602,6.3602,6.3602,6.3602,6.3602,6.3602,6.3602,6.3602,6.3602,6.3602,6.297,6.2413,6.2413,6.1558,6.0593,5.9738,5.9568,5.9292,5.8512,5.7881,5.7435,5.7212,5.6469,5.5986,5.5986,5.58,5.5652,5.5652,5.5652,5.5391,5.4723,5.4686,5.4464,5.3944,5.3944,5.428,5.4914,5.4914,5.5249,5.5883,5.5883,5.6052,6.853,6.8481,6.8481,6.8481,6.853,6.8626,6.8707,6.8823,6.9222,7.0226,7.0508,7.082,7.1654,7.1799,7.1899,7.2131,7.208,7.2074,7.2348,7.1206,7.0375,7.0375,6.9261,6.8506,6.8578,6.8578,6.8602,6.865,6.8554,6.8481,6.8481,6.8554,6.8602,6.8674,6.8782,6.8838,6.8952,6.9027,6.9094,6.9094,6.916,6.9181,6.9219,6.9616,6.9766,6.9842,0.0,7.1043,7.1081,7.1531,7.1719,7.1696,7.1629,7.177,7.2075,7.2347,7.21,7.1653,7.1528,7.04,6.8964,6.8593,6.8184,6.7763,6.7428,6.6648,6.5733,6.499,6.447,6.4025,6.3713,6.3602,6.3602,6.3602,6.3602,6.3602,6.3602,6.3602,6.3602,6.3669,6.3341,6.2976,6.2603,6.2156,6.156,6.0741,6.0592,6.0331,5.9512,5.8611,5.8029,5.8029,5.7323,5.684,5.684,5.6506,5.6303,5.6343,5.6343,5.6139,5.5714,5.5714,5.5547,5.5174,5.5174,5.5453,5.5993,5.5993,5.6256,5.6743,5.6742,5.7001,6.853,6.8481,6.8481,6.8481,6.8602,6.8721,6.8832,6.8981,6.9327,7.019,7.0433,7.0704,7.1517,7.1726,7.1759,7.1697,7.1516,7.1341,7.1179,7.0338,6.9756,6.9756,6.9037,6.8602,6.8697,6.8721,6.8744,6.8898,6.8674,6.8554,6.8554,6.865,6.8721,6.8744,6.8861,6.8975,6.9027,6.9138,6.9181,6.9181,6.9294,6.9369,6.9428,7.0276,7.069,7.0727,0.0,0.0,7.1914,7.2027,7.2064,7.2064,7.2064,7.2447,7.2932,7.279,7.2694,7.2634,7.2373,7.1318,6.9954,6.8989,6.8593,6.837,6.7688,6.7391,6.7043,6.5594,6.5097,6.4859,6.4041,6.384,6.3803,6.3729,6.3669,6.3669,6.3669,6.3669,6.3691,6.3802,6.3931,6.3734,6.3044,6.2932,6.2653,6.1868,6.1718,6.1439,6.0653,5.9573,5.8888,5.8739,5.8107,5.7698,5.7698,5.7066,5.6697,5.6777,5.6777,5.6798,5.68,5.68,5.6799,5.6776,5.6776,5.6905,5.7123,5.714,5.7215,5.7328,5.7377,5.7859,6.8506,6.8481,6.8481,6.8481,6.8602,6.8768,6.9072,6.8746,6.854,6.9094,6.8686,6.8527,6.9365,6.9485,6.9814,7.0889,7.0889,7.0915,7.1364,7.0602,7.0022,7.0022,6.9337,6.8852,6.8875,6.8875,6.8875,6.8898,6.8875,6.8852,6.8852,6.8875,6.8884,6.8937,6.9072,6.9138,6.916,6.9181,6.9181,6.9219,6.9917,7.0255,7.0292,7.1228,7.1648,7.1686,7.2623,0.0,7.3081,7.3737,7.4001,7.4001,7.4001,7.4092,7.4161,7.3995,7.3911,7.3845,7.2923,7.2487,7.2024,7.0115,6.9038,6.8444,6.8357,6.7909,6.7384,6.7086,6.6687,6.6095,6.5234,6.5095,6.497,6.4295,6.4063,6.4,6.4,6.4,6.4037,6.4058,6.4186,6.4269,6.4119,6.416,6.3917,6.3107,6.2994,6.2711,6.1882,6.0752,5.9766,5.902,5.8833,5.8758,5.8758,5.8609,5.8574,5.8708,5.8727,5.8466,5.7935,5.7898,5.7685,5.7116,5.7181,5.7602,5.8379,5.8441,5.8851,5.9558,5.9573,5.9657,6.9235,6.8889,6.8481,6.8481,6.865,6.8884,6.9187,6.8822,6.8565,6.896,6.8476,6.8112,6.8517,6.8874,6.9277,6.9811,7.0061,7.0256,7.0373,6.9911,6.9513,6.9481,6.9122,6.8907,6.8952,6.8975,6.8998,6.9065,6.9065,6.8998,6.8921,6.8929,6.8983,6.9094,6.916,6.9181,6.9181,6.9181,6.9407,6.9879,7.0358,7.0793,7.1266,7.2203,7.2644,7.2682,7.3555,0.0,7.3954,7.4331,7.4519,7.4519,7.4519,7.4519,7.4498,7.4387,7.4387,7.4334,7.3793,7.3341,7.289,7.1839,7.0592,6.9407,6.8981,6.8653,6.8287,6.7875,6.7594,6.7196,6.6353,6.5888,6.5554,6.514,6.4667,6.4289,6.4289,6.4348,6.4444,6.4445,6.4615,6.4725,6.4741,6.4795,6.4679,6.4299,6.4224,6.392,6.3103,6.2493,6.1561,6.0022,5.9891,5.9665,5.9196,5.9197,5.9272,5.9401,5.9472,5.9407,5.9164,5.9176,5.903,5.8753,5.8783,5.9033,5.9526,5.9569,5.9812,6.0217,6.0261,6.0342,6.9913,6.9197,6.8506,6.853,6.8721,6.8983,6.9298,6.8925,6.8569,6.8929,6.831,6.7745,6.7923,6.8569,6.9092,6.9055,6.9655,7.0005,6.9597,6.9482,6.9325,6.908,6.902,6.9042,6.9094,6.9072,6.9094,6.9181,6.9181,6.9153,6.8952,6.9005,6.9094,6.9181,6.9181,6.9203,6.9225,6.9413,6.9847,7.0567,7.0992,7.1525,7.224,7.3161,7.364,7.3699,7.4325,0.0,0.0,7.4649,7.4649,7.4649,7.4649,7.4649,7.4649,7.4632,7.4632,7.4653,7.4598,7.4203,7.3639,7.3487,7.2088,7.0342,6.9703,6.9423,6.9181,6.8562,6.846,6.8334,6.758,6.6919,6.6427,6.6049,6.5444,6.4858,6.4689,6.4723,6.4813,6.4882,6.5023,6.5123,6.5166,6.5182,6.5198,6.5198,6.5198,6.4969,6.4283,6.4168,6.347,6.1678,6.1251,6.0803,6.0073,6.0051,6.0121,6.0244,6.0357,6.0485,6.0654,6.0677,6.0751,6.0838,6.0852,6.0895,6.0912,6.0925,6.0925,6.0964,6.1056,6.1006,6.9937,6.9197,6.853,6.865,6.8823,6.91,6.9542,6.8675,6.7877,6.8219,6.7124,6.632,6.6971,6.7801,6.8604,6.9169,7.0446,7.102,7.0098,7.0458,7.0488,6.9649,6.9432,6.9332,6.9353,6.9246,6.9181,6.9181,6.9181,6.9181,6.916,6.916,6.9181,6.9181,6.9181,6.9246,6.9374,7.0105,7.0583,7.0763,7.2331,7.3086,7.3199,7.4136,7.4657,7.476,7.4899,0.0,0.0,7.5152,7.5152,7.5152,7.5152,7.5152,7.5152,7.5076,7.5133,7.5208,7.5208,7.5205,7.5086,7.4361,7.2548,7.065,7.0575,7.0146,6.9641,6.9625,6.9796,6.9751,6.9019,6.8836,6.8466,6.6821,6.6385,6.6102,6.522,6.5101,6.5166,6.5166,6.5307,6.5465,6.5465,6.5523,6.5566,6.5566,6.5566,6.5513,6.5437,6.5451,6.5063,6.4058,6.3024,6.2389,6.2313,6.2313,6.2344,6.2422,6.2452,6.2527,6.271,6.2724,6.2766,6.2834,6.2887,6.2926,6.2926,6.2977,6.3014,6.3014,6.3052,6.2642,7.0794,6.9761,6.8738,6.9269,6.922,6.9257,7.0246,6.9051,6.7795,6.8177,6.6986,6.6013,6.6282,6.746,6.8433,6.8666,7.0402,7.156,7.0979,7.152,7.1769,7.1229,7.1131,7.0842,7.029,7.019,6.998,6.9491,6.9453,6.9453,6.9453,6.9353,6.9369,6.9453,6.9453,6.97,7.0252,7.0571,7.1233,7.2314,7.3057,7.3725,7.4279,7.4685,7.4937,7.5074,7.5133,0.0,0.0,7.5227,7.5264,7.5264,7.5281,7.5318,7.5318,7.5371,7.5424,7.5497,7.551,7.5561,7.5518,7.5212,7.4159,7.2767,7.1651,7.1118,7.0812,7.0314,7.0247,7.0271,6.9977,6.962,6.9031,6.7829,6.7125,6.6651,6.6277,6.5794,6.5479,6.5561,6.5632,6.5688,6.5728,6.5755,6.5781,6.5781,6.5781,6.5781,6.5781,6.5781,6.5653,6.5281,6.4283,6.3412,6.2818,6.2824,6.283,6.2897,6.2982,6.305,6.3104,6.3143,6.3182,6.3207,6.3271,6.3283,6.3283,6.3295,6.3308,6.3308,6.3308,6.3128,7.125,7.0121,6.9042,6.9648,6.9506,6.9487,7.0555,6.9213,6.7875,6.8234,6.6999,6.5897,6.5897,6.7282,6.8371,6.8317,7.0551,7.2172,7.1658,7.2456,7.2906,7.2433,7.2316,7.2008,7.1322,7.0997,7.0465,6.9672,6.9597,6.971,7.0015,6.9896,6.9875,6.9974,6.9974,7.0352,7.1223,7.1488,7.2247,7.3422,7.377,7.4326,7.4995,7.5036,7.5114,7.5247,0.0,0.0,0.0,7.5409,7.5407,7.5407,7.5493,7.5472,7.5489,7.5649,7.5666,7.5682,7.5779,7.581,7.581,7.581,7.5426,7.4628,7.3061,7.2231,7.1647,7.1067,7.0785,7.0616,7.0616,7.0239,6.963,6.8824,6.8171,6.7672,6.7404,6.6674,6.6074,6.6166,6.5974,6.5846,6.5897,6.5897,6.5897,6.5897,6.5897,6.5897,6.5897,6.5897,6.5897,6.5897,6.5242,6.452,6.3852,6.3817,6.3857,6.3857,6.3937,6.3988,6.3988,6.4026,6.4089,6.4089,6.4089,6.4089,6.4089,6.4089,6.4089,6.4089,6.4089,6.3935,7.0969,7.0143,6.9319,6.9481,6.962,6.9815,7.0199,6.9104,6.805,6.8248,6.6999,6.5897,6.5897,6.7282,6.8385,6.8385,7.1137,7.2946,7.2011,7.321,7.384,7.2896,7.2548,7.2393,7.2355,7.1418,7.0465,6.9672,6.9597,0.0,7.0947,7.1005,7.0907,7.0805,7.0805,7.1223,7.2195,7.3027,7.3583,7.3801,7.4599,7.5075,7.519,7.519,7.5227,0.0,0.0,0.0,0.0,7.566,7.5692,7.5692,7.5692,7.5692,7.5708,7.5864,7.5895,7.5895,7.5985,7.6015,7.6015,7.6015,7.5976,7.5822,7.4923,7.3398,7.2027,7.2078,7.1497,7.0898,7.0898,7.0898,7.0667,6.9898,6.9667,6.9436,6.8577,6.7705,6.709,6.709,6.6436,6.5897,6.5897,6.5897,6.5897,6.5897,6.5897,6.5897,6.5897,6.5897,6.5897,6.5897,6.5897,6.5897,6.5859,6.5859,6.5859,6.5859,6.5859,6.5859,6.5859,6.5859,6.5859,6.5859,6.5859,6.5859,6.5859,6.5859,6.5859,6.5859,6.5859,6.5397,7.1154,7.0498,6.9853,7.046,7.027,7.0208,7.1073,6.9613,6.8139,6.8331,6.7038,6.6051,6.6628,6.7628,6.8783,6.9937,7.1986,7.3519,7.3714,7.4619,7.5064,7.4681,7.3877,7.3117,7.2548,7.2128,7.1556,7.0666,7.1178,7.1632,7.1937,7.1937,7.1917,7.1897,7.1897,7.2353,7.3286,7.3552,7.4086,7.4771,7.5,7.5171,7.5264,7.5264,0.0,0.0,0.0,0.0,0.0,7.5779,7.5848,7.5864,7.5872,7.5902,7.5902,7.597,7.597,7.5985,7.6,7.6015,7.6015,7.6015,7.6015,7.5938,7.5668,7.4793,7.3596,7.2472,7.1577,7.0898,7.0898,7.0898,7.0821,7.0591,7.009,6.9629,6.936,6.859,6.7975,6.7975,6.7782,6.7628,6.7628,6.7628,6.7628,6.7628,6.709,6.6705,6.6705,6.6244,6.5897,6.5897,6.5947,6.5947,6.591,6.5897,6.5897,6.5897,6.5897,6.5897,6.5897,6.5897,6.5897,6.5897,6.5897,6.5897,6.5897,6.5897,6.5923,6.5972,6.5972,6.5842,7.113,7.0724,7.0319,7.0815,7.062,7.0528,7.1283,6.9798,6.8279,6.8424,6.7359,6.6538,6.7026,6.809,6.9321,7.0667,7.236,7.3755,7.4489,7.4973,7.5151,7.4934,7.4543,7.3934,7.3022,7.2887,7.2507,7.1635,7.2109,7.2526,7.2907,7.2907,7.3078,7.3459,7.3116,7.3383,7.4315,7.4315,7.4638,7.5227,7.5227,7.5301,7.5427,7.5427,0.0,0.0,0.0,0.0,0.0,7.591,7.594,7.594,7.6,7.6015,7.6015,7.6015,7.6015,7.6015,7.6015,7.6015,7.6015,7.6015,7.6015,7.6015,7.6015,7.5399,7.4437,7.3053,7.2283,7.1898,7.1901,7.1901,7.1915,7.1941,7.1556,7.1107,7.0786,7.0016,6.9323,6.9014,6.8706,6.8475,6.8475,6.8475,6.8475,6.8475,6.8013,6.7679,6.7679,6.6947,6.6446,6.6446,6.6162,6.5982,6.5933,6.5933,6.5933,6.5933,6.5933,6.5933,6.5933,6.5933,6.5933,6.5933,6.5933,6.5933,6.5933,6.5933,6.5958,6.5993,6.5993,6.6017,0.0,7.0871,7.0815,7.0815,7.0815,7.0882,7.1056,6.981,0.0,6.859,6.7896,6.7294,6.7308,6.868,7.009,7.0937,7.2476,7.3832,7.4604,7.4628,7.4451,7.4047,7.4714,7.479,7.3722,7.3682,7.3341,7.2545,7.2564,7.2983,7.3839,7.3896,7.4315,7.5171,7.4372,7.4334,7.5209,7.5209,7.5227,7.53,7.5338,7.5427,7.5599,7.5599,0.0,0.0,0.0,0.0,0.0,7.5985,7.6015,7.6015,7.6015,7.6015,7.6015,7.6015,7.6015,7.6015,7.6015,7.6015,7.6015,7.6015,7.6015,7.6015,7.6015,7.5399,7.4553,7.3783,7.3553,7.3528,7.3573,7.3599,7.3613,7.3691,7.3703,7.3472,7.2661,7.1851,7.1041,7.023,6.942,6.8841,6.8803,6.8803,6.8803,6.8803,6.8725,6.8687,6.8687,6.7915,6.7375,6.7375,6.6669,6.6206,6.6206,6.609,6.6001,6.6001,6.6001,6.6001,6.6001,6.6001,6.6001,6.6001,6.6001,6.6001,6.6001,6.6001,6.6013,6.6013,6.6013,6.6013,7.1224,0.0,7.2007,7.2007,7.2007,7.202,0.0,7.0785,6.9589,6.9589,6.8895,6.8446,6.9066,7.0016,7.1196,7.2629,7.3745,7.4678,7.5472,7.5462,7.5298,7.516,7.5223,7.4903,7.3897,7.4352,7.4292,7.3378,7.3989,7.4503,7.4713,7.4828,7.4981,7.5283,7.5074,7.5036,7.5283,7.5283,7.5338,7.5445,7.5497,7.5549,7.5599,7.5628,0.0,0.0,0.0,0.0,7.5985,7.6,7.6015,7.6015,7.6015,7.6015,7.6015,7.6015,7.6015,7.6015,7.6015,7.6015,7.6015,7.6015,7.6015,7.6015,7.6015,7.5399,7.4683,7.4546,7.406,7.3573,7.3652,7.3678,7.3678,7.3703,7.3703,7.3626,7.3433,7.324,7.2854,7.1967,7.1658,7.1311,7.0643,7.0527,7.0527,7.0527,6.9987,6.9574,6.9574,6.8841,6.8301,6.8301,6.8143,6.8061,6.8061,6.6807,6.6001,6.6001,6.6001,6.6001,6.6001,6.6001,6.6001,6.6001,6.6001,6.6001,6.6001,6.6001,6.6036,6.608,6.608,6.6102,7.1794,7.2175,7.2476,7.2476,7.2476,7.2476,7.2476,7.1163,6.9954,6.9969,6.9533,6.942,7.0208,7.1043,7.2134,7.3783,7.4409,7.4773,7.5149,7.5403,7.54,7.4913,7.5127,7.5092,7.4543,7.4848,7.4866,7.4351,7.479,7.5114,7.5152,7.5209,7.5283,7.5392,7.5392,7.5392,7.5392,7.5427,7.548,7.557,7.5616,7.5682,7.5753,7.5763,7.5826,0.0,0.0,0.0,7.6015,7.6015,7.6015,7.6015,7.6015,7.6015,7.6015,7.6015,7.6245,7.6553,7.613,7.6015,7.6015,7.6015,7.6015,7.6015,7.602,7.5726,7.5341,7.5383,7.5116,7.4809,7.4886,7.4899,7.4912,7.4949,7.4949,7.4833,7.4446,7.4331,7.4099,7.3249,7.3094,7.294,7.2464,7.2387,7.2233,7.1846,7.1433,7.1008,7.0583,6.9772,6.9231,6.9231,6.8944,6.8734,6.8734,6.7851,6.7095,6.6709,6.6323,6.6091,6.6091,6.6091,6.6091,6.6091,6.6091,6.6091,6.6091,6.6091,6.6112,6.6144,6.6144,6.6155,7.2375,7.2673,7.2827,7.2944,7.2971,7.2932,7.2816,7.1617,7.0524,7.0401,7.0429,7.0691,7.1313,7.2122,7.3135,7.4476,7.4734,7.4704,7.4599,7.5111,7.5216,7.4402,7.4918,7.5301,7.5228,7.5228,7.5228,7.5209,7.5209,7.5227,7.532,7.5338,7.5392,7.5535,7.5535,7.5535,7.5514,7.5566,7.5599,7.5616,7.5715,7.5794,7.5895,7.5895,7.594,0.0,0.0,0.0,7.6015,7.6015,7.6015,7.6015,7.6015,7.6092,7.6207,7.6207,7.6746,7.7361,7.663,7.6361,7.6361,7.6245,7.6222,7.6236,7.6269,7.6233,7.617,7.6286,7.6288,7.6225,7.6301,7.6313,7.6338,7.6386,7.6397,7.6204,7.5469,7.5314,7.5082,7.4231,7.4077,7.4038,7.3922,7.3883,7.3651,7.2916,7.28,7.2491,7.1601,7.0827,7.0363,7.0208,6.9589,6.9164,6.9164,6.9048,6.8661,6.7926,6.7075,6.6611,6.6611,6.6611,6.6611,6.6611,6.6611,6.6611,6.6611,6.6611,6.6533,6.6417,6.6417,6.634,7.2375,7.3114,7.3775,7.4459,7.4576,7.4372,7.3677,7.333,7.2918,7.2283,7.2669,7.3225,7.3266,7.3934,7.4456,7.4595,7.5095,7.5441,7.5408,7.5455,7.5462,7.5292,7.5368,7.5409,7.5301,7.5301,7.5264,7.5209,7.5246,7.5301,7.532,7.5409,7.548,7.5566,7.5583,7.5616,7.566,7.5633,7.5633,7.5676,7.5794,7.5879,7.5895,7.597,7.6,0.0,0.0,7.6015,7.6015,7.6015,7.6015,7.6015,7.6015,7.6438,7.7092,7.7092,7.763,7.8284,7.8169,7.813,7.7977,7.7323,7.7136,7.7193,7.7207,7.6764,7.643,7.7164,7.6855,7.6301,7.6374,7.6386,7.6386,7.6397,7.6397,7.6359,7.6243,7.6204,7.5933,7.5082,7.4928,7.4695,7.4038,7.3883,7.3844,7.3728,7.369,7.338,7.2491,7.2297,7.191,7.1175,7.0982,7.0905,7.0905,7.0247,6.9744,6.9628,6.8854,6.839,6.839,6.839,6.839,6.839,6.839,6.839,6.839,6.839,6.8003,6.7307,6.7307,6.692,7.2375,7.3157,7.3921,7.4694,7.4886,7.473,7.4318,7.3881,7.3432,7.3073,7.3344,7.3768,7.4164,7.4535,7.4903,7.5134,7.5414,7.5583,7.5532,7.5535,7.5518,7.5518,7.5518,7.5501,7.5409,7.5409,7.5392,7.5376,7.5374,7.5409,7.5409,7.5497,7.5549,7.5599,7.5649,7.5715,7.5794,7.5801,7.5801,7.5794,7.5925,7.5955,7.5955,7.6,7.6015,7.6015,0.0,7.6284,7.6707,7.6707,7.6938,7.7361,7.7361,7.7592,7.8015,7.8477,7.8592,7.8554,7.9054,7.893,7.8474,7.8127,7.7747,7.7547,7.805,7.764,7.7202,7.8089,7.7394,7.6362,7.6397,7.6397,7.6397,7.6397,7.6397,7.6397,7.6397,7.6397,7.6281,7.5895,7.5817,7.5701,7.5314,7.5237,7.5082,7.4618,7.4541,7.427,7.3419,7.3303,7.2955,7.2104,7.1988,7.1794,7.133,7.0943,7.0324,6.9396,6.9009,6.8816,6.8816,6.8816,6.8816,6.8816,6.8816,6.8816,6.8816,6.8816,6.8584,6.8197,6.8197,6.8003,7.2375,7.2978,7.3626,7.4549,7.4917,7.4938,7.4672,7.422,7.3821,7.3658,7.3986,7.4437,7.4855,7.4947,7.5133,7.5529,7.5544,7.5514,7.5445,7.5445,7.5445,7.5501,7.5518,7.5518,7.5518,7.5518,7.5518,7.5518,7.5497,7.5497,7.5497,7.5583,7.5633,7.5649,7.5731,7.5794,7.5925,7.5925,7.5925,7.5925,7.5985,7.6029,7.6044,7.6236,7.6328,7.6342,7.6573,7.7035,7.7651,7.7651,7.7997,7.8507,7.8507,7.8661,7.89,7.9785,7.9669,7.9223,7.9877,7.9745,7.9187,7.9008,7.8563,7.8245,7.8954,7.8593,7.8116,7.9016,7.8177,7.7016,7.7016,7.7016,7.6939,7.6746,7.6707,7.663,7.6436,7.6397,7.6397,7.6397,7.6397,7.6397,7.6397,7.6397,7.6165,7.5508,7.5392,7.5121,7.4309,7.4193,7.3844,7.2993,7.2916,7.2568,7.1678,7.1601,7.0982,6.9473,6.9396,6.9396,6.9396,6.9396,6.9396,6.9396,6.9396,6.9396,6.9396,6.9396,6.928,6.9087,6.9087,6.897,7.2375,7.2553,7.2855,7.4395,7.5225,7.5424,7.4522,7.4801,7.5073,7.4391,7.5545,7.6437,7.5747,7.5567,7.5489,7.5336,7.53,7.5338,7.5338,7.53,7.5374,7.5501,7.5518,7.5518,7.5518,7.5518,7.5518,7.5518,7.5549,7.5583,7.5583,7.5682,7.5763,7.5864,7.5879,7.5925,7.6,7.6,7.6,7.6,7.6015,7.602,7.6129,7.6938,7.7326,7.7433,7.8243,7.8629,7.8706,7.8706,7.8665,7.8594,7.8594,7.9052,7.9823,8.0708,8.0977,8.0916,8.1069,8.106,8.0882,8.0144,7.9905,7.9919,7.9971,7.9481,7.9054,7.9879,7.9492,7.8796,7.8796,7.8796,7.8602,7.779,7.7597,7.7365,7.6552,7.6397,7.6397,7.6397,7.6397,7.6397,7.6397,7.6397,7.6359,7.632,7.632,7.5972,7.5121,7.4993,7.4695,7.3883,7.3806,7.3458,7.2568,7.2491,7.2104,7.1175,7.1137,7.1137,7.1137,7.1137,7.1137,7.1137,7.1137,7.1137,7.1137,7.1137,7.0711,6.9899,6.9899,6.9512,7.1645,7.2066,7.2649,7.3647,7.4367,7.485,7.4996,7.5163,7.515,7.4789,7.5281,7.575,7.5655,7.5583,7.5497,7.5427,7.5356,7.5301,7.5227,7.5283,7.5338,7.5374,7.5427,7.5518,7.5518,7.5553,7.5549,7.5549,7.5633,7.5644,7.5644,7.5763,7.5864,7.5895,7.594,7.6245,7.6857,7.6857,7.7155,7.775,7.7155,7.7169,7.7792,7.8139,7.8268,7.8334,7.8643,7.9067,7.9555,7.9555,7.985,8.0285,8.0227,8.0399,8.0669,8.0977,8.1124,8.1169,8.1199,8.1234,8.128,8.0961,8.0551,8.0267,8.0808,8.0396,7.9918,8.0769,8.0807,8.0304,7.926,7.8989,7.8912,7.8602,7.8525,7.8409,7.8099,7.8022,7.8022,7.8022,7.8022,7.7829,7.7287,7.721,7.7016,7.6475,7.6397,7.6281,7.5933,7.5895,7.5585,7.4734,7.4193,7.3767,7.3458,7.3419,7.3264,7.2955,7.191,7.1291,7.1291,7.1291,7.1291,7.1291,7.1291,7.1291,7.1291,7.1291,7.1158,7.088,7.088,7.0746,7.1269,7.1784,7.2534,7.3206,7.3829,7.4482,7.5183,7.5228,7.5074,7.4937,7.4939,7.5152,7.5717,7.5565,7.5338,7.5338,7.5283,7.5209,7.5209,7.5227,7.5301,7.5356,7.5427,7.5518,7.5553,7.5566,7.5616,7.5633,7.5715,7.5779,7.5779,7.5879,7.6056,7.6355,7.6414,7.691,7.7828,7.7828,7.8293,7.921,7.8552,7.8475,7.8824,7.9094,7.9223,7.925,7.952,7.997,8.0472,8.0472,8.0806,8.1319,8.1273,8.1214,8.1169,8.1169,8.1199,8.122,8.1273,8.1319,8.14,8.1427,8.1079,8.073,8.131,8.1078,8.073,8.1349,8.1491,8.1233,8.0111,7.9801,7.9724,7.9453,7.9376,7.9299,7.9067,7.8989,7.8989,7.8989,7.8989,7.8796,7.8216,7.8099,7.779,7.6939,7.6823,7.6707,7.6436,7.6397,7.6165,7.5585,7.5005,7.4579,7.4309,7.427,7.4204,7.3944,7.2794,7.201,7.1717,7.1717,7.1562,7.1291,7.1313,7.1324,7.1324,7.1334,7.1376,7.1426,7.1426,7.1455,7.1345,7.1781,7.2469,7.3149,7.3734,7.4343,7.4847,7.4937,7.4854,7.4712,7.4691,7.5019,7.6078,7.5586,7.5017,7.5017,7.5017,7.5056,7.519,7.5209,7.5284,7.5483,7.5518,7.5535,7.5583,7.5599,7.5633,7.5692,7.5848,7.5895,7.5895,7.597,7.6443,7.7362,7.7414,7.7866,7.8797,7.8797,7.9262,8.01,8.01,7.9714,7.8967,7.9752,8.0164,8.0266,8.1117,8.1491,8.1491,8.1491,8.1453,8.1387,8.1319,8.1291,8.1291,8.1291,8.1291,8.1305,8.1374,8.14,8.1414,8.1478,8.1491,8.1491,8.1491,8.1491,8.1491,8.1491,8.1491,8.1491,8.1491,8.1491,8.1259,8.042,8.0227,7.9995,7.9183,7.9028,7.9028,7.9028,7.9028,7.9028,7.9028,7.9028,7.8718,7.7829,7.7713,7.7403,7.6514,7.6397,7.6409,7.6409,7.6409,7.6049,7.5198,7.5121,7.4796,7.4048,7.402,7.3601,7.2645,7.2607,7.222,7.133,7.1394,7.1415,7.1415,7.1465,7.1523,7.1499,7.149,7.1556,7.2052,7.2209,7.2544,7.3714,7.401,7.4105,7.4591,7.4653,7.4563,7.4403,7.4358,7.4545,7.5073,7.5046,7.4935,7.4935,7.4957,7.5036,7.5056,7.5152,7.5247,7.5356,7.548,7.5566,7.5599,7.5737,7.5833,7.5848,7.5925,7.6269,7.6905,7.6972,7.7414,7.837,7.837,7.8797,7.9713,7.9713,8.0177,8.1092,8.1092,8.0963,8.0731,8.0963,8.1092,8.1117,8.1387,8.1491,8.1491,8.1491,8.1453,8.14,8.1374,8.1333,8.1291,8.1291,8.1319,8.136,8.1387,8.1427,8.1466,8.1491,8.1491,8.1491,8.1491,8.1491,8.1491,8.1491,8.1491,8.1491,8.1491,8.1491,8.1414,8.1194,8.1117,8.1039,8.0807,8.0769,8.0769,8.0769,8.0769,8.0575,7.9956,7.984,7.9569,7.8757,7.8602,7.8293,7.7442,7.6819,7.6455,7.6455,7.6499,7.6443,7.6172,7.6172,7.6049,7.5828,7.5838,7.5149,7.3664,7.3586,7.347,7.3199,7.3287,7.3316,7.3316,7.2738,7.2524,7.2524,7.1931,7.1693,7.2395,7.2619,7.2899,7.3937,7.4236,7.433,7.4412,7.435,7.4275,7.4151,7.4127,7.422,7.4498,7.4686,7.4771,7.4812,7.4917,7.5036,7.5075,7.5171,7.5283,7.5409,7.5532,7.5616,7.5699,7.5833,7.6079,7.6485,7.6544,7.6987,7.7919,7.7957,7.837,7.93,7.93,7.9765,8.0628,8.068,8.0937,8.1541,8.1541,8.1553,8.1577,8.1553,8.1553,8.1577,8.1577,8.1577,8.1577,8.1577,8.1553,8.1516,8.1516,8.1491,8.1466,8.1466,8.1491,8.1516,8.1491,8.1504,8.1541,8.1504,8.1491,8.1491,8.1491,8.1491,8.1491,8.1491,8.1491,8.1491,8.1491,8.1491,8.1491,8.1491,8.1491,8.1491,8.1491,8.1491,8.1491,8.1491,8.1491,8.1349,8.0807,8.073,8.042,7.9608,7.9245,7.8843,7.8325,7.7567,7.7056,7.7056,7.6817,7.6632,7.6632,7.6651,7.6678,7.6691,7.6707,7.6249,7.5191,7.4775,7.4438,7.4106,7.4148,7.418,7.4196,7.371,7.3535,7.3576,7.3046,7.2837,7.2529,7.3052,7.351,7.3976,7.4466,7.4708,7.4289,7.408,7.4009,7.4009,7.4009,7.4104,7.4335,7.4432,7.4541,7.467,7.4877,7.5056,7.519,7.5264,7.5392,7.5583,7.5616,7.5721,7.5995,7.6025,7.6447,7.7453,7.753,7.7919,7.8874,7.8926,7.93,8.0177,8.0216,8.0641,8.1504,8.1504,8.1541,8.1612,8.1612,8.1646,8.1702,8.1646,8.1646,8.1691,8.1691,8.1691,8.1691,8.1702,8.1702,8.1702,8.1713,8.1713,8.1723,8.1723,8.1723,8.1713,8.1658,8.1596,8.1612,8.1553,8.1516,8.1516,8.1516,8.1516,8.1516,8.1516,8.1516,8.1516,8.1516,8.1516,8.1516,8.1516,8.1504,8.1491,8.1491,8.1504,8.1504,8.1504,8.1516,8.1516,8.1516,8.1516,8.1245,8.0445,7.968,7.9244,7.9231,7.8544,7.803,7.8039,7.739,7.6972,7.698,7.6933,7.6936,7.693,7.6921,7.6911,7.6902,7.6086,7.5252,7.447,7.4509,7.4539,7.4561,7.4519,7.4554,7.4627,7.4552,7.4519,7.3147,7.3481,7.3515,7.4595,7.4523,7.4197,7.408,7.3961,7.3888,7.3985,7.4009,7.4104,7.4335,7.4432,7.4541,7.467,7.4877,7.5056,7.519,7.5358,7.548,7.5583,7.5753,7.611,7.687,7.7006,7.7477,7.8423,7.85,7.8888,7.9765,7.9803,8.0254,8.1169,8.1208,8.1323,8.1577,8.1589,8.1612,0.0,8.168,8.1702,8.1794,8.1702,8.168,8.1691,8.1691,8.1691,8.1702,8.1706,8.1677,8.1726,8.1767,8.1765,8.1765,8.1839,8.183,8.1765,8.1746,8.1738,8.1667,8.1646,8.1652,8.1658,8.1658,8.1658,8.1658,8.1658,8.1658,8.1658,8.1658,8.1658,8.1658,8.1658,8.1577,8.1491,8.1491,8.1541,8.1589,8.1589,8.1624,8.1658,8.1658,8.1658,8.1591,8.1402,8.0687,8.0233,8.0279,7.9593,7.9065,7.9091,7.8974,7.8893,7.892,7.8262,7.7921,7.7983,7.7363,7.6993,7.7065,7.6813,7.6581,7.6391,7.6414,7.6427,7.6431,7.5804,7.5509,7.5514,7.4859,7.4591,7.2368,7.2761,7.299,7.4104,7.4044,7.3778,7.4085,7.4151,7.408,7.4104,7.4056,7.4104,7.4335,7.4432,7.4563,7.4733,7.4957,7.5133,7.5339,7.5445,7.5736,7.6251,7.6455,7.687,7.7766,7.7992,7.8461,7.9339,7.9429,7.9803,8.0718,8.0795,8.1052,8.1514,8.1577,8.1612,8.1646,8.1646,8.168,8.1734,8.1734,8.1765,8.1854,8.1824,8.1814,8.1814,8.1805,8.1815,8.1815,8.1824,8.1822,8.1848,8.1875,8.1912,8.1934,8.1968,8.1968,8.1948,8.1912,8.1875,8.1826,8.1822,8.1794,8.1805,8.1805,8.1805,8.1805,8.1805,8.1805,8.1805,8.1805,8.1805,8.1805,8.1805,8.1685,8.16,8.16,8.1608,8.1652,8.1652,8.1716,8.1738,8.1738,8.1757,8.1824,8.183,8.1476,8.1244,8.1304,8.0617,8.0113,8.0105,7.9791,7.9615,7.959,7.9167,7.8942,7.8986,7.8523,7.8298,7.8347,7.7946,7.7505,7.7062,7.7068,7.7076,7.7081,7.6663,7.6474,7.6478,7.605,7.5856,7.129,7.2055,7.2769,7.3459,7.3577,7.3689,7.4319,7.4425,7.438,7.4266,7.4151,7.4151,7.438,7.4476,7.4649,7.4895,7.5113,7.5321,7.5483,7.5697,7.6175,7.7009,7.7346,7.7819,7.8753,7.8976,7.9378,8.0267,8.0358,8.0692,8.1477,8.1589,8.1624,8.1624,8.1669,8.1702,8.1713,8.1713,8.1734,8.1834,8.1834,8.1854,8.1902,8.1902,8.1902,8.1911,8.1917,8.1934,8.1904,8.1991,8.2036,8.2033,8.2044,8.2078,8.2104,8.2132,8.2136,8.2127,8.2045,8.2023,8.2005,8.1948,8.192,8.1912,8.1912,8.1912,8.1912,8.1912,8.1912,8.1912,8.1912,8.1912,8.1912,8.1912,8.1848,8.1757,8.1726,8.1757,8.1757,8.1767,8.1809,8.1867,8.1867,8.189,8.1966,8.2,8.2032,8.2028,8.2099,8.1551,8.1148,8.1155,8.0553,8.0137,8.0139,8.0028,7.9915,7.9915,7.9762,7.9685,7.9685,7.9062,7.8358,7.757,7.7258,7.7143,7.7185,7.7185,7.7186,7.7187,7.7187,7.7187,7.1065,7.2869,7.409,7.3893,7.4177,7.4556,7.4649,7.4563,7.4476,7.4476,7.4425,7.438,7.4476,7.467,7.4895,7.4977,7.5246,7.5483,7.5501,7.636,7.7062,7.7154,7.8017,7.8951,7.979,7.9919,8.0306,8.1246,8.1347,8.1472,8.1589,8.1646,8.168,8.168,8.1691,8.1723,8.1804,8.1804,8.1834,8.1883,8.1883,8.1911,8.1917,8.1917,8.1917,8.1917,8.1959,8.1983,8.1983,8.2065,8.2071,8.2106,8.214,8.2173,8.2188,8.2242,8.224,8.2188,8.2185,8.2124,8.2093,8.2088,8.207,8.2055,8.2055,8.2055,8.2055,8.2055,8.2055,8.2055,8.2055,8.2055,8.2055,8.2055,8.2045,8.1999,8.1913,8.1913,8.1951,8.1948,8.2005,8.205,8.205,8.205,8.206,8.2088,8.2093,8.2109,8.2182,8.2074,8.2044,8.2101,8.2025,8.195,8.1952,8.125,8.082,8.082,8.0117,7.9687,7.9687,7.9609,7.9492,7.9375,7.7929,7.7187,7.7187,7.7187,7.7187,7.7187,7.7187,7.7187,7.0275,7.1349,7.2109,7.3277,7.3636,7.3935,7.4731,7.4839,7.4737,7.4674,7.4674,7.4733,7.475,7.4812,7.4995,7.5227,7.5392,7.574,7.636,7.6886,7.7583,7.8633,7.9208,7.9868,8.0744,8.0898,8.1103,8.1514,8.1624,8.1658,8.1658,8.1713,8.1745,8.1745,8.1775,8.1834,8.1864,8.1864,8.1873,8.1892,8.1881,8.1908,8.1887,8.1937,8.1945,8.1967,8.2007,8.2036,8.2065,8.2077,8.2128,8.2218,8.2723,8.2942,8.2998,8.3004,8.3004,8.2924,8.2412,8.225,8.2203,8.2196,8.2227,8.2299,8.2807,8.2924,8.3041,8.3513,8.3669,8.3552,8.308,8.2924,8.2807,8.2339,8.2573,8.2918,8.2881,8.2421,8.2055,8.2097,8.2156,8.217,8.2221,8.2221,8.2224,8.2191,8.2198,8.2207,8.2253,8.2257,8.2261,8.2304,8.2304,8.2304,8.2304,8.1953,8.1719,8.1719,8.1367,8.1172,8.1172,8.0703,8.0429,8.0429,7.9219,7.8398,7.793,7.793,7.7695,7.7187,7.7187,7.7187,6.9411,7.0137,7.0687,7.261,7.3183,7.3598,7.4705,7.5017,7.5076,7.496,7.5037,7.5076,7.5056,7.5074,7.5171,7.5462,7.5566,7.6005,7.7062,7.7458,7.8223,7.9839,8.028,8.0731,8.1375,8.1565,8.1635,8.1635,8.168,8.1713,8.1713,8.1804,8.1834,8.1834,8.1873,8.1892,8.1892,8.1902,8.1911,8.1911,8.1917,8.2029,8.227,8.2294,8.2465,8.2645,8.2214,8.2052,8.2122,8.2357,8.2487,8.2612,8.3526,8.3895,8.3944,8.3945,8.3945,8.3828,8.3202,8.2967,8.2967,8.2964,8.2961,8.3079,8.3744,8.3939,8.4056,8.472,8.4916,8.4759,8.4095,8.3939,8.3783,8.3118,8.347,8.3938,8.3934,8.3174,8.2495,8.2554,8.2365,8.2251,8.2297,8.2297,8.2297,8.2297,8.2301,8.2303,8.2303,8.2304,8.2304,8.2304,8.2304,8.2304,8.2304,8.2304,8.2304,8.2304,8.2304,8.2304,8.2304,8.1679,8.1328,8.1328,8.0703,7.9844,7.8789,7.8594,7.8164,7.7539,7.7305,7.7187,6.8811,7.0297,7.1606,7.2357,7.3509,7.4442,7.452,7.4965,7.5368,7.5368,7.5368,7.5424,7.5549,7.5497,7.5518,7.5566,7.5794,7.6269,7.7092,7.8125,7.9147,7.9971,8.0948,8.1562,8.16,8.1658,8.1691,8.1691,8.1745,8.1775,8.1775,8.1864,8.1892,8.1892,8.1892,8.1892,8.1892,8.1899,8.1878,8.1887,8.1967,8.2435,8.3219,8.3219,8.3707,8.4481,8.2797,8.2112,8.2156,8.3064,8.3419,8.3526,8.4474,8.4839,8.4844,8.4844,8.4844,8.4844,8.4765,8.4765,8.4765,8.4765,8.4765,8.4765,8.4804,8.4844,8.4844,8.4883,8.4883,8.4883,8.4844,8.4844,8.4804,8.4765,8.4804,8.4843,8.4835,8.4133,8.3511,8.3511,8.285,8.2304,8.2304,8.2304,8.2304,8.2304,8.2304,8.2304,8.2304,8.2304,8.2304,8.2304,8.2304,8.2304,8.2304,8.2304,8.2304,8.2304,8.2304,8.2304,8.2304,8.2265,8.2226,8.2226,8.2187,8.1328,7.9648,7.8867,7.8476,7.8398,7.7578,7.7187,6.804,6.9257,7.0355,7.1641,7.307,7.4226,7.4706,7.5317,7.5756,7.5733,7.5733,7.5749,7.5917,7.5779,7.5682,7.5826,7.6423,7.7169,7.8153,7.9082,8.001,8.0948,8.1383,8.1624,8.1658,8.1713,8.1765,8.1757,8.1844,8.189,8.1917,8.1934,8.1943,8.1943,8.1943,8.2215,8.2798,8.336,8.364,8.364,8.3649,8.3835,8.4161,8.4182,8.4364,8.4668,8.4078,8.382,8.3859,8.4204,8.4362,8.4474,8.5337,8.5699,8.5742,8.5742,8.5742,8.5664,8.5078,8.4883,8.4883,8.4883,8.4883,8.5,8.5547,8.5742,8.5859,8.6406,8.6562,8.6445,8.5898,8.5742,8.5742,8.5742,8.5742,8.5898,8.6444,8.5429,8.4257,8.371,8.3359,8.2969,8.2383,8.2304,8.2304,8.2304,8.2304,8.2304,8.2304,8.2304,8.2304,8.2304,8.2304,8.2304,8.2304,8.2304,8.2304,8.2304,8.2304,8.2304,8.2304,8.2304,8.2304,8.2304,8.2304,8.1719,8.0547,8.0234,7.9805,7.9258,7.8437,7.8047,6.7654,6.8671,6.9591,7.099,7.2479,7.3752,7.4528,7.5221,7.5787,7.6018,7.6068,7.6106,7.6198,7.6066,7.6097,7.6433,7.7004,7.7871,7.9147,7.9842,8.051,8.1507,8.1658,8.1691,8.1745,8.1796,8.1854,8.186,8.1895,0.0,8.1991,8.2264,8.2575,8.2847,8.2886,8.3159,8.3742,8.4303,8.4583,8.4583,8.4628,8.4798,8.5071,8.5111,8.5292,8.5582,8.5624,8.5327,8.4824,8.5126,8.5275,8.5377,8.6201,8.6598,8.664,8.664,8.664,8.6562,8.5976,8.5781,8.5781,8.5781,8.5781,8.5898,8.6445,8.664,8.6758,8.7344,8.75,8.7383,8.6797,8.664,8.664,8.664,8.664,8.6797,8.7343,8.6328,8.5078,8.4219,8.3789,8.332,8.2461,8.2539,8.2734,8.2734,8.3008,8.3164,8.3164,8.3164,8.3164,8.3164,8.3164,8.3164,8.3164,8.3164,8.3164,8.3164,8.289,8.2734,8.2734,8.2461,8.2304,8.2304,8.2304,8.2031,8.1445,8.1133,8.0703,8.0117,7.9297,7.875,0.0,0.0,0.0,7.0388,7.175,7.309,7.3885,7.4653,7.5439,7.62,7.6377,7.6409,7.6409,7.6455,7.6742,7.7447,7.7589,7.8232,7.9956,8.0287,8.0694,8.1575,8.1745,8.1805,8.1815,8.186,8.1943,8.1991,8.203,8.203,8.203,8.2847,8.3742,8.456,8.4637,8.4637,8.4637,8.4645,8.4667,8.4667,8.4741,8.5228,8.6046,8.6038,8.6485,8.7303,8.736,8.6441,8.4923,8.578,8.6151,8.6238,8.7065,8.742,8.75,8.75,8.75,8.75,8.75,8.75,8.75,8.75,8.75,8.75,8.75,8.75,8.75,8.75,8.75,8.75,8.75,8.75,8.75,8.75,8.75,8.7461,8.7419,8.6796,8.5976,8.5117,8.4258,8.3398,8.2539,8.3086,8.3633,8.3633,8.4375,8.4883,8.4883,8.4883,8.4883,8.4883,8.4883,8.4883,8.4883,8.4883,8.4883,8.4883,8.4101,8.3633,8.3633,8.2812,8.2344,8.2344,8.2344,8.2344,8.2304,8.1445,8.1054,8.1015,8.0156,7.9297,6.6878,0.0,0.0,0.0,0.0,0.0,7.3349,7.4422,7.5478,7.5647,7.6167,7.6604,7.6604,7.6585,7.7059,7.8491,7.869,7.9067,8.0202,8.0883,8.143,8.1728,8.1786,8.1824,8.1943,8.1967,8.2007,0.0,8.2663,8.302,8.3007,8.3845,8.4415,8.4649,8.5272,8.5623,8.5623,8.6175,8.6507,8.6533,8.6584,8.6713,8.693,8.6935,8.7107,8.736,8.739,8.7134,8.6717,8.696,8.7051,8.7065,8.73,8.7421,8.742,8.742,8.7418,8.7415,8.7415,8.7417,8.742,8.742,8.746,8.75,8.75,8.75,8.75,8.75,8.75,8.75,8.75,8.75,8.75,8.742,8.742,8.7419,8.7413,8.7218,8.6829,8.593,8.5578,8.5149,8.4329,8.4368,8.4525,8.4529,8.4764,8.4881,8.4883,8.4883,8.4883,8.4883,8.4883,8.4883,8.4883,8.4883,8.4883,8.4883,8.4687,8.4531,8.4531,8.4297,8.3867,8.3242,8.3242,8.2929,8.2304,8.207,8.1953,8.1914,8.1054,8.0195,6.7771,6.8903,6.9921,6.9937,0.0,0.0,7.3537,7.4392,7.5264,7.5923,7.6455,7.6777,7.6793,7.6739,7.7299,7.9031,7.9278,7.966,8.0834,8.1416,8.1767,8.186,8.1887,8.1928,8.2036,8.2058,8.2208,8.2647,8.3159,8.375,8.4468,8.4964,8.542,8.5771,8.6278,8.6551,8.6551,8.7019,8.7259,8.7315,8.7315,8.7292,8.7316,8.7326,8.7343,8.7404,8.7381,8.7397,8.7405,8.7405,8.7411,8.7418,8.7382,8.7382,8.7417,8.7415,8.7413,8.7408,8.7408,8.7411,8.7415,8.7415,8.7417,8.7458,8.7458,8.7458,8.7458,8.7458,8.7458,8.7458,8.7458,8.7458,8.7458,8.7415,8.7415,8.7413,8.7405,8.7403,8.713,8.6276,8.608,8.5846,8.5026,8.5182,8.5418,8.5383,8.5696,8.5932,8.5935,8.5935,8.5935,8.5936,8.5936,8.5937,8.5976,8.5976,8.5976,8.5976,8.5625,8.5429,8.5429,8.5078,8.4648,8.414,8.3789,8.3164,8.2304,8.2304,8.2304,8.2304,8.1797,8.1094,6.9528,7.0113,7.0738,7.0816,7.1497,0.0,7.414,7.4565,7.5089,7.6568,7.6886,7.6936,7.6911,7.69,7.7473,7.9228,7.9494,8.0036,8.1618,8.1833,8.1869,8.1991,8.1998,8.2033,8.2116,8.2184,8.2601,8.3445,8.3683,8.4468,8.6068,8.6141,8.6531,8.7429,8.7429,8.7507,8.7585,8.7585,8.7585,8.7589,8.7589,8.7603,8.7585,8.7677,8.7693,8.7668,8.7602,8.7531,8.7536,8.7458,8.738,8.7381,8.7382,8.7417,8.7415,8.741,8.7407,8.7405,8.7405,8.7407,8.7407,8.7407,8.7408,8.7408,8.7408,8.7408,8.7408,8.7408,8.7408,8.7408,8.7408,8.7408,8.7408,8.7407,8.7407,8.7405,8.7392,8.7389,8.7157,8.6387,8.6233,8.6038,8.5296,8.5765,8.6233,8.6235,8.6899,8.7408,8.7408,8.7408,8.7411,8.7416,8.7417,8.7419,8.7461,8.75,8.75,8.75,8.6757,8.6328,8.6328,8.5586,8.5156,8.5039,8.4101,8.3203,8.2422,8.2344,8.2304,8.2304,8.2304,8.1875,7.0465,7.0582,0.0,0.0,0.0,0.0,7.4287,7.5037,7.5625,7.5969,7.6577,7.7068,7.7065,7.7039,7.7554,7.9286,7.9533,8.0072,8.175,8.1967,8.1999,8.2078,8.2091,8.2116,8.2172,8.2825,8.3315,8.3494,8.4795,8.6053,8.7066,8.7092,8.7436,8.8334,8.8334,8.8689,8.9388,8.9388,8.9434,8.9489,8.9489,8.9459,8.9471,8.9473,8.9475,8.9438,8.8742,8.8435,8.8398,8.7695,8.7381,8.7381,8.7418,8.7411,8.7399,8.7397,8.7389,8.7417,8.7417,8.7387,8.7397,8.7397,8.7403,8.7408,8.7408,8.7408,8.7408,8.7408,8.7408,8.7408,8.7408,8.7408,8.7407,8.7399,8.7397,8.7392,8.7414,8.7411,8.7333,8.718,8.7144,8.7105,8.6948,8.7027,8.7147,8.716,8.7277,8.7399,8.7408,8.7408,8.741,8.7411,8.7411,8.7411,8.7413,8.7413,8.7413,8.7413,8.7257,8.7179,8.7179,8.6988,8.6599,8.5974,8.4414,8.3515,8.3359,8.2656,8.2304,8.2304,8.2304,8.2226,7.3236,0.0,0.0,7.3158,0.0,0.0,0.0,7.5493,7.593,7.6367,7.6796,7.7105,7.7104,7.7058,7.7478,7.8791,7.8972,7.9373,8.0612,8.1532,8.2065,8.2128,8.2143,8.2322,8.2784,8.3272,8.3911,8.4736,8.6422,8.7596,8.8026,8.8412,8.8837,8.9266,8.9312,8.9512,8.9941,8.9945,8.995,8.9993,8.9993,8.9996,8.9999,8.9999,9.0,8.9961,8.9531,8.9334,8.9293,8.8861,8.87,8.8619,8.7721,8.7403,8.7392,8.7384,8.7414,8.7404,8.7404,8.7411,8.742,8.742,8.7387,8.7392,8.7392,8.7392,8.7392,8.7392,8.7392,8.7392,8.7392,8.7392,8.7389,8.7381,8.742,8.7417,8.7407,8.7404,8.7404,8.7404,8.7404,8.7404,8.7404,8.7404,8.7407,8.7417,8.742,8.7384,8.7392,8.7392,8.7394,8.7401,8.7401,8.7403,8.7408,8.7408,8.7408,8.7408,8.7408,8.7408,8.7408,8.7413,8.7024,8.6164,8.5307,8.4645,8.4254,8.3825,8.3163,8.2304,8.2304,8.2304,0.0,0.0,0.0,0.0,0.0,7.5191,0.0,0.0,0.0,7.6943,7.7103,7.7105,7.7108,7.7108,7.7383,7.8241,7.8394,7.8702,7.9512,8.0761,8.1707,8.1922,8.1942,8.2347,8.3413,8.3856,8.4721,8.6245,8.7807,8.8706,8.8706,8.9527,9.0074,9.0269,9.0233,9.0312,9.0507,9.0507,9.0507,9.0507,9.0507,9.0506,9.0502,9.0502,9.0499,9.0494,9.0338,9.0258,9.0256,9.0061,9.0015,8.9846,8.8443,8.7897,8.7894,8.7879,8.7915,8.7915,8.7915,8.7798,8.7642,8.7642,8.7525,8.7404,8.7404,8.7404,8.7404,8.7404,8.7404,8.7404,8.7404,8.7404,8.7404,8.7404,8.7404,8.7404,8.7404,8.7404,8.7404,8.7404,8.7404,8.7404,8.7404,8.7404,8.7404,8.7404,8.7404,8.7404,8.7404,8.7404,8.7411,8.7387,8.7387,8.7392,8.7403,8.7403,8.7403,8.7403,8.7403,8.7403,8.7403,8.7405,8.7055,8.6354,8.6198,8.5768,8.5143,8.4987,8.4094,8.2538,8.2538,8.246,0.0,0.0,0.0,0.0,7.6789,0.0,0.0,0.0,7.6987,7.7068,0.0,7.7087,7.7089,0.0,0.0,7.8279,7.8397,7.8711,7.957,7.9842,8.0266,8.1024,8.1072,8.1706,8.3432,8.4922,8.6207,8.718,8.8155,8.8702,8.8702,8.9522,9.0342,9.1123,9.1162,9.1514,9.2295,9.2294,9.2294,9.2294,9.2294,9.2292,9.2292,9.2292,9.2292,9.2251,9.1509,9.1152,9.1104,9.0323,9.0003,8.9991,8.9768,8.9687,8.9714,8.9714,8.9711,8.9711,8.9711,8.9203,8.854,8.854,8.8032,8.7404,8.7404,8.7404,8.7404,8.7404,8.7404,8.7404,8.7404,8.7404,8.7404,8.7404,8.7404,8.7404,8.7404,8.7404,8.7404,8.7404,8.7404,8.7404,8.7404,8.7404,8.7404,8.7404,8.7404,8.7404,8.7404,8.7404,8.7407,8.7407,8.7407,8.7411,8.7411,8.7411,8.7411,8.7411,8.7411,8.7411,8.7411,8.7387,8.736,8.7252,8.6471,8.6041,8.5963,8.526,8.4401,8.3465,8.3465,8.304,0.0,0.0,0.0,0.0,0.0,0.0,7.7218,0.0,7.7101,0.0,0.0,0.0,0.0,0.0,0.0,0.0,7.7639,7.7761,7.8156,7.8198,7.871,8.0077,8.0663,0.0,8.3436,8.5112,8.624,8.6627,8.8385,8.9439,8.9439,9.0767,9.1666,9.2056,9.205,9.2241,9.2595,9.2549,9.2543,9.2543,9.2543,9.2543,9.2543,9.2543,9.2543,9.2504,9.2153,9.1994,9.1985,9.1595,9.1435,9.1432,9.1438,9.085,8.9984,8.9984,8.9984,8.9984,8.9984,8.975,8.9359,8.8852,8.811,8.7404,8.7404,8.7404,8.7404,8.7404,8.7404,8.7404,8.7404,8.7404,8.7404,8.7404,8.7404,8.7404,8.7404,8.7404,8.7404,8.7404,8.7404,8.7404,8.7404,8.7404,8.7404,8.7404,8.7404,8.7404,8.7404,8.7404,8.7404,8.7404,8.7404,8.7404,8.7404,8.7404,8.7404,8.7404,8.7404,8.7404,8.7404,8.7414,8.7381,8.7387,8.7035,8.684,8.684,8.6527,8.5903,8.5046,8.4552,8.4168,8.3933,0.0,0.0,0.0,0.0,0.0,0.0,0.0,0.0,0.0,0.0,0.0,0.0,0.0,7.7453,7.7453,0.0,7.7117,7.7117,7.7085,7.7643,7.9175,8.0307,0.0,0.0,8.455,8.5604,8.6073,0.0,8.9508,8.9978,9.1423,9.2322,9.2556,9.2585,9.258,9.258,9.2528,9.2482,9.2482,9.2482,9.2639,9.2873,9.2873,9.299,9.3185,9.2951,9.2873,9.2834,9.26,9.2482,9.2482,9.2482,9.1741,9.0687,9.0687,9.0687,9.0687,9.0687,9.0531,9.0218,8.932,8.8461,8.7759,8.7759,8.7603,8.7404,8.7404,8.7404,8.7404,8.7404,8.7404,8.7404,8.7404,8.7404,8.7404,8.7404,8.7404,8.7404,8.7404,8.7404,8.7404,8.7404,8.7404,8.7404,8.7404,8.7404,8.7404,8.7404,8.7404,8.7404,8.7404,8.7404,8.7404,8.7404,8.7404,8.7404,8.7404,8.7404,8.7404,8.7404,8.7404,8.7404,8.7404,8.7404,8.7404,8.7404,8.7404,8.7056,8.6431,8.5595,8.5097,0.0,0.0,0.0,8.2411,0.0,0.0,0.0,0.0,7.835,0.0,0.0,0.0,0.0,0.0,7.835,7.835,7.7648,0.0,0.0,7.7101,7.7427,7.8347,7.9942,8.1334,0.0,8.3077,8.4288,0.0,8.6978,0.0,8.9909,9.0846,9.1705,9.2486,9.2486,9.2486,9.2486,9.2482,9.2482,9.2482,9.2482,9.2951,9.3771,9.3771,9.4239,9.4981,9.4122,9.3771,9.3693,9.2834,9.2482,9.2482,9.2482,9.2482,9.2404,9.2404,9.2404,9.2404,9.2404,9.1897,9.1116,9.0257,8.9359,8.8657,8.8657,8.8071,8.7404,8.7404,8.7404,8.7404,8.7404,8.7404,8.7404,8.7404,8.7404,8.7404,8.7404,8.7404,8.7404,8.7404,8.7404,8.7404,8.7404,8.7404,8.7404,8.7404,8.7404,8.7404,8.7404,8.7404,8.7404,8.7404,8.7404,8.7404,8.7404,8.7404,8.7404,8.7404,8.7404,8.7404,8.7404,8.7404,8.7404,8.7404,8.7404,8.7404,8.7404,8.7404,8.7407,8.7329,8.6471,8.5621,0.0,0.0,8.5885,8.5026,0.0,0.0,0.0,0.0,0.0,0.0,0.0,0.0,0.0,0.0,7.839,7.839,7.7687,7.7101,0.0,7.6594,7.6365,7.6649,7.8206,7.9606,8.0498,0.0,0.0,8.3543,8.5963,0.0,8.8266,9.0218,9.1428,9.1702,9.2209,9.2482,9.2482,9.2482,9.2482,9.2482,9.2482,9.2951,9.381,9.381,9.4278,9.5098,9.4786,9.4317,9.3771,9.3497,9.3029,9.2482,9.2482,9.2482,9.2482,9.2482,9.2482,9.2482,9.2482,9.1975,9.1233,9.096,9.0257,8.9555,8.9555,8.9359,8.9125,8.9125,8.9125,8.9125,8.9125,8.9125,8.9125,8.9125,8.8696,8.8266,8.8266,8.7798,8.7404,8.7404,8.7404,8.7404,8.7404,8.7404,8.7404,8.7404,8.7404,8.7404,8.7404,8.7404,8.7404,8.7404,8.7404,8.7404,8.7404,8.7404,8.7404,8.7404,8.7404,8.7404,8.7404,8.7404,8.7404,8.7404,8.7404,8.7404,8.7404,8.7404,8.7404,8.7407,8.7095,8.6786,8.9984,8.8969,0.0,8.7173,8.5104,0.0,8.2489,0.0,0.0,0.0,0.0,0.0,0.0,0.0,7.9209,7.8897,7.8116,7.7453,0.0,7.6633,7.6242,7.6242,7.6984,7.7921,7.9131,8.0263,8.1317,8.2215,8.4597,8.6431,0.0,0.0,9.0648,9.1272,9.1819,9.2209,9.2482,9.2482,9.2482,9.2482,9.2482,9.3107,9.4278,9.4278,9.4903,9.5996,9.5684,9.5254,9.4669,9.4044,9.3458,9.2912,9.26,9.2482,9.2482,9.2482,9.2482,9.2482,9.2482,9.217,9.1741,9.1741,9.1155,9.0452,9.0452,9.0257,8.9984,8.9984,8.9984,8.9984,8.9984,8.9984,8.9984,8.9984,8.9555,8.9086,8.8774,8.8266,8.7759,8.7446,8.7404,8.7486,8.7798,8.7876,8.7759,8.7446,8.7404,8.7404,8.7404,8.7404,8.7404,8.7404,8.7404,8.7404,8.7404,8.7404,8.7404,8.7404,8.7404,8.7404,8.7404,8.7404,8.7404,8.7404,8.7404,8.7404,8.7404,8.7404,8.7404,8.7404,8.7404,8.7404]}]]